[[{"header":{"parameterUnit":"m.s-1","parameterCategory":1,"la1":31.0,"la2":29.5877,"lo1":-88.7671,"lo2":-86.6584,"dy":0.0162,"dx":0.0185,"nx":115,"ny":88,"refTime":"2024-03-08T18:00:00:Z","depth":0,"parameterNumber":2,"parameterNumberName":"U-component_of_WINDS"},"data":[0.0,0.0,0.0,0.0,0.0,0.0,0.0,0.0,0.0,0.0,0.0,0.0,0.0,0.0,0.0,0.0,0.0,0.0,0.0,0.0,0.0,0.0,0.0,0.0,0.0,0.0,0.0,0.0,0.0,0.0,0.0,0.0,0.0,0.0,0.0,0.0,0.0,0.0,0.0,0.0,0.0,0.0,0.0,0.0,0.0,0.0,0.0,0.0,0.0,0.0,0.0,0.0,0.0,0.0,0.0,0.0,0.0,0.0,0.0,0.0,0.0,0.0,0.0,0.0,0.0,0.0,0.0,0.0,0.0,0.0,0.0,0.0,0.0,0.0,0.0,0.0,0.0,0.0,0.0,0.0,0.0,0.0,0.0,0.0,0.0,0.0,0.0,0.0,0.0,0.0,0.0,0.0,0.0,0.0,0.0,0.0,0.0,0.0,0.0,0.0,0.0,0.0,0.0,0.0,0.0,0.0,0.0,0.0,0.0,0.0,0.0,0.0,0.0,0.0,0.0,0.0,0.0,0.0,0.0,0.0,0.0,0.0,0.0,0.0,0.0,0.0,0.0,0.0,0.0,0.0,0.0,0.0,0.0,0.0,0.0,0.0,0.0,0.0,0.0,0.0,0.0,0.0,0.0,0.0,0.0,0.0,0.0,0.0,0.0,0.0,0.0,0.0,0.0,0.0,0.0,0.0,0.0,0.0,0.0,0.0,0.0,0.0,0.0,0.0,0.0,0.0,0.0,0.0,0.0,0.0,0.0,0.0,0.0,0.0,0.0,0.0,0.0,0.0,0.0,0.0,0.0,0.0,0.0,0.0,0.0,0.0,0.0,0.0,0.0,0.0,0.0,0.0,0.0,0.0,0.0,0.0,0.0,0.0,0.0,0.0,0.0,0.0,0.0,0.0,0.0,0.0,0.0,0.0,0.0,0.0,0.0,0.0,0.0,0.0,0.0,0.0,0.0,0.0,0.0,0.0,0.0,0.0,0.0,0.0,0.0,0.0,0.0,0.0,0.0,0.0,0.0,0.0,0.0,0.0,0.0,0.0,0.0,0.0,0.0,0.0,0.0,0.0,0.0,0.0,0.0,0.0,0.0,0.0,0.0,0.0,0.0,0.0,0.0,0.0,0.0,0.0,0.0,0.0,0.0,0.0,0.0,0.0,0.0,0.0,0.0,0.0,0.0,0.0,0.0,0.0,0.0,0.0,0.0,0.0,0.0,0.0,0.0,0.0,0.0,0.0,0.0,0.0,0.0,0.0,0.0,0.0,0.0,0.0,0.0,0.0,0.0,0.0,0.0,0.0,0.0,0.0,0.0,0.0,0.0,0.0,0.0,0.0,0.0,0.0,0.0,0.0,0.0,0.0,0.0,0.0,0.0,0.0,0.0,0.0,0.0,0.0,0.0,0.0,0.0,0.0,0.0,0.0,0.0,0.0,0.0,0.0,0.0,0.0,0.0,0.0,0.0,0.0,0.0,0.0,0.0,0.0,0.0,0.0,0.0,0.0,0.0,0.0,0.0,0.0,0.0,0.0,0.0,0.0,0.0,0.0,0.0,0.0,0.0,0.0,0.0,0.0,0.0,0.0,0.0,0.0,0.0,0.0,0.0,0.0,0.0,0.0,0.0,0.0,0.0,0.0,0.0,0.0,0.0,0.0,0.0,0.0,0.0,0.0,0.0,0.0,0.0,0.0,0.0,0.0,0.0,0.0,0.0,0.0,0.0,0.0,0.0,0.0,0.0,0.0,0.0,0.0,0.0,0.0,0.0,0.0,0.0,0.0,0.0,0.0,0.0,0.0,0.0,0.0,0.0,0.0,0.0,0.0,0.0,0.0,0.0,0.0,0.0,0.0,0.0,0.0,0.0,0.0,0.0,0.0,0.0,0.0,0.0,0.0,0.0,0.0,0.0,0.0,0.0,0.0,0.0,0.0,0.0,0.0,0.0,0.0,0.0,0.0,0.0,0.0,0.0,0.0,0.0,0.0,0.0,0.0,0.0,0.0,0.0,0.0,0.0,0.0,0.0,0.0,0.0,0.0,0.0,0.0,0.0,0.0,0.0,0.0,0.0,0.0,0.0,0.0,0.0,0.0,0.0,0.0,0.0,0.0,0.0,0.0,0.0,0.0,0.0,0.0,0.0,0.0,0.0,0.0,0.0,0.0,0.0,0.0,0.0,0.0,0.0,0.0,0.0,0.0,0.0,0.0,0.0,0.0,0.0,0.0,0.0,0.0,0.0,0.0,0.0,0.0,0.0,0.0,0.0,0.0,0.0,0.0,0.0,0.0,0.0,0.0,0.0,0.0,0.0,0.0,0.0,0.0,0.0,0.0,0.0,0.0,0.0,0.0,0.0,0.0,0.0,0.0,0.0,0.0,0.0,0.0,0.0,0.0,0.0,0.0,0.0,0.0,0.0,0.0,0.0,0.0,0.0,0.0,0.0,0.0,0.0,0.0,0.0,0.0,0.0,0.0,0.0,0.0,0.0,0.0,0.0,0.0,0.0,0.0,0.0,0.0,0.0,0.0,0.0,0.0,0.0,0.0,0.0,0.0,0.0,0.0,0.0,0.0,0.0,0.0,0.0,0.0,0.0,0.0,0.0,0.0,0.0,0.0,0.0,0.0,0.0,0.0,0.0,0.0,0.0,0.0,0.0,0.0,0.0,0.0,0.0,0.0,0.0,0.0,0.0,0.0,0.0,0.0,0.0,0.0,0.0,0.0,0.0,0.0,0.0,0.0,0.0,0.0,0.0,0.0,0.0,0.0,0.0,0.0,0.0,0.0,0.0,0.0,0.0,0.0,0.0,0.0,0.0,0.0,0.0,0.0,0.0,0.0,0.0,0.0,0.0,0.0,0.0,0.0,0.0,0.0,0.0,0.0,0.0,0.0,0.0,0.0,0.0,0.0,0.0,0.0,0.0,0.0,0.0,0.0,0.0,0.0,0.0,0.0,0.0,0.0,0.0,0.0,0.0,0.0,0.0,0.0,0.0,0.0,0.0,0.0,0.0,0.0,0.0,0.0,0.0,0.0,0.0,0.0,0.0,0.0,0.0,0.0,0.0,0.0,0.0,0.0,0.0,0.0,0.0,0.0,0.0,0.0,0.0,0.0,0.0,0.0,0.0,0.0,0.0,0.0,0.0,0.0,0.0,0.0,0.0,0.0,0.0,0.0,0.0,0.0,0.0,0.0,0.0,0.0,0.0,0.0,0.0,0.0,0.0,0.0,0.0,0.0,0.0,0.0,0.0,0.0,0.0,0.0,0.0,0.0,0.0,0.0,0.0,0.0,0.0,0.0,0.0,0.0,0.0,0.0,0.0,0.0,0.0,0.0,0.0,0.0,0.0,0.0,0.0,0.0,0.0,0.0,0.0,0.0,0.0,0.0,0.0,0.0,0.0,0.0,0.0,0.0,0.0,0.0,0.0,0.0,0.0,0.0,0.0,0.0,0.0,0.0,0.0,0.0,0.0,0.0,0.0,0.0,0.0,0.0,0.0,0.0,0.0,0.0,0.0,0.0,0.0,0.0,0.0,0.0,0.0,0.0,0.0,0.0,0.0,0.0,0.0,0.0,0.0,0.0,0.0,0.0,0.0,0.0,0.0,0.0,0.0,0.0,0.0,0.0,0.0,0.0,0.0,0.0,0.0,0.0,0.0,0.0,0.0,0.0,0.0,0.0,0.0,0.0,0.0,0.0,0.0,0.0,0.0,0.0,0.0,0.0,0.0,0.0,0.0,0.0,0.0,0.0,0.0,0.0,0.0,0.0,0.0,0.0,0.0,0.0,0.0,0.0,0.0,0.0,0.0,0.0,0.0,0.0,0.0,0.0,0.0,0.0,0.0,0.0,0.0,0.0,0.0,0.0,0.0,0.0,0.0,0.0,0.0,0.0,0.0,0.0,0.0,0.0,0.0,0.0,0.0,0.0,0.0,0.0,0.0,0.0,0.0,0.0,0.0,0.0,0.0,0.0,0.0,0.0,0.0,0.0,0.0,0.0,0.0,0.0,0.0,0.0,0.0,0.0,0.0,0.0,0.0,0.0,0.0,0.0,0.0,0.0,0.0,0.0,0.0,0.0,0.0,0.0,0.0,0.0,0.0,0.0,0.0,0.0,0.0,0.0,0.0,0.0,0.0,0.0,0.0,0.0,0.0,0.0,0.0,0.0,0.0,0.0,0.0,0.0,0.0,0.0,0.0,0.0,0.0,0.0,0.0,0.0,0.0,0.0,0.0,0.0,0.0,0.0,0.0,0.0,0.0,0.0,0.0,0.0,0.0,0.0,0.4298,0.0,0.0,0.0,0.0,0.0,0.0,0.0,0.0,0.0,0.0,0.0,0.0,0.0,0.0,0.0,0.0,0.0,0.0,0.0,0.0,0.0,0.0,0.0,0.0,0.0,0.0,0.0,0.0,0.0,0.0,0.0,0.0,0.0,0.0,0.0,0.0,0.0,0.0,0.0,0.0,0.0,0.0,0.0,0.0,0.0,0.0,0.0,0.0,0.0,0.0,0.0,0.0,0.0,0.0,0.0,0.0,0.0,0.0,0.0,0.0,0.0,0.0,0.0,0.0,0.0,0.0,0.0,0.0,0.0,0.0,0.0,0.0,0.0,0.0,0.0,0.0,0.0,0.0,0.0,0.0,0.0,0.0,0.0,0.0,0.0,0.0,0.0,0.0,0.0,0.0,0.0,0.0,0.0,0.0,0.0,0.0,0.0,0.0,0.0,0.0,0.0,0.0,0.0,0.0,0.0,0.0,0.0,0.0,0.0,0.0,0.5604,0.5405,0.5599,0.5383,0.4705,0.0,0.0,0.0,0.0,0.0,0.0,0.0,0.0,0.0,0.0,0.0,0.0,0.0,0.0,0.0,0.0,0.0,0.0,0.0,0.0,0.0,0.0,0.0,0.0,0.0,0.0,0.0,0.0,0.0,0.0,0.0,0.0,0.0,0.0,0.0,0.0,0.0,0.0,0.0,0.0,0.0,0.0,0.0,0.0,0.0,0.0,0.0,0.0,0.0,0.0,0.0,0.0,0.0,0.0,0.0,0.0,0.0,0.0,0.0,0.0,0.0,0.0,0.0,0.0,0.0,0.0,0.0,0.0,0.0,0.0,0.0,0.0,0.0,0.0,0.0,0.0,0.0,0.0,0.0,0.0,0.0,0.0,0.0,0.0,0.0,0.0,0.0,0.0,0.0,0.0,0.0,0.0,0.0,0.0,0.0,0.0,0.0,0.0,0.0,0.0,0.0,0.0,0.0,0.0,0.0,0.0,0.0,0.0,0.0,0.0,0.0,0.0,0.6447,0.6106,0.5285,0.0,0.0,0.0,0.0,0.0,0.0,0.0,0.0,0.0,0.0,0.0,0.0,0.0,0.0,0.0,0.0,0.0,0.0,0.0,0.0,0.0,0.0,0.0,0.0,0.0,0.0,0.0,0.0,0.0,0.0,0.0,0.0,0.0,0.0,0.0,0.0,0.0,0.0,0.0,0.0,0.0,0.0,0.0,0.0,0.0,0.0,0.0,0.0,0.0,0.0,0.0,0.0,0.0,0.0,0.0,0.0,0.0,0.0,0.0,0.0,0.0,0.0,0.0,0.0,0.0,0.0,0.0,0.0,0.0,0.0,0.0,0.0,0.0,0.0,0.0,0.0,0.0,0.0,0.0,0.0,0.0,0.0,0.0,0.0,0.0,0.0,0.0,0.0,0.0,0.0,0.0,0.0,0.0,0.0,0.0,0.0,0.0,0.0,0.0,0.0,0.0,0.0,0.0,0.0,0.0,0.0,0.0,0.0,0.0,0.0,0.6913,0.6503,0.6883,0.0,0.6033,0.0,0.0,0.0,0.0,0.0,0.0,0.0,0.0,0.0,0.0,0.0,0.0,0.0,0.0,0.0,0.0,0.0,0.0,0.0,0.0,0.0,0.0,0.0,0.0,0.0,0.0,0.0,0.0,0.0,0.0,0.0,0.0,0.0,0.0,0.0,0.0,0.0,0.0,0.0,0.0,0.0,0.0,0.0,0.0,0.0,0.0,0.0,0.0,0.0,0.0,0.0,0.0,0.0,0.0,0.0,0.0,0.0,0.0,0.0,0.0,0.0,0.0,0.0,0.0,0.0,0.0,0.0,0.0,0.0,0.0,0.0,0.0,0.0,0.0,0.0,0.0,0.0,0.0,0.0,0.0,0.0,0.0,0.0,0.0,0.0,0.0,0.0,0.0,0.0,0.0,0.0,0.0,0.0,0.0,0.0,0.0,0.0,0.0,0.0,0.0,0.0,0.0,0.0,0.0,0.0,0.0,0.0,0.0,0.0,0.0,0.7523,0.7338,0.7248,0.7068,0.0,0.0,0.0,0.0,0.0,0.0,0.0,0.0,0.0,0.0,0.0,0.0,0.0,0.0,0.0,0.0,0.0,0.0,0.0,0.0,0.0,0.0,0.0,0.0,0.0,0.0,0.0,0.0,0.0,0.0,0.0,0.0,0.0,0.0,0.0,0.0,0.0,0.0,0.0,0.0,0.0,0.0,0.0,0.0,0.0,0.0,0.0,0.0,0.0,0.0,0.0,0.0,0.0,0.0,0.0,0.0,0.0,0.0,0.0,0.0,0.0,0.0,0.0,0.0,0.0,0.0,0.0,0.0,0.0,0.0,0.0,0.0,0.0,0.0,0.0,0.0,0.0,0.0,0.0,0.0,0.0,0.0,0.0,0.0,0.0,0.0,0.0,0.0,0.0,0.0,0.0,0.0,0.0,0.0,0.0,0.0,0.0,0.0,0.0,0.0,0.0,0.0,0.0,0.0,0.0,0.0,0.0,0.0,0.0,0.0,0.814,0.8152,0.8133,0.7743,0.7535,0.7535,0.0,0.0,0.0,0.0,0.0,0.0,0.0,0.0,0.0,0.0,0.0,0.0,0.0,0.0,0.0,0.0,0.0,0.0,0.0,0.0,0.0,0.0,0.0,0.0,0.0,0.0,0.0,0.0,0.0,0.0,0.0,0.0,0.0,0.0,0.0,0.0,0.0,0.0,0.0,0.0,0.0,0.0,0.0,0.0,0.0,0.0,0.0,0.0,0.0,0.0,0.0,0.0,0.0,0.0,0.0,0.0,0.0,0.0,0.0,0.0,0.0,0.0,0.0,0.0,0.0,0.0,0.0,0.0,0.0,0.0,0.0,0.0,0.0,0.0,0.0,0.0,0.0,0.0,0.0,0.0,0.0,0.0,0.0,0.0,0.0,0.0,0.0,0.0,0.0,0.0,0.0,0.0,0.0,0.0,0.0,0.0,0.0,0.0,0.0,0.0,0.0,0.0,0.0,0.0,0.0,0.0,0.0,0.0,0.8744,0.8744,0.8751,0.8744,0.8491,0.8344,0.0,0.0,0.0,0.0,0.0,0.0,0.0,0.0,0.0,0.0,0.0,0.0,0.0,0.0,0.0,0.0,0.0,0.0,0.0,0.0,0.0,0.0,0.0,0.0,0.0,0.0,0.0,0.0,0.0,0.0,0.0,0.0,0.0,0.0,0.0,0.0,0.0,0.0,0.0,0.0,0.0,0.0,0.0,0.0,0.0,0.0,0.0,0.0,0.0,0.0,0.0,0.0,0.0,0.0,0.0,0.0,0.0,0.0,0.0,0.0,0.0,0.0,0.0,0.0,0.0,0.0,0.0,0.0,0.0,0.0,0.0,0.0,0.0,0.0,0.0,0.0,0.0,0.0,0.0,0.0,0.0,0.0,0.0,0.0,0.0,0.0,0.0,0.0,0.0,0.0,0.0,0.0,0.0,0.0,0.0,0.0,0.0,0.0,0.0,0.0,0.0,0.0,0.0,0.0,0.0,0.0,0.0,0.0,0.0,0.8791,0.8791,0.8791,0.8784,0.8704,0.8657,0.0,0.0,0.0,0.0,0.0,0.0,0.0,0.0,0.0,0.0,0.0,0.0,0.0,0.0,0.0,0.0,0.0,0.0,0.0,0.0,0.0,0.0,0.0,0.0,0.0,0.0,0.0,0.0,0.0,0.0,0.0,0.0,0.0,0.0,0.0,0.0,0.0,0.0,0.0,0.0,0.0,0.0,0.0,0.0,0.0,0.0,0.0,0.0,0.0,0.0,0.0,0.0,0.0,0.0,0.0,0.0,0.0,0.0,0.0,0.0,0.0,0.0,0.0,0.0,0.0,0.0,0.0,0.0,0.0,0.0,0.0,0.0,0.0,0.0,0.0,0.0,0.0,0.0,0.0,0.0,0.0,0.0,0.0,0.0,0.0,0.0,0.0,0.0,0.0,0.0,0.0,0.0,0.0,0.0,0.0,0.0,0.0,0.0,0.0,0.0,0.0,0.0,0.0,0.0,0.0,0.0,0.0,0.0,0.0,0.8791,0.0,0.8791,0.8791,0.8791,0.8791,0.0,0.0,0.0,0.0,0.0,0.0,0.0,0.0,0.0,0.0,0.0,0.0,0.0,0.0,0.0,0.0,0.0,0.0,0.0,0.0,0.0,0.0,0.0,0.0,0.0,0.0,0.0,0.0,0.0,0.0,0.0,0.0,0.0,0.0,0.0,0.0,0.0,0.0,0.0,0.0,0.0,0.0,0.0,0.0,0.0,0.0,0.0,0.0,0.0,0.0,0.0,0.0,0.0,0.0,0.0,0.0,0.0,0.0,0.0,0.0,0.0,0.0,0.0,0.0,0.0,0.0,0.0,0.0,0.0,0.0,0.0,0.0,0.0,0.0,0.0,0.0,0.0,0.0,0.0,0.0,0.0,0.0,0.0,0.0,0.0,0.0,0.0,0.0,0.0,0.0,0.0,0.0,0.0,0.0,0.0,0.0,0.0,0.0,0.0,0.0,0.0,0.0,0.0,0.0,0.0,0.0,0.0,0.0,0.8824,0.8791,0.8791,0.8791,0.8791,0.8791,0.8791,0.0,0.0,0.0,0.0,0.0,0.0,0.0,0.0,0.0,0.0,0.0,0.0,0.0,0.0,0.0,0.0,0.0,0.0,0.0,0.0,0.0,0.0,0.0,0.0,0.0,0.0,0.0,0.0,0.0,0.0,0.0,0.0,0.0,0.0,0.0,0.0,0.0,0.0,0.0,0.0,0.0,0.0,0.0,0.0,0.0,0.0,0.0,0.0,0.0,0.0,0.0,0.0,0.0,0.0,0.0,0.0,0.0,0.0,0.0,0.0,0.0,0.0,0.0,0.0,0.0,0.0,0.0,0.0,0.0,0.0,0.0,0.0,0.0,0.0,0.0,0.0,0.0,0.0,0.0,0.0,0.0,0.0,0.0,0.0,0.0,0.0,0.0,0.0,0.0,0.0,0.0,0.0,0.0,0.0,0.0,0.0,0.0,0.0,0.0,0.0,0.0,0.0,0.0,0.0,0.0,0.0,0.0,0.0,0.0,0.8811,0.8791,0.8791,0.8791,0.8791,0.8791,0.0,0.0,0.0,0.0,0.0,0.0,0.0,0.0,0.0,0.0,0.0,0.0,0.0,0.0,0.0,0.0,0.0,0.0,0.0,0.0,0.0,0.0,0.0,0.0,0.0,0.0,0.0,0.0,0.0,0.0,0.0,0.0,0.0,0.0,0.0,0.0,0.0,0.0,0.0,0.0,0.0,0.0,0.0,0.0,0.0,0.0,0.0,0.0,0.0,0.0,0.0,0.0,0.0,0.0,0.0,0.0,0.0,0.0,0.0,0.0,0.0,0.0,0.0,0.0,0.0,0.0,0.0,0.0,0.0,0.0,0.0,0.0,0.0,0.0,0.0,0.0,0.0,0.0,0.0,0.0,0.0,0.0,0.0,0.0,0.0,0.0,0.0,0.0,0.0,0.0,0.0,0.0,0.0,0.0,0.0,0.0,0.0,0.0,0.0,0.0,0.0,0.0,0.0,0.0,0.0,0.0,0.0,0.0,0.0,0.9852,0.9858,0.9737,0.9527,0.9388,0.9199,0.8951,0.0,0.0,0.0,0.0,0.0,0.0,0.0,0.0,0.0,0.0,0.0,0.0,0.0,0.0,0.0,0.0,0.0,0.0,0.0,0.0,0.0,0.0,0.0,0.0,0.0,0.0,0.0,0.0,0.0,0.0,0.0,0.0,0.0,0.0,0.0,0.0,0.0,0.0,0.0,0.0,0.0,0.0,0.0,0.0,0.0,0.0,0.0,0.0,0.0,0.0,0.0,0.0,0.0,0.0,0.0,0.0,0.0,0.0,0.0,0.0,0.0,0.0,0.0,0.0,0.0,0.0,0.0,0.0,0.0,0.0,0.0,0.0,0.0,0.0,0.0,0.0,0.0,0.0,0.0,0.0,0.0,0.0,0.0,0.0,0.0,0.0,0.0,0.0,0.0,0.0,0.0,0.0,0.0,0.0,0.0,0.0,0.0,0.0,0.0,0.0,0.0,0.0,0.0,0.0,0.0,0.0,0.0,0.0,1.1728,1.1718,1.139,1.075,1.0396,0.9941,0.0,0.0,0.0,0.0,0.0,0.0,0.0,0.0,0.0,0.0,0.0,0.0,0.0,0.0,0.0,0.0,0.0,0.0,0.0,0.0,0.0,0.0,0.0,0.0,0.0,0.0,0.0,0.0,0.0,0.0,0.0,0.0,0.0,0.0,0.0,0.0,0.0,0.0,0.0,0.0,0.0,0.0,0.0,0.0,0.0,0.0,0.0,0.0,0.0,0.0,0.0,0.0,0.0,0.0,0.0,0.0,0.0,0.0,0.0,0.0,0.0,0.0,0.0,0.0,0.0,0.0,0.0,0.0,0.0,0.0,0.0,0.0,0.0,0.0,0.0,0.0,0.0,0.0,0.0,0.0,0.0,0.0,0.0,0.0,0.0,0.0,0.0,0.0,0.0,0.0,0.0,0.0,0.0,0.0,0.0,0.0,0.0,0.0,0.0,0.0,0.0,0.0,0.0,0.0,0.0,0.0,0.0,0.0,0.0,1.3388,1.3154,1.2478,1.141,1.0853,1.0477,0.0,0.0,0.0,0.0,0.0,0.0,0.0,0.0,0.0,0.0,0.0,0.0,0.0,0.0,0.0,0.0,0.0,0.0,0.0,0.0,0.0,0.0,0.0,0.0,0.0,0.0,0.0,0.0,0.0,0.0,0.0,0.0,0.0,0.0,0.0,0.0,0.0,0.0,0.0,0.0,0.0,0.0,0.0,0.0,0.0,0.0,0.0,0.0,0.0,0.0,0.0,0.0,0.0,0.0,0.0,0.0,0.0,0.0,0.0,0.0,0.0,0.0,0.0,0.0,0.0,0.0,0.0,0.0,0.0,0.0,0.0,0.0,0.0,0.0,0.0,0.0,0.0,0.0,0.0,0.0,0.0,0.0,0.0,0.0,0.0,0.0,0.0,0.0,0.0,0.0,0.0,0.0,0.0,0.0,0.0,0.0,0.0,0.0,0.0,0.0,0.0,0.0,0.0,0.0,0.0,0.0,0.0,0.0,1.3603,1.4243,1.4041,1.3558,1.2817,1.1646,1.085,0.0,0.0,0.0,0.0,0.0,0.0,0.0,0.0,0.0,0.0,0.0,0.0,0.0,0.0,0.0,0.0,0.0,0.0,0.0,0.0,0.0,0.0,0.0,0.0,0.0,0.0,0.0,0.0,0.0,0.0,0.0,0.0,0.0,0.0,0.0,0.0,0.0,0.0,0.0,0.0,0.0,0.0,0.0,0.0,0.0,0.0,0.0,0.0,0.0,0.0,0.0,0.0,0.0,0.0,0.0,0.0,0.0,0.0,0.0,0.0,0.0,0.0,0.0,0.0,0.0,0.0,0.0,0.0,0.0,0.0,0.0,0.0,0.0,0.0,0.0,0.0,0.0,0.0,0.0,0.0,0.0,0.0,0.0,0.0,0.0,0.0,0.0,0.0,0.0,0.0,0.0,0.0,0.0,0.0,0.0,0.0,0.0,0.0,0.0,0.0,0.0,0.0,0.0,0.0,0.0,0.0,0.0,0.0,1.3922,1.4549,1.445,1.4387,1.4327,1.2574,1.1229,0.0,0.0,0.0,0.0,0.0,0.0,0.0,0.0,0.0,0.0,0.0,0.0,0.0,0.0,0.0,0.0,0.0,0.0,0.0,0.0,0.0,0.0,0.0,0.0,0.0,0.0,0.0,0.0,0.0,0.0,0.0,0.0,0.0,0.0,0.0,0.0,0.0,0.0,0.0,0.0,0.0,0.0,0.0,0.0,0.0,0.0,0.0,0.0,0.0,0.0,0.0,0.0,0.0,0.0,0.0,0.0,0.0,0.0,0.0,0.0,0.0,0.0,0.0,0.0,0.0,0.0,0.0,0.0,0.0,0.0,0.0,0.0,0.0,0.0,0.0,0.0,0.0,0.0,0.0,0.0,0.0,0.0,0.0,0.0,0.0,0.0,0.0,0.0,0.0,0.0,0.0,0.0,0.0,0.0,0.0,0.0,0.0,0.0,0.0,0.0,0.0,0.0,0.0,0.0,0.0,0.0,0.0,0.0,1.4517,1.4949,1.4145,1.3715,1.3707,1.2795,1.2189,0.0,0.0,0.0,0.0,0.0,0.0,0.0,0.0,0.0,0.0,0.0,0.0,0.0,0.0,0.0,0.0,0.0,0.0,0.0,0.0,0.0,0.0,0.0,0.0,0.0,0.0,0.0,0.0,0.0,0.0,0.0,0.0,0.0,0.0,0.0,0.0,0.0,0.0,0.0,0.0,0.0,0.0,0.0,0.0,0.0,0.0,0.0,0.0,0.8611,0.0,0.0,0.0,0.0,0.0,0.0,0.0,0.0,0.0,0.0,0.0,0.0,0.0,0.0,0.0,0.0,0.0,0.0,0.0,0.0,0.0,0.0,0.0,0.0,0.0,0.0,0.0,0.0,0.0,0.0,0.0,0.0,0.0,0.0,0.0,0.0,0.0,0.0,0.0,0.0,0.0,0.0,0.0,0.0,0.0,0.0,0.0,0.0,0.0,0.0,0.0,0.0,0.0,0.0,0.0,0.0,0.0,0.0,0.0,1.4601,1.4793,1.4261,1.398,1.395,1.3321,1.2665,0.0,0.0,0.0,0.0,0.0,0.0,0.0,0.0,0.0,0.0,0.0,0.0,0.0,0.0,0.0,0.0,0.0,0.0,0.0,0.0,0.0,0.0,0.0,0.0,0.0,0.0,0.0,0.0,0.0,0.0,0.0,0.0,0.0,0.0,0.0,0.0,0.0,0.0,0.0,0.0,0.0,0.0,0.0,0.0,0.0,0.0,0.0,0.0,0.0,0.0,0.0,0.0,0.0,0.0,0.0,0.0,0.0,0.0,0.0,0.0,0.0,0.0,0.0,0.0,0.0,0.0,0.0,0.0,0.0,0.0,0.0,0.0,0.0,0.0,0.0,0.0,0.0,0.0,0.0,0.0,0.0,0.0,0.0,0.0,0.0,0.0,0.0,0.0,0.0,0.0,0.0,0.0,0.0,0.0,0.0,0.0,0.0,0.0,0.0,0.0,0.0,0.0,0.0,0.0,0.0,0.0,0.0,1.45,1.45,1.45,1.45,1.45,1.4485,1.3941,1.3078,1.1872,0.0,0.0,0.0,0.0,0.0,0.0,0.0,0.0,0.0,0.0,0.0,0.0,0.0,0.0,0.0,0.0,0.0,0.0,0.0,0.0,0.0,0.0,0.0,0.0,0.0,0.0,0.0,0.0,0.0,0.0,0.0,0.0,0.0,0.0,0.0,0.0,0.0,0.0,0.8215,0.8297,0.0,0.0,0.0,0.0,0.0,0.0,0.0,0.0,0.936,0.0,0.0,0.0,0.0,0.0,0.0,0.0,0.0,0.0,0.0,0.0,0.0,0.0,0.0,0.0,0.0,0.0,0.0,0.0,0.0,0.0,0.0,0.0,0.0,0.0,0.0,0.0,0.0,0.0,0.0,0.0,0.0,0.0,0.0,0.0,0.0,0.0,0.0,0.0,0.0,0.0,0.0,0.0,0.0,0.0,0.0,0.0,0.0,0.0,0.0,0.0,0.0,0.0,0.0,0.0,0.0,1.45,1.45,1.45,1.45,1.45,1.45,1.45,1.4387,1.3965,1.3184,0.0,0.0,0.0,0.0,0.0,0.0,0.0,0.0,0.0,0.0,0.0,0.0,0.0,0.0,0.0,0.0,0.0,0.0,0.0,0.0,0.0,0.0,0.0,0.0,0.0,0.0,0.0,0.0,0.0,0.0,0.0,0.0,0.0,0.0,0.0,0.0,0.0,0.0,0.0,0.8441,0.8545,0.0,0.0,0.0,0.0,0.0,0.0,0.0,0.0,0.947,0.0,0.0,0.0,0.0,0.0,0.0,0.0,0.0,0.0,0.0,0.0,0.0,0.0,0.0,0.0,0.0,0.0,0.0,0.0,0.0,0.0,0.0,0.0,0.0,0.0,0.0,0.0,0.0,0.0,0.0,0.0,0.0,0.0,0.0,0.0,0.0,0.0,0.0,0.0,0.0,0.0,0.0,0.0,0.0,0.0,0.0,0.0,0.0,0.0,0.0,0.0,0.0,0.0,0.0,0.0,1.45,1.45,1.45,1.45,1.45,1.45,1.4509,1.4708,1.439,0.0,0.0,0.0,0.0,0.0,0.0,0.0,0.0,0.0,0.0,0.0,0.0,0.0,0.0,0.0,0.0,0.0,0.0,0.0,0.0,0.0,0.0,0.0,0.0,0.0,0.0,0.0,0.0,0.0,0.0,0.0,0.0,0.0,0.0,0.0,0.0,0.0,0.0,0.0,0.0,0.8749,0.8813,0.8716,0.0,0.0,0.0,0.0,0.0,0.0,0.9494,0.9494,0.0,0.0,0.0,0.0,0.0,0.0,0.0,0.0,0.0,0.0,0.0,0.0,0.0,0.0,0.0,0.0,0.0,0.0,0.0,0.0,0.0,0.0,0.0,0.0,0.0,0.0,0.0,0.0,0.0,0.0,0.0,0.0,0.0,0.0,0.0,0.0,0.0,0.0,0.0,0.0,0.0,0.0,0.0,0.0,0.0,0.0,0.0,0.0,0.0,0.0,0.0,0.0,0.0,0.0,0.0,1.45,1.4573,1.4588,1.45,1.45,1.45,1.4509,1.4818,1.4574,0.0,0.0,0.0,0.0,0.0,0.0,0.0,0.0,0.0,0.0,0.0,0.0,0.0,0.0,0.0,0.0,0.0,0.0,0.0,0.0,0.0,0.0,0.0,0.0,0.0,0.0,0.0,0.0,0.0,0.0,0.0,0.0,0.0,0.0,0.0,0.0,0.0,0.0,0.0,0.0,0.0,0.9214,0.9181,0.9458,0.0,0.0,0.0,0.0,0.9542,0.9548,0.0,0.0,0.0,0.0,0.0,0.0,0.0,0.0,0.0,0.0,0.0,0.0,0.0,0.0,0.0,0.0,0.0,0.0,0.0,0.0,0.0,0.0,0.0,0.0,0.0,0.0,0.0,0.0,0.0,0.0,0.0,0.0,0.0,0.0,0.0,0.0,0.0,0.0,0.0,0.0,0.0,0.0,0.0,0.0,0.0,0.0,0.0,0.0,0.0,0.0,0.0,0.0,0.0,0.0,0.0,0.0,1.4543,1.4839,1.4873,1.4519,1.45,1.45,1.45,1.4537,1.4522,0.0,0.0,0.0,0.0,0.0,0.0,0.0,0.0,0.0,0.0,0.0,0.0,0.0,0.0,0.0,0.0,0.0,0.0,0.0,0.0,0.0,0.0,0.0,0.0,0.0,0.0,0.0,0.0,0.0,0.0,0.0,0.0,0.0,0.0,0.0,0.0,0.0,0.0,0.0,0.0,0.0,0.9891,0.9432,0.9864,1.0039,0.0,0.0,0.9811,0.9542,0.9709,0.0,0.0,0.0,0.0,0.0,0.0,0.0,0.0,0.0,0.0,0.0,0.0,0.0,0.0,0.0,0.0,0.0,0.0,0.0,0.0,0.0,0.0,0.0,0.0,0.0,0.0,0.0,0.0,0.0,0.0,0.0,0.0,0.0,0.0,0.0,0.0,0.0,0.0,0.0,0.0,0.0,0.0,0.0,0.0,0.0,0.0,0.0,0.0,0.0,0.0,0.0,0.0,0.0,0.0,0.0,1.4665,1.4509,1.4665,1.468,1.4509,1.45,1.4402,1.4228,1.4614,1.4641,0.0,0.0,0.0,0.0,0.0,0.0,0.0,0.0,0.0,0.0,0.0,0.0,0.0,0.0,0.0,0.0,0.0,0.0,0.0,0.0,0.0,0.0,0.0,0.0,0.0,0.0,0.0,0.0,0.0,0.0,0.0,0.0,0.0,0.0,0.0,0.0,0.0,0.0,0.0,0.0,0.0,0.0,0.9505,0.9679,0.0,0.0,0.0,0.98,0.9542,0.0,0.0,0.0,0.0,0.0,0.0,0.0,0.0,0.0,0.0,0.0,0.0,0.0,0.0,0.0,0.0,0.0,0.0,0.0,0.0,0.0,0.0,0.0,0.0,0.0,0.0,0.0,0.0,0.0,0.0,0.0,0.0,0.0,0.0,0.0,0.0,0.0,0.0,0.0,0.0,0.0,0.0,0.0,0.0,0.0,0.0,0.0,0.0,0.0,0.0,0.0,0.0,0.0,0.0,0.0,0.0,0.0,1.45,1.4592,1.4607,1.45,1.45,1.4387,1.4148,1.465,0.0,0.0,0.0,0.0,0.0,0.0,0.0,0.0,0.0,0.0,0.0,0.0,0.0,0.0,0.0,0.0,0.0,0.0,0.0,0.0,0.0,0.0,0.0,0.0,0.0,0.0,0.0,0.9701,0.0,0.0,0.0,0.0,0.0,0.0,0.0,0.0,0.0,0.0,0.0,0.0,0.0,0.0,0.9784,0.9685,0.9689,0.9674,0.0,0.0,0.9817,0.9542,0.957,0.962,0.0,0.0,0.0,0.0,0.0,0.0,0.0,0.0,0.0,0.0,0.0,0.0,0.0,0.0,0.0,0.0,0.0,0.0,0.0,0.0,0.0,0.0,0.0,0.0,0.0,0.0,0.0,0.0,0.0,0.0,0.0,0.0,0.0,0.0,0.0,0.0,0.0,0.0,0.0,0.0,0.0,0.0,0.0,0.0,0.0,0.0,0.0,0.0,0.0,0.0,0.0,0.0,0.0,0.0,0.0,1.4528,1.4857,1.4857,1.4519,1.45,1.4485,1.448,1.4519,1.4367,0.0,0.0,0.0,0.0,0.0,0.0,0.0,0.0,0.0,0.0,0.0,0.0,0.0,0.0,0.0,0.0,0.0,0.0,0.0,0.0,0.0,0.0,0.0,0.0,0.0,0.0,0.0,0.0,0.0,0.0,0.0,0.0,0.0,0.0,0.0,0.0,0.0,0.0,0.0,0.0,0.0,1.0174,1.0159,1.0206,1.0154,0.0,0.0,0.9817,0.9558,0.9704,0.9961,1.0202,0.0,0.0,0.0,0.0,0.0,0.0,0.0,0.0,0.0,0.0,0.0,0.0,0.0,0.0,0.0,0.0,0.0,0.0,0.0,0.0,0.0,0.0,0.0,0.0,0.0,0.0,0.0,0.0,0.0,0.0,0.0,0.0,0.0,0.0,0.0,0.0,0.0,0.0,0.0,0.0,0.0,0.0,0.0,0.0,0.0,0.0,0.0,0.0,0.0,0.0,0.0,0.0,0.0,1.4662,1.45,1.4448,1.4357,1.4192,1.3995,1.3776,1.3567,1.381,1.389,0.0,0.0,0.0,0.0,0.0,0.0,0.0,0.0,0.0,0.0,0.0,0.0,0.0,0.0,0.0,0.0,0.0,0.0,0.0,0.0,0.0,0.0,0.0,0.0,0.0,0.0,0.0,0.0,1.0243,1.0243,1.0258,0.0,0.0,0.0,0.0,0.0,0.0,0.0,0.0,0.0,0.0,0.9966,0.9999,0.9886,0.0,0.0,0.965,0.9614,0.9512,0.9854,1.0184,1.028,1.0659,0.0,0.0,0.0,0.0,0.0,0.0,0.0,0.0,0.0,0.0,0.0,0.0,0.0,0.0,0.0,0.0,0.0,0.0,0.0,0.0,0.0,0.0,0.0,0.0,0.0,0.0,0.0,0.0,0.0,0.0,0.0,0.0,0.0,0.0,0.0,0.0,0.0,0.0,0.0,0.0,0.0,0.0,0.0,0.0,0.0,0.0,0.0,0.0,0.0,0.0,0.0,0.0,1.4461,1.4372,1.4124,1.395,1.3851,1.3616,1.3375,1.3172,1.3451,1.3618,0.0,0.0,0.0,0.0,0.0,0.0,0.0,0.0,0.0,0.0,0.0,0.0,0.0,0.0,0.0,0.0,0.0,0.0,0.0,0.0,0.0,0.0,0.0,0.0,0.0,0.0,0.0,0.0,1.0586,1.061,1.0627,0.0,0.0,0.0,0.0,0.0,0.0,0.0,0.0,0.0,0.0,0.999,1.0134,0.9968,0.9895,0.9956,1.004,1.0075,0.9997,1.0358,1.0653,1.0653,0.0,0.0,0.0,0.0,0.0,0.0,0.0,0.0,0.0,0.0,0.0,0.0,0.0,0.0,0.0,0.0,0.0,0.0,0.0,0.0,0.0,0.0,0.0,0.0,0.0,0.0,0.0,0.0,0.0,0.0,1.2762,0.0,0.0,0.0,0.0,0.0,0.0,0.0,0.0,0.0,0.0,0.0,0.0,0.0,0.0,0.0,0.0,0.0,0.0,0.0,0.0,0.0,0.0,1.4327,1.401,1.398,1.383,1.3526,1.3496,1.348,1.3459,1.3552,1.3586,1.3594,0.0,0.0,0.0,0.0,0.0,0.0,0.0,0.0,0.0,0.0,0.0,0.0,0.0,0.0,0.0,0.0,0.0,0.0,0.0,0.0,0.0,0.0,0.0,0.0,0.0,0.0,1.06,1.0615,1.064,0.0,0.0,0.0,0.0,0.0,0.0,0.0,0.0,0.0,0.0,1.0124,1.037,1.0641,1.0677,1.0731,1.1009,1.1242,1.1358,1.1063,1.1285,1.1484,0.0,0.0,0.0,0.0,0.0,0.0,0.0,0.0,0.0,0.0,0.0,0.0,0.0,0.0,0.0,0.0,0.0,0.0,0.0,0.0,0.0,0.0,0.0,0.0,0.0,0.0,0.0,1.1867,1.2037,0.0,0.0,0.0,0.0,0.0,0.0,0.0,0.0,0.0,0.0,0.0,1.4593,1.458,0.0,0.0,0.0,0.0,0.0,0.0,0.0,0.0,0.0,0.0,0.0,0.0,1.3776,1.3662,1.3444,1.3285,1.3179,1.2996,1.2904,1.2896,1.2934,1.3026,1.3252,0.0,0.0,0.0,0.0,0.0,0.0,0.0,0.0,0.0,0.0,0.0,0.0,0.0,0.0,0.0,0.0,0.0,0.0,0.0,0.0,0.0,0.0,0.0,0.0,0.0,1.0657,0.0,0.0,0.0,0.0,0.0,0.0,0.0,0.0,0.0,0.0,0.0,1.0502,1.0447,1.0364,1.0472,1.0906,1.0809,1.0779,0.0,0.0,0.0,0.0,0.0,0.0,0.0,0.0,0.0,0.0,0.0,0.0,0.0,0.0,1.1441,1.2159,1.2385,1.2448,1.2554,0.0,0.0,0.0,0.0,0.0,0.0,0.0,0.0,0.0,0.0,0.0,0.0,0.0,0.0,1.194,0.0,1.1885,0.0,0.0,0.0,0.0,0.0,0.0,0.0,0.0,1.4208,1.4384,1.4587,1.4587,1.4579,0.0,1.448,1.4462,0.0,0.0,0.0,0.0,0.0,0.0,0.0,0.0,1.3435,1.3322,1.3103,1.295,1.2858,1.2683,1.2606,1.2614,1.271,1.2869,1.3084,1.3221,1.31,0.0,0.0,0.0,0.0,0.0,0.0,0.0,0.0,0.0,0.0,0.0,0.0,0.0,0.0,0.0,0.0,0.0,0.0,0.0,0.0,0.0,0.0,0.0,1.0853,0.0,0.0,0.0,0.0,0.0,0.0,0.0,0.0,0.0,1.0695,1.0668,1.0682,1.0689,1.0701,1.0852,1.1189,0.0,0.0,0.0,0.0,0.0,0.0,0.0,1.2286,1.2189,1.2324,1.2442,1.2548,1.2288,1.2183,1.2629,0.0,0.0,1.2415,1.2506,1.2572,1.2572,1.2274,1.2106,1.2268,1.1884,1.1558,0.0,0.0,0.0,0.0,0.0,0.0,0.0,0.0,1.1915,1.2259,0.0,1.2201,0.0,0.0,0.0,0.0,0.0,1.4204,0.0,0.0,1.4425,1.4589,1.4589,1.4589,1.4597,1.4581,1.4283,1.4297,1.4582,1.4589,0.0,0.0,0.0,0.0,0.0,0.0,1.3333,1.3054,1.3023,1.2907,1.2654,1.263,1.2654,1.2646,1.2949,1.3132,1.3123,1.2937,1.2753,1.2719,1.2389,0.0,0.0,0.0,0.0,0.0,0.0,0.0,0.0,0.0,0.0,0.0,0.0,0.0,0.0,0.0,0.0,0.0,0.0,0.0,0.0,1.0958,0.0,0.0,0.0,0.0,0.0,0.0,0.0,0.0,0.0,0.0,1.0767,1.1101,1.123,1.0803,0.0,0.0,0.0,0.0,1.2286,1.2312,1.2744,1.2979,1.2741,1.2912,1.3003,1.275,0.0,0.0,1.2277,1.2319,1.2545,1.3295,1.334,1.3121,1.2089,1.217,1.2314,1.2293,1.2278,1.2147,1.1723,1.1351,1.0852,1.3515,0.0,0.0,0.0,0.0,1.3847,1.3747,1.3458,1.3695,1.3891,1.4032,1.3873,0.0,0.0,0.0,0.0,0.0,0.0,1.3906,1.4439,1.4314,1.4359,1.4579,1.4587,1.4587,1.4579,1.4502,1.4508,1.4588,1.458,1.4545,1.4421,0.0,0.0,0.0,0.0,1.3526,1.3429,1.3437,1.338,1.3307,1.3307,1.3307,1.3307,1.3402,1.3577,1.379,1.3739,1.3502,1.3088,1.2644,0.0,0.0,0.0,0.0,0.0,0.0,0.0,0.0,0.0,0.0,0.0,0.0,0.0,0.0,0.0,0.0,0.0,0.0,0.0,1.1201,1.1355,1.1462,0.0,0.0,0.0,0.0,0.0,0.0,0.0,0.0,0.0,1.1267,1.1227,1.1289,0.0,0.0,1.1713,1.2288,1.2316,1.2358,1.2545,1.2723,0.0,1.2967,1.3051,1.3141,1.3244,1.3135,1.2953,1.2615,1.2604,1.2539,1.2472,1.2432,1.2332,1.2098,1.2303,1.2443,1.2204,1.2093,1.2048,1.1898,1.175,1.1614,1.3494,1.4007,1.4408,1.4519,1.4374,1.4444,1.4309,1.4047,1.4252,1.4473,1.4666,1.4435,1.4602,1.5036,1.5046,0.0,0.0,0.0,1.4355,1.465,1.4696,1.4847,1.5046,1.5036,1.5036,1.5046,1.4901,1.4837,1.4837,1.4676,1.4583,1.4578,0.0,0.0,1.3894,1.3696,1.361,1.361,1.361,1.361,1.361,1.361,1.361,1.361,1.361,1.3696,1.3894,1.3796,1.3579,1.3212,1.2931,1.2529,0.0,0.0,0.0,0.0,0.0,0.0,0.0,0.0,0.0,0.0,0.0,1.1256,0.0,0.0,0.0,0.0,1.1149,1.1276,1.1386,1.1483,0.0,0.0,0.0,0.0,0.0,0.0,0.0,1.1432,1.1337,1.1358,1.1603,1.152,1.1533,1.1858,1.1858,1.199,1.2481,0.0,1.2671,1.2828,1.2958,1.3085,1.3226,1.3256,1.331,1.3467,1.3491,1.3351,1.2957,1.2853,1.2725,1.2413,1.2305,1.2258,1.2041,1.2234,1.2346,1.2058,1.1992,1.1923,1.1763,1.1722,1.1671,1.2566,1.3147,1.4133,1.4618,1.4671,1.4387,1.4119,1.3894,1.3894,1.4194,1.4676,1.4128,1.4526,1.5616,1.5616,0.0,1.4797,1.5424,1.5358,1.4797,1.5424,1.5693,1.5693,1.5685,1.5693,1.5685,1.5391,1.5239,1.5205,1.4869,1.4692,1.4676,1.4377,1.4045,1.3712,1.3688,1.3681,1.3688,1.3688,1.3697,1.3688,1.3664,1.3681,1.3696,1.3688,1.3672,1.368,1.3449,1.3284,1.3267,1.3249,1.3231,1.3189,0.0,0.0,0.0,0.0,0.0,0.0,0.0,0.0,0.0,0.0,0.0,0.0,0.0,0.0,0.0,1.0948,0.0,1.1403,1.1409,0.0,0.0,0.0,1.1416,1.1409,1.1241,1.1231,1.1489,0.0,0.0,1.19,1.1948,1.1972,1.1996,1.2189,1.2361,1.2403,1.2828,1.3129,1.3129,1.3357,1.3513,1.3515,1.3505,1.345,1.3416,1.3443,1.3291,1.3034,1.2962,1.2921,1.2622,1.2657,1.2506,1.2024,1.1921,1.1951,1.1947,1.1927,1.179,1.1412,1.133,1.1223,1.363,1.3786,1.4047,1.4062,1.3959,1.3882,1.3811,1.3764,1.3764,1.3822,1.3947,1.3803,1.4194,1.496,1.4933,1.5134,1.5481,1.5635,1.5616,1.5481,1.5616,1.5693,1.5693,1.5693,1.5693,1.5693,1.5613,1.5581,1.5574,1.5494,1.5446,1.5446,1.5359,1.498,1.4393,1.4351,1.4377,1.4351,1.4369,1.4369,1.4359,1.4369,1.4369,1.4377,1.4359,1.4377,1.4369,1.4289,1.4086,1.3666,1.3641,1.3443,1.3006,1.3359,0.0,0.0,0.0,0.0,0.0,0.0,0.0,0.0,0.0,1.151,1.1492,0.0,1.163,0.0,1.1144,1.123,1.1595,1.1477,0.0,0.0,1.1409,1.1421,1.1464,1.1431,1.1514,1.178,1.181,1.1906,1.2171,1.237,1.2575,1.278,1.2683,1.2738,1.3157,1.3304,1.34,1.34,1.3483,1.3563,1.3762,1.3638,1.3398,1.3023,1.2975,1.2805,1.2349,1.2263,1.2114,1.1673,1.1585,1.1512,1.1428,1.1389,1.1482,1.1575,1.1502,1.1356,1.124,1.124,1.124,1.3613,1.2871,1.3477,1.347,1.2976,1.3565,1.3941,1.4143,1.415,1.4275,1.4518,1.4885,1.5043,1.5098,1.5786,1.5929,1.5703,1.6346,1.6481,1.6216,1.6481,1.6631,1.6631,1.6631,1.6631,1.6623,1.648,1.6321,1.6142,1.6011,1.5844,1.5693,1.5693,1.5483,1.5099,1.5083,1.511,1.5102,1.5083,1.5012,1.4877,1.4887,1.479,1.4605,1.4587,1.4587,1.4587,1.4382,1.422,1.414,1.3923,1.3651,1.3331,1.3615,1.3269,0.0,0.0,0.0,0.0,0.0,0.0,0.0,0.0,0.0,0.0,0.0,1.1619,1.1388,1.0997,1.0918,1.1345,1.1193,1.1181,1.1426,1.145,1.1497,1.1659,1.1689,1.1786,1.2045,1.2075,1.224,1.2599,1.2774,1.2973,1.3238,1.3244,1.3302,1.3455,1.361,1.3688,1.3665,1.3785,1.3906,1.4063,1.3823,1.3552,1.3313,1.313,1.2902,1.2374,1.2249,1.2099,1.1598,1.1472,1.1472,1.1472,1.1472,1.152,1.159,1.1557,1.1477,1.1472,1.1443,1.152,1.2945,1.1498,1.2766,1.2789,1.2081,1.3222,1.3963,1.4337,1.436,1.4686,1.528,1.5851,1.5895,1.5644,1.6698,1.6661,1.5784,1.6815,1.7034,1.6566,1.7144,1.7392,1.7406,1.7589,1.7662,1.7646,1.7456,1.7183,1.6845,1.6555,1.6246,1.5979,1.5991,1.5963,1.5963,1.5983,1.5876,1.5693,1.5693,1.5558,1.5279,1.5263,1.5078,1.47,1.4676,1.4676,1.4676,1.4188,1.409,1.4498,1.4062,1.376,1.3688,1.3669,1.3197,0.0,1.1984,0.0,0.0,0.0,0.0,0.0,0.0,0.0,0.0,1.1317,1.131,1.1327,1.0788,1.0628,1.107,1.0967,1.1044,1.1477,1.1563,1.1645,1.1932,1.1954,1.2069,1.2379,1.2394,1.2599,1.3063,1.3171,1.3298,1.3515,1.3744,1.3839,1.3694,1.3821,1.396,1.3954,1.4106,1.4106,1.4026,1.3809,1.3552,1.3474,1.3221,1.3028,1.2515,1.2443,1.2345,1.1902,1.1789,1.1798,1.1817,1.1803,1.1791,1.182,1.182,1.1806,1.1773,1.1754,1.1827,1.2057,1.1738,1.2006,1.2006,1.1855,1.2107,1.2325,1.2489,1.2506,1.303,1.38,1.3166,1.399,1.5725,1.4501,1.4753,1.6087,1.5162,1.4865,1.5097,1.5238,1.5282,1.5349,1.6397,1.6903,1.694,1.7447,1.7665,1.7594,1.7552,1.7459,1.7403,1.7424,1.7395,1.7395,0.0,0.0,0.0,1.5693,1.5661,1.5605,1.5597,1.5438,1.5094,1.5078,0.0,1.5078,1.4683,1.4405,1.4346,1.3994,0.0,0.0,0.0,0.0,0.0,0.0,0.0,0.0,0.0,0.0,0.0,1.2061,1.2171,1.1185,1.0924,1.0991,1.1335,1.1327,1.1394,1.1686,1.1697,1.1719,1.1816,1.1828,1.193,1.2183,1.224,1.24,1.2882,1.2948,1.3063,1.3387,1.3622,1.3767,1.3833,1.4057,1.4189,1.4153,1.4177,1.422,1.422,1.406,1.3775,1.338,1.3087,1.2782,1.2305,1.214,1.2085,1.2017,1.1991,1.1982,1.1831,1.1817,1.1827,1.1827,1.1817,1.1867,1.2022,1.2055,1.1999,1.1829,1.1822,1.1843,1.273,0.0,1.238,1.2303,0.0,1.1817,1.1829,1.1912,1.2184,1.2713,1.3414,1.3307,1.3736,1.4557,1.4269,1.4493,1.5084,1.4692,1.4623,1.4847,1.4847,1.4841,1.4864,1.5528,1.613,1.6639,1.6832,1.7234,1.7804,1.7683,1.7684,1.7785,1.7785,1.7785,1.7785,1.7785,1.7363,1.6496,1.6313,1.6118,1.5963,1.5928,1.5769,1.5462,1.5465,0.0,0.0,0.0,0.0,0.0,0.0,0.0,0.0,1.2618,0.0,1.1614,1.1539,1.1471,1.1323,1.1582,1.1663,1.1517,1.1761,1.1807,1.1474,1.1233,1.119,1.1412,1.1367,1.1418,1.1677,1.1707,1.1816,1.2057,1.2093,1.2243,1.2611,1.2695,1.2852,1.3202,1.3298,1.3394,1.367,1.3809,1.396,1.4081,1.4208,1.4358,1.4461,1.4383,1.4238,1.4084,1.4046,1.3805,1.3328,1.2967,1.2669,1.2387,1.2212,1.2088,1.2098,1.2098,1.2098,1.2098,1.2098,1.2098,1.2098,1.2098,1.2131,1.223,1.2258,1.223,1.2112,1.2098,1.2126,1.3458,1.2004,1.2853,1.2697,1.1905,1.19,1.1905,1.1947,0.0,0.0,0.0,1.3851,1.3811,1.3488,1.4317,1.4416,1.3946,1.4298,1.4485,1.4558,1.4539,1.4514,1.4532,1.4722,1.5274,1.6078,1.5903,1.6467,1.7629,1.7407,1.7468,1.7829,1.7851,1.7844,1.7866,1.7788,1.7622,1.7346,1.7062,1.6726,1.6404,1.6397,1.6198,1.5804,1.5788,1.5788,1.5769,1.4999,1.4758,1.5141,1.3959,1.3172,1.3072,1.2496,1.1947,1.1458,1.1307,1.134,1.1569,1.1581,1.167,1.1948,1.1774,1.1682,1.1834,1.1635,1.1513,1.1575,1.1412,1.1424,1.1689,1.1774,1.196,1.2394,1.2493,1.2717,1.3099,1.3171,1.3262,1.3509,1.3557,1.3659,1.3936,1.3984,1.4051,1.422,1.422,1.4254,1.4413,1.4317,1.4136,1.3826,1.3799,1.3749,1.3375,1.299,1.2826,1.2713,1.2529,1.2404,1.2382,1.2382,1.2382,1.2349,1.2382,1.2395,1.2377,1.2354,1.2382,1.2382,1.2382,1.2382,1.2382,1.2382,1.2368,1.2589,1.2324,1.2481,1.2428,1.2324,1.2329,1.2297,1.2296,1.2026,1.2452,1.3346,1.253,1.3094,1.455,1.3012,1.2945,1.3948,1.2792,1.2491,1.2939,1.2751,1.2682,1.273,1.3621,1.4136,1.4304,1.485,1.5695,1.6664,1.6721,1.7156,1.7957,1.8057,1.8049,1.8034,1.7765,1.7596,1.755,1.7614,1.7482,1.7135,1.7148,1.683,1.6174,1.6134,1.6126,1.6126,1.5715,1.5417,1.5289,1.4811,1.4296,1.3767,1.3091,1.2739,1.2622,1.2116,1.1804,1.1826,1.1852,1.196,1.2207,1.2207,1.2015,1.1605,1.1513,1.1585,1.1828,1.1988,1.2231,1.2491,1.2707,1.2858,1.2973,1.3183,1.3381,1.343,1.3437,1.3556,1.3815,1.3851,1.3948,1.4165,1.4232,1.4232,1.425,1.4069,1.3826,1.3726,1.3943,1.3951,1.3565,1.3247,1.3084,1.2967,1.2707,1.2545,1.2475,1.2435,1.2382,1.2382,1.2382,1.2382,1.2382,1.2382,1.2382,1.2382,1.2382,1.2382,1.2382,1.2382,1.2382,1.2382,1.2382,1.2382,1.2382,1.2382,1.2382,1.2382,1.2382,1.2382,1.2382,1.2368,1.2211,1.2392,1.2785,1.2334,1.2588,1.3257,1.2375,1.226,1.2807,1.2097,1.1947,1.2143,1.2081,1.2038,1.2069,1.2521,1.2975,1.3417,1.3748,1.4473,1.5473,1.6082,1.6678,1.7295,1.7823,1.8087,1.8071,1.7957,1.7881,1.7865,1.7672,1.7512,1.7363,1.7484,1.7403,1.7077,1.6918,1.6806,1.6798,1.5907,1.538,1.524,1.4262,1.3601,1.3318,1.2711,1.2353,1.2353,1.2074,1.1966,1.2105,1.2388,1.2665,1.2918,1.2942,1.2852,1.2611,1.2316,1.2282,1.2521,1.2665,1.284,1.3093,1.3244,1.331,1.3338,1.3453,1.3574,1.3701,1.3731,1.3827,1.4063,1.4123,1.4165,1.428,1.4431,1.4375,1.4105,1.3872,1.3626,1.32,1.3451,1.3583,1.321,1.3113,1.2978,1.2698,1.2528,1.2404,1.2382,1.2382,1.2382,1.2382,1.2382,1.2382,1.2382,1.2382,1.2382,1.2382,1.2382,1.2382,1.2382,1.2382,1.2382,1.2382,1.2382,1.2382,1.2246,1.23,1.2332,1.2332,1.2382,1.2382,1.2382,1.2382,1.2382,1.2382,1.2382,1.2382,1.2297,1.2165,1.2183,1.2088,1.1947,1.1928,1.1933,1.1923,1.1886,1.1893,1.1857,1.182,1.2133,1.2717,1.2978,1.3667,1.474,1.5807,1.6556,1.7008,1.7758,1.8143,1.8151,1.8143,1.8113,1.8007,1.7735,1.7547,1.7466,1.7649,1.7727,1.769,1.7482,1.7368,1.7336,1.6199,1.5535,1.5479,1.4172,1.3404,1.3383,1.2831,1.2482,1.2482,1.2344,1.2346,1.2563,1.2948,1.3274,1.3467,1.3491,1.3491,1.3461,1.3117,1.297,1.3147,1.3177,1.3268,1.343,1.3545,1.3581,1.3581,1.3664,1.3768,1.396,1.3996,1.4099,1.4334,1.4389,1.4358,1.4351,1.4463,1.4288,1.3724,1.3593,1.3362,1.2941,1.2967,1.2972,1.2902,1.2984,1.2911,1.2463,1.2409,1.2382,1.2382,1.2382,1.2382,1.2382,1.2382,1.2382,1.2382,1.2382,1.2382,1.2382,1.2382,1.2382,1.2382,1.2382,1.2382,1.2382,1.2382,1.2382,1.1814,1.2028,1.2032,1.2169,1.2355,1.2387,1.2359,1.2387,1.2382,1.2382,1.2382,1.2382,1.24,1.2358,1.2349,1.2357,1.2334,1.2325,1.2311,1.2315,1.2142,1.2079,1.207,1.189,1.1834,1.2068,1.2915,1.3852,1.4855,1.6044,1.7164,1.8063,1.8235,1.8213,1.8245,1.8245,1.8106,1.7851,1.8015,1.7953,1.7613,1.7597,1.7571,1.7437,1.7406,1.7492,1.7701,1.6994,1.6542,1.6505,1.5637,1.5191,1.5096,1.4579,1.4231,1.4151,1.3651,1.3358,1.3399,1.3424,1.3495,1.3485,1.3515,1.3521,1.3515,1.3461,1.3447,1.3467,1.3461,1.3485,1.3509,1.3708,1.387,1.3882,1.4045,1.4238,1.4202,1.4256,1.437,1.4648,1.4524,1.4558,1.4217,1.4176,1.3892,1.3216,1.3073,1.2898,1.2585,1.2539,1.2572,1.2485,1.2486,1.2491,1.2382,1.2382,1.2382,1.2382,1.2382,1.2382,1.2382,1.2382,1.2382,1.2382,1.2382,1.2382,1.2382,1.2382,1.2382,1.2382,1.2382,1.2382,1.2382,1.2382,1.2382,1.165,1.1759,1.1759,1.1814,1.1923,1.1923,1.1923,1.1951,1.211,1.2169,1.2196,1.2327,1.2382,1.2382,1.2382,1.2382,1.2382,1.2382,1.2382,1.2377,1.2297,1.2286,1.225,1.2175,1.2098,1.2011,1.2474,1.2816,1.329,1.4253,1.5317,1.6198,1.6273,1.6605,1.7243,1.7299,1.7527,1.8084,1.8206,1.8171,1.8009,1.7947,1.7858,1.7803,1.7618,1.7578,1.7502,1.6225,1.5548,1.5762,1.4571,1.3822,1.3851,1.3886,1.3773,1.3473,1.3507,1.3586,1.3731,1.3749,1.3786,1.396,1.3978,1.3978,1.3978,1.3978,1.3972,1.396,1.3839,1.3803,1.3937,1.4075,1.4135,1.4171,1.4383,1.4399,1.402,1.4154,1.4194,1.3996,1.3931,1.3914,1.374,1.3551,1.3393,1.3091,1.2873,1.2535,1.24,1.2382,1.2382,1.2382,1.2382,1.2382,1.2382,1.2382,1.2382,1.2382,1.2382,1.2382,1.2382,1.2382,1.2382,1.2382,1.2382,1.2382,1.2382,1.2382,1.2382,1.2382,1.2382,1.2382,1.2382,1.2382,1.2382,1.1404,1.1486,1.1541,1.1596,1.1596,1.1596,1.1596,1.1623,1.181,1.1896,1.1919,1.211,1.2191,1.2196,1.2246,1.2332,1.2382,1.2332,1.2327,1.2382,1.2382,1.2382,1.2382,1.2382,1.2334,1.2269,1.2566,1.2796,1.2981,1.3668,1.4459,1.5076,1.5179,1.5589,1.6317,1.6419,1.6761,1.7399,1.7517,1.745,1.7336,1.7268,1.7521,1.8021,1.7804,1.753,1.7287,1.5675,1.4787,1.4868,1.3499,1.2725,1.2754,1.3101,1.313,1.2823,1.3078,1.3397,1.3608,1.359,1.369,1.3866,1.3942,1.3965,1.3982,1.4035,1.4052,1.3997,1.3882,1.3883,1.4346,1.4321,1.4266,1.4277,1.4362,1.4138,1.3769,1.3881,1.3859,1.355,1.3613,1.3469,1.333,1.3077,1.2834,1.2913,1.2676,1.2382,1.2382,1.2382,1.2382,1.2382,1.2382,1.2382,1.2382,1.2382,1.2382,1.2382,1.2382,1.2382,1.2382,1.2382,1.2382,1.2382,1.2382,1.2382,1.2382,1.2382,1.2382,1.2382,1.2382,1.2382,1.2382,1.2382,1.2382,1.0884,1.1154,1.1459,1.1568,1.1596,1.1568,1.1568,1.1541,1.1596,1.1596,1.1596,1.165,1.1655,1.1678,1.1896,1.2164,1.2327,1.2114,1.2141,1.2327,1.2359,1.2382,1.2382,1.2382,1.2377,1.2426,1.3286,1.4293,1.5338,1.5562,1.5804,1.5754,1.5591,1.578,1.5862,1.585,1.5791,1.578,1.5781,1.5484,1.5214,1.5173,1.6165,1.7782,1.7815,1.7239,1.6617,1.5789,1.4934,1.4011,1.3206,1.2764,1.2794,1.2807,1.2796,1.2802,1.2837,1.2848,1.2912,1.2929,1.2951,1.2954,1.3183,1.3187,1.3303,1.3436,1.3514,1.3467,1.3494,1.3814,1.4421,1.4259,1.4142,1.4134,1.3753,1.353,1.3428,1.3456,1.3557,1.3645,1.3619,1.3477,1.3278,1.2797,1.2516,1.2486,1.2409,1.2382,1.2382,1.2382,1.2382,1.2382,1.2382,1.2382,1.2382,1.2382,1.2382,1.2382,1.2382,1.2382,1.2382,1.2382,1.2382,1.2382,1.2382,1.2382,1.2382,1.2382,1.2382,1.2382,1.2382,1.2382,1.2382,1.2382,1.2382,1.0747,1.0857,1.0966,1.1021,1.1021,1.1021,1.1021,1.1048,1.1208,1.1291,1.1322,1.1486,1.1596,1.1596,1.1486,1.1596,1.1837,1.1787,1.1787,1.1896,1.1869,1.1896,1.1896,1.206,1.2169,1.2246,1.2735,1.3246,1.3587,1.3646,1.3673,1.3673,1.3668,1.4024,1.467,1.4831,1.5095,1.5649,1.5716,1.5668,1.5449,1.5331,1.5622,1.6321,1.6098,1.5788,1.5511,1.4626,1.4034,1.3836,1.2985,1.2428,1.2294,1.2297,1.2448,1.278,1.2923,1.3004,1.3021,1.3105,1.3191,1.3172,1.3241,1.3264,1.33,1.3345,1.3393,1.3419,1.3569,1.3838,1.3944,1.3846,1.3695,1.3665,1.3656,1.3456,1.3226,1.3219,1.3241,1.2986,1.2893,1.2852,1.2788,1.255,1.2414,1.2382,1.2382,1.2382,1.2382,1.2382,1.2382,1.2382,1.2382,1.2382,1.2382,1.2382,1.2382,1.2382,1.2382,1.2382,1.2382,1.23,1.2278,1.2055,1.2137,1.2246,1.2191,1.2359,1.2359,1.2273,1.2273,1.2382,1.2382,1.2382,1.2382,1.0719,1.0719,1.0719,1.0719,1.0719,1.0719,1.0719,1.0719,1.088,1.0966,1.1017,1.1213,1.1322,1.1295,1.1072,1.1072,1.1322,1.1404,1.1514,1.1596,1.1596,1.1596,1.1623,1.1787,1.1864,1.1923,1.2141,1.23,1.2382,1.2382,1.2382,1.2409,1.2382,1.2794,1.3489,1.3624,1.4051,1.4658,1.4766,1.4766,1.4743,1.455,1.4434,1.4385,1.422,1.4202,1.4397,1.3749,1.3276,1.3092,1.2496,1.2078,1.1939,1.1944,1.2093,1.2437,1.258,1.2663,1.2683,1.2817,1.2869,1.2884,1.2925,1.2993,1.2993,1.3054,1.3064,1.3132,1.3219,1.3349,1.3318,1.3162,1.3153,1.3294,1.3367,1.3184,1.2816,1.2891,1.2802,1.2536,1.2449,1.2432,1.2382,1.2409,1.2382,1.2382,1.2382,1.2382,1.2382,1.2382,1.2382,1.2382,1.2382,1.2382,1.2382,1.2382,1.2359,1.2359,1.2273,1.2273,1.2082,1.2028,1.1891,1.1751,1.1778,1.1919,1.2055,1.2223,1.2164,1.2028,1.2246,1.2382,1.2382,1.2382,1.2382,1.0719,1.0719,1.0719,1.0719,1.0719,1.0719,1.0719,1.0719,1.0719,1.0747,1.0774,1.0747,1.0802,1.0747,1.0774,1.0747,1.0829,1.1021,1.1267,1.1486,1.1514,1.1541,1.1509,1.1564,1.1623,1.165,1.1869,1.211,1.2332,1.2359,1.2359,1.2382,1.2382,1.2463,1.2463,1.2572,1.2518,1.2681,1.2758,1.2627,1.2409,1.263,1.2674,1.2603,1.2583,1.2881,1.3379,1.3363,1.2879,1.2085,1.1895,1.1817,1.1826,1.1812,1.1841,1.1868,1.1859,1.1848,1.1869,1.1954,1.2044,1.2063,1.2087,1.2271,1.2348,1.2415,1.251,1.2528,1.2524,1.2499,1.2521,1.2524,1.2704,1.311,1.2832,1.2534,1.2467,1.2427,1.2409,1.2382,1.2382,1.2382,1.2382,1.2382,1.2382,1.2382,1.2382,1.2382,1.2382,1.2382,1.2382,1.2382,1.2382,1.2382,1.2382,1.2382,1.2359,1.2305,1.2169,1.2055,1.1537,1.1318,1.0926,1.0762,1.0926,1.1067,1.1091,1.12,1.1168,1.1168,1.1692,1.1914,1.1887,1.1805,1.2246,1.0719,1.0719,1.0719,1.0719,1.0719,1.0719,1.0719,1.0719,1.0719,1.0719,1.0719,1.0719,1.0719,1.0719,1.0719,1.0719,1.0719,1.0802,1.0884,1.0994,1.1021,1.1021,1.1021,1.1181,1.1404,1.1568,1.1673,1.1864,1.2087,1.2137,1.2191,1.2359,1.2382,1.2382,1.2382,1.2382,1.2382,1.2382,1.2382,1.2382,1.2382,1.2382,1.2382,1.2382,1.2382,1.2501,1.2702,1.2719,1.2491,1.2018,1.2013,1.1947,1.1824,1.1817,1.1817,1.1806,1.1938,1.2013,1.2006,1.2136,1.2202,1.222,1.2282,1.2315,1.2319,1.2344,1.2382,1.2382,1.2382,1.2382,1.2382,1.2382,1.2495,1.2659,1.2495,1.2382,1.2382,1.2382,1.2382,1.2382,1.2382,1.2382,1.2382,1.2382,1.2382,1.2382,1.2382,1.2382,1.2382,1.2382,1.2382,1.2382,1.2382,1.2327,1.2191,1.2028,1.1919,1.1782,1.1646,1.1341,1.088,1.0437,1.0049,0.9939,1.0076,1.0104,1.0155,1.0178,1.0174,0.9873,0.9924,1.0284,1.0758,1.1059,1.125,1.0719,1.0719,1.0719,1.0719,1.0719,1.0719,1.0719,1.0719,1.0719,1.0719,1.0719,1.0719,1.0719,1.0719,1.0719,1.0719,1.0719,1.0719,1.0719,1.0719,1.0719,1.0719,1.0719,1.0852,1.1103,1.135,1.1432,1.1568,1.1841,1.1869,1.1978,1.2191,1.225,1.2305,1.2382,1.2382,1.2382,1.2382,1.2382,1.2382,1.2382,1.2382,1.2382,1.2382,1.2382,1.2382,1.2382,1.2382,1.2325,1.2249,1.2225,1.2154,1.2032,1.2032,1.2022,1.2046,1.214,1.2198,1.2239,1.2297,1.2382,1.2382,1.2382,1.2382,1.2382,1.2382,1.2382,1.2382,1.2382,1.2382,1.2382,1.2382,1.2382,1.2382,1.2409,1.2382,1.2382,1.2382,1.2382,1.2382,1.2382,1.2382,1.2382,1.2382,1.2382,1.2382,1.2382,1.2382,1.2382,1.2382,1.2382,1.2382,1.2382,1.2219,1.1919,1.17,1.1478,1.1232,1.0985,1.0519,0.9998,0.9585,0.9199,0.9199,0.9309,0.903,0.9027,0.9213,0.9237,0.8796,0.8269,0.8875,0.9426,0.9536,0.9728,1.0719,1.0719,1.0719,1.0719,1.0719,1.0719,1.0719,1.0719,1.0719,1.0719,1.0719,1.0719,1.0719,1.0719,1.0719,1.0719,1.0719,1.0719,1.0719,1.0719,1.0719,1.0719,1.0719,1.0747,1.0884,1.1044,1.1076,1.1267,1.1541,1.1568,1.1705,1.1951,1.1978,1.2087,1.2219,1.2327,1.23,1.2273,1.23,1.23,1.2327,1.2359,1.2387,1.2382,1.2382,1.2382,1.2382,1.2382,1.2382,1.2377,1.2358,1.2344,1.2363,1.2377,1.2371,1.2357,1.2372,1.2363,1.2372,1.2372,1.2382,1.2382,1.2382,1.2382,1.2382,1.2382,1.2382,1.2382,1.2382,1.2382,1.2382,1.2382,1.2382,1.2382,1.2382,1.2382,1.2382,1.2382,1.2382,1.2382,1.2382,1.2382,1.2382,1.2382,1.2382,1.2382,1.2382,1.2382,1.2382,1.2382,1.2382,1.2382,1.2382,1.2028,1.17,1.1482,1.1126,1.0162,1.0025,0.9695,0.9199,0.8813,0.8426,0.8426,0.8343,0.8066,0.7814,0.7888,0.7609,0.6974,0.7027,0.7658,0.7959,0.81,0.8459,1.0719,1.0719,1.0719,1.0719,1.0719,1.0719,1.0719,1.0719,1.0719,1.0719,1.0719,1.0719,1.0719,1.0719,1.0719,1.0719,1.0719,1.0719,1.0719,1.0719,1.0719,1.0719,1.0719,1.0719,1.0747,1.0829,1.0857,1.0935,1.1213,1.1236,1.1404,1.1705,1.1705,1.1732,1.1814,1.1841,1.181,1.181,1.1814,1.1951,1.2087,1.2087,1.2223,1.2382,1.2382,1.2382,1.2382,1.2382,1.2382,1.2382,1.2382,1.2382,1.2382,1.2382,1.2382,1.2382,1.2382,1.2382,1.2382,1.2382,1.2382,1.2382,1.2382,1.2382,1.2382,1.2382,1.2382,1.2382,1.2382,1.2382,1.2382,1.2382,1.2382,1.2382,1.2382,1.2382,1.2382,1.2382,1.2382,1.2382,1.2382,1.2382,1.2382,1.2382,1.2382,1.2382,1.2382,1.2382,1.2382,1.2382,1.2382,1.2382,1.2273,1.1837,1.1486,1.1267,1.0606,0.9285,0.8927,0.8896,0.8481,0.8094,0.7762,0.754,0.7346,0.7096,0.651,0.6202,0.5648,0.5397,0.5451,0.5917,0.6417,0.6722,0.7299,0.9381,0.9946,0.9943,1.0166,1.0531,1.0641,1.0637,1.0582,1.0665,1.0719,1.0719,1.0719,1.0719,1.0719,1.0719,1.0719,1.0719,1.0719,1.0719,1.0719,1.0719,1.0719,1.0719,1.0719,1.0719,1.0719,1.0719,1.0798,1.0911,1.0935,1.1103,1.135,1.1404,1.1455,1.1623,1.1596,1.1596,1.1596,1.1596,1.17,1.1814,1.1841,1.1896,1.206,1.2164,1.2273,1.2382,1.2382,1.2382,1.2382,1.2382,1.2382,1.2382,1.2382,1.2382,1.2382,1.2382,1.2382,1.2382,1.2382,1.2382,1.2382,1.2382,1.2382,1.2382,1.2382,1.2382,1.2382,1.2382,1.2382,1.2382,1.2382,1.2382,1.2382,1.2382,1.2382,1.2382,1.2382,1.2382,1.2382,1.2382,1.2382,1.2382,1.2382,1.2382,1.2382,1.2382,1.2382,1.2382,1.2382,1.2246,1.2082,1.1755,1.1236,1.0437,1.0053,0.9691,0.8454,0.8152,0.8097,0.7931,0.7568,0.7401,0.7096,0.6596,0.6123,0.565,0.5176,0.4758,0.4534,0.4257,0.4313,0.4951,0.5449,0.6056,0.7415,0.8613,0.8754,0.9282,1.0005,1.0445,1.0417,1.0312,1.0531,1.0637,1.0665,1.0665,1.0719,1.0719,1.0719,1.0719,1.0719,1.0719,1.0719,1.0719,1.0719,1.0719,1.0719,1.0719,1.0719,1.0719,1.0719,1.0719,1.0747,1.0747,1.0829,1.1017,1.1072,1.1213,1.135,1.1432,1.1486,1.1432,1.1404,1.1455,1.1514,1.1541,1.1596,1.1732,1.1869,1.206,1.2219,1.23,1.2332,1.2355,1.2382,1.2382,1.2382,1.2382,1.2382,1.2382,1.2382,1.2382,1.2382,1.2382,1.2382,1.2382,1.2382,1.2382,1.2382,1.2382,1.2382,1.2382,1.2382,1.2382,1.2382,1.2382,1.2382,1.2382,1.2382,1.2382,1.2382,1.2382,1.2382,1.2382,1.2382,1.2382,1.2382,1.2382,1.2382,1.2382,1.2382,1.2382,1.2382,1.2382,1.1973,1.1427,1.0989,1.0468,0.9585,0.8706,0.8288,0.7651,0.7571,0.7515,0.7515,0.7293,0.7182,0.6874,0.629,0.5761,0.5288,0.4758,0.4201,0.3949,0.3895,0.3755,0.3782,0.4199,0.4726,0.65,0.6861,0.7805,0.8306,0.8644,0.9557,0.9954,0.9954,1.0253,1.0394,1.0445,1.0606,1.0692,1.0719,1.0719,1.0719,1.0719,1.0719,1.0719,1.0719,1.0719,1.0719,1.0719,1.0719,1.0719,1.0719,1.0719,1.0719,1.0719,1.0719,1.0719,1.0798,1.0825,1.0825,1.0911,1.0966,1.0884,1.0884,1.0911,1.1048,1.1181,1.1208,1.135,1.1537,1.165,1.1705,1.1814,1.1978,1.2087,1.2141,1.2273,1.2327,1.2382,1.2382,1.2382,1.2382,1.2382,1.2382,1.2382,1.2382,1.2382,1.2382,1.2382,1.2382,1.2382,1.2382,1.2382,1.2382,1.2382,1.2382,1.2382,1.2382,1.2382,1.2382,1.2382,1.2382,1.2382,1.2382,1.2382,1.2382,1.2382,1.2382,1.2382,1.2382,1.2382,1.2382,1.2382,1.2382,1.2327,1.2273,1.1564,1.077,1.0414,0.9891,0.8923,0.8152,0.782,0.7432,0.7265,0.721,0.721,0.7015,0.6902,0.6513,0.5929,0.5427,0.4925,0.4341,0.3783,0.3671,0.3587,0.3587,0.3587,0.3587,0.3587,0.4751,0.5443,0.6084,0.6919,0.7839,0.8619,0.9203,0.9623,0.9926,1.0147,1.0312,1.0476,1.0555,1.0692,1.0719,1.0719,1.0719,1.0719,1.0719,1.0719,1.0719,1.0719,1.0719,1.0719,1.0719,1.0719,1.0719,1.0719,1.0719,1.0719,1.0719,1.0719,1.0719,1.0719,1.0719,1.0719,1.0747,1.0719,1.0719,1.0774,1.0884,1.0911,1.1044,1.1291,1.1377,1.1432,1.1623,1.1732,1.1814,1.1837,1.1946,1.2164,1.2355,1.2382,1.2382,1.2382,1.2382,1.2382,1.2382,1.2382,1.2382,1.2382,1.2382,1.2382,1.2382,1.2382,1.2382,1.2382,1.2382,1.2382,1.2382,1.2382,1.2382,1.2382,1.2382,1.2382,1.2382,1.2382,1.2382,1.2382,1.2382,1.2382,1.2382,1.2382,1.2382,1.2382,1.2359,1.2305,1.1673,1.1482,1.0739,1.0107,0.9836,0.9285,0.8288,0.7737,0.7598,0.7349,0.7238,0.721,0.721,0.6932,0.6624,0.6151,0.565,0.5093,0.4562,0.3977,0.3615,0.3587,0.3587,0.3587,0.3587,0.3587,0.3587,0.292,0.4109,0.4277,0.5391,0.6922,0.7421,0.7977,0.8678,0.9289,0.9478,1.0005,1.0147,1.0449,1.0665,1.0719,1.0719,1.0719,1.0719,1.0719,1.0719,1.0719,1.0719,1.0719,1.0719,1.0719,1.0719,1.0719,1.0719,1.0719,1.0719,1.0719,1.0719,1.0719,1.0719,1.0719,1.0719,1.0719,1.0719,1.0719,1.0719,1.0719,1.0747,1.0857,1.0994,1.1044,1.1158,1.135,1.1455,1.1509,1.1541,1.1568,1.1841,1.2141,1.2273,1.2273,1.225,1.2246,1.2305,1.23,1.2355,1.2382,1.2382,1.2382,1.2382,1.2382,1.2382,1.2382,1.2382,1.2355,1.23,1.2327,1.2219,1.2219,1.2246,1.2246,1.2278,1.2278,1.2273,1.225,1.2382,1.2382,1.2382,1.2359,1.2332,1.2359,1.2355,1.2278,1.1973,1.1263,1.077,1.0107,0.942,0.9089,0.8481,0.7512,0.6871,0.6791,0.6846,0.6821,0.6821,0.6765,0.6207,0.5789,0.5845,0.5399,0.4814,0.4311,0.3895,0.3643,0.3615,0.3587,0.3587,0.3587,0.3587,0.3587,0.2016,0.2325,0.333,0.397,0.4414,0.5389,0.5973,0.6278,0.7507,0.8115,0.8561,0.9699,1.0308,1.0637,1.0692,1.0692,1.0692,1.0719,1.0719,1.0719,1.0719,1.0719,1.0719,1.0719,1.0719,1.0719,1.0719,1.0719,1.0719,1.0719,1.0719,1.0719,1.0719,1.0719,1.0719,1.0719,1.0719,1.0719,1.0719,1.0719,1.0719,1.0719,1.0719,1.0802,1.0802,1.0857,1.0907,1.1072,1.1185,1.1213,1.1455,1.1623,1.17,1.1732,1.1732,1.1841,1.1973,1.206,1.2087,1.225,1.2359,1.2382,1.2327,1.2359,1.2359,1.2355,1.2305,1.2278,1.2169,1.206,1.206,1.1919,1.1759,1.1759,1.1787,1.1787,1.1787,1.1814,1.1951,1.2223,1.2305,1.23,1.2196,1.1973,1.1723,1.15,1.1305,1.0781,0.9986,0.9825,0.9691,0.9003,0.8318,0.7568,0.6735,0.6149,0.5815,0.5926,0.5956,0.5956,0.5734,0.5176,0.4897,0.5148,0.4981,0.4395,0.4005,0.3727,0.3643,0.3615,0.3587,0.3587,0.3587,0.3587,0.3587,0.1808,0.1851,0.2437,0.3051,0.3636,0.4193,0.4832,0.5472,0.617,0.6977,0.7781,0.8616,0.9561,1.0253,1.05,1.0555,1.0692,1.0719,1.0719,1.0719,1.0719,1.0719,1.0719,1.0719,1.0719,1.0719,1.0719,1.0719,1.0719,1.0719,1.0719,1.0719,1.0719,1.0719,1.0719,1.0719,1.0719,1.0719,1.0719,1.0719,1.0719,1.0719,1.0719,1.0719,1.0719,1.0719,1.0719,1.0798,1.0884,1.0939,1.1048,1.1103,1.1158,1.1185,1.1267,1.1541,1.17,1.1782,1.1787,1.1923,1.1951,1.1978,1.1978,1.1978,1.1978,1.1973,1.2005,1.1978,1.1923,1.1787,1.1787,1.165,1.1623,1.1596,1.1568,1.1568,1.1568,1.1568,1.1705,1.1869,1.1814,1.1755,1.1782,1.1482,1.1067,1.0703,1.0366,0.9594,0.8717,0.8665,0.8692,0.7811,0.7041,0.6652,0.5984,0.5536,0.512,0.5148,0.5176,0.5176,0.5093,0.4702,0.4646,0.4786,0.4423,0.4005,0.3838,0.3643,0.3615,0.3587,0.3587,0.3587,0.3587,0.3587,0.3587,0.1801,0.1795,0.1795,0.2353,0.3163,0.3246,0.3748,0.4582,0.4916,0.5695,0.678,0.7227,0.8226,0.9557,1.017,1.0449,1.0692,1.0719,1.0719,1.0719,1.0719,1.0719,1.0719,1.0719,1.0719,1.0719,1.0719,1.0719,1.0719,1.0719,1.0719,1.0719,1.0719,1.0719,1.0719,1.0719,1.0719,1.0719,1.0719,1.0719,1.0719,1.0719,1.0719,1.0719,1.0719,1.0719,1.0719,1.0719,1.0747,1.0747,1.0747,1.0747,1.0719,1.0719,1.0939,1.1322,1.1459,1.1486,1.1514,1.1623,1.1678,1.1678,1.1623,1.1623,1.1623,1.1678,1.165,1.1596,1.1514,1.1514,1.1486,1.1432,1.1377,1.1377,1.1377,1.1404,1.135,1.124,1.0989,1.1099,1.1154,1.1017,1.0821,1.0652,1.0155,0.9484,0.912,0.8266,0.7498,0.7365,0.7143,0.623,0.5622,0.5511,0.5176,0.4981,0.4674,0.4592,0.459,0.459,0.459,0.448,0.4452,0.4341,0.4089,0.3727,0.3615,0.3587,0.3587,0.3587,0.3587,0.3587,0.3587,0.3587,0.3587,0.1791,0.1795,0.1795,0.1879,0.2046,0.2074,0.2102,0.2437,0.3413,0.3996,0.4775,0.5614,0.6838,0.8392,0.9754,1.0335,1.0637,1.0719,1.0719,1.0719,1.0719,1.0719,1.0719,1.0719,1.0719,1.0719,1.0719,1.0719,1.0719,1.0719,1.0719,1.0719,1.0719,1.0719,1.0719,1.0719,1.0719,1.0719,1.0719,1.0719,1.0719,1.0719,1.0719,1.0719,1.0719,1.0719,1.0719,1.0719,1.0719,1.0719,1.0719,1.0719,1.0719,1.0719,1.0719,1.0857,1.0994,1.1158,1.1213,1.135,1.1486,1.1459,1.1509,1.1568,1.1486,1.1486,1.1486,1.1596,1.135,1.1185,1.1126,1.0966,1.0857,1.0857,1.0939,1.0911,1.0884,1.0994,1.0743,1.0025,0.9998,0.9774,0.955,0.9412,0.9189,0.8493,0.7741,0.6858,0.6253,0.6089,0.598,0.5174,0.4786,0.4648,0.4592,0.4369,0.4285,0.4117,0.4117,0.4089,0.4089,0.4089,0.3921,0.3783,0.3587,0.3587,0.3587,0.3587,0.3587,0.3587,0.3587,0.3587,0.3587,0.3587,0.3587,0.1807,0.1795,0.1795,0.1795,0.1795,0.1795,0.1795,0.1907,0.2325,0.3051,0.3747,0.4275,0.578,0.7725,0.8975,0.9805,1.0523,1.0665,1.0692,1.0719,1.0719,1.0719,1.0719,1.0719,1.0719,1.0719,1.0719,1.0719,1.0719,1.0719,1.0719,1.0719,1.0719,1.0719,1.0719,1.0719,1.0719,1.0719,1.0719,1.0719,1.0719,1.0719,1.0719,1.0719,1.0719,1.0719,1.0719,1.0719,1.0719,1.0719,1.0719,1.0719,1.0719,1.0719,1.0719,1.0719,1.0802,1.0857,1.0884,1.1017,1.1103,1.1103,1.1099,1.1076,1.1076,1.1103,1.1131,1.1076,1.0966,1.0884,1.0884,1.0774,1.0747,1.0719,1.0719,1.0719,1.0692,1.0637,1.0445,0.9585,0.8754,0.842,0.7974,0.7421,0.7171,0.678,0.6056,0.5254,0.4782,0.4616,0.4505,0.4367,0.4117,0.4005,0.3979,0.3867,0.3921,0.3839,0.3811,0.3783,0.3727,0.3643,0.3587,0.3587,0.3587,0.3587,0.3587,0.3587,0.3587,0.3587,0.3587,0.3587,0.3587,0.3587,0.3587,0.1795,0.1795,0.1795,0.1795,0.1795,0.1795,0.1795,0.1795,0.1823,0.2325,0.3051,0.3553,0.4972,0.675,0.7636,0.8661,1.0053,1.0221,1.0468,1.0578,1.0719,1.0719,1.0719,1.0719,1.0719,1.0719,1.0719,1.0719,1.0719,1.0719,1.0719,1.0719,1.0719,1.0719,1.0719,1.0719,1.0719,1.0719,1.0719,1.0719,1.0719,1.0719,1.0719,1.0719,1.0719,1.0719,1.0719,1.0719,1.0719,1.0719,1.0719,1.0719,1.0719,1.0719,1.0719,1.0719,1.0747,1.0747,1.0747,1.0774,1.0719,1.0719,1.0719,1.0802,1.0774,1.0719,1.0719,1.0774,1.0747,1.0747,1.0719,1.0719,1.0719,1.0719,1.0719,1.0719,1.0637,1.0414,0.9746,0.861,0.7697,0.6813,0.623,0.5369,0.4981,0.4869,0.4341,0.3727,0.3643,0.3698,0.3754,0.3894,0.3838,0.3727,0.3699,0.3643,0.3615,0.3587,0.3587,0.3587,0.3587,0.3587,0.3587,0.3587,0.3587,0.3587,0.3587,0.3587,0.3587,0.3587,0.3587,0.3587,0.3587,0.3587,0.3587,0.1795,0.1795,0.1795,0.1795,0.1795,0.1795,0.1795,0.1795,0.1795,0.1879,0.2241,0.3023,0.3773,0.4689,0.5996,0.7246,0.8665,0.8916,0.9609,1.0304,1.0719,1.0719,1.0719,1.0719,1.0719,1.0719,1.0719,1.0719,1.0719,1.0719,1.0719,1.0719,1.0719,1.0719,1.0719,1.0719,1.0719,1.0719,1.0719,1.0719,1.0719,1.0719,1.0719,1.0719,1.0719,1.0719,1.0719,1.0719,1.0719,1.0719,1.0719,1.0719,1.0719,1.0719,1.0692,1.0414,1.0414,1.0304,1.0166,1.0496,1.0719,1.0719,1.0719,1.0719,1.0719,1.0719,1.0719,1.0719,1.0719,1.0719,1.0719,1.0719,1.0692,1.0331,1.0166,0.9998,0.997,0.9998,0.9192,0.7747,0.6725,0.598,0.5174,0.4452,0.4257,0.4229,0.4173,0.3587,0.3587,0.3643,0.3643,0.3671,0.3671,0.3615,0.3615,0.3587,0.3587,0.3587,0.3587,0.3587,0.3587,0.3587,0.3587,0.3587,0.3587,0.3587,0.3587,0.3587,0.3587,0.3587,0.3587,0.3587,0.3587,0.3587,0.3587,0.1795,0.1795,0.1795,0.1795,0.1795,0.1795,0.1795,0.1795,0.1795,0.1795,0.1823,0.2325,0.305,0.3939,0.4495,0.5691,0.7108,0.8278,0.8861,0.9554,1.008,1.0606,1.0692,1.0719,1.0719,1.0719,1.0719,1.0719,1.0719,1.0719,1.0719,1.0719,1.0719,1.0719,1.0719,1.0719,1.0719,1.0719,1.0719,1.0719,1.0719,1.0719,1.0719,1.0719,1.0719,1.0719,1.0719,1.0719,1.0719,1.0692,1.0692,1.0665,1.0606,1.0606,1.0221,0.975,0.9667,0.9306,0.9109,0.9774,1.0692,1.0719,1.0719,1.0692,1.0665,1.0719,1.0719,1.0719,1.0719,1.0719,1.0719,1.0665,1.05,0.9919,0.9475,0.9251,0.9082,0.9054,0.8361,0.6808,0.6033,0.5341,0.4534,0.3727,0.3671,0.3671,0.3615,0.3587,0.3587,0.3587,0.3587,0.3587,0.3587,0.3587,0.3587,0.3587,0.3587,0.3587,0.3587,0.3587,0.3587,0.3587,0.3587,0.3587,0.3587,0.3587,0.3587,0.3587,0.3587,0.3587,0.3587,0.3587,0.3587,0.3587,0.3587,0.1795,0.1795,0.1795,0.1795,0.1795,0.1795,0.1795,0.1795,0.1795,0.1795,0.1795,0.1851,0.2297,0.316,0.3494,0.4218,0.5524,0.6637,0.7689,0.8606,0.9467,1.0245,1.0551,1.0719,1.0719,1.0719,1.0719,1.0719,1.0719,1.0719,1.0719,1.0719,1.0719,1.0719,1.0719,1.0719,1.0719,1.0719,1.0719,1.0719,1.0719,1.0719,1.0719,1.0719,1.0719,1.0719,1.0719,1.0719,1.0719,1.0555,1.0414,1.0359,1.03,1.0053,0.9444,0.8975,0.8447,0.7916,0.7858,0.8386,0.9801,0.9915,1.0053,1.0249,1.0582,1.0692,1.0719,1.0719,1.0719,1.0692,1.061,1.0331,0.9888,0.9251,0.8502,0.8168,0.7888,0.7722,0.6894,0.5813,0.5369,0.5063,0.4285,0.3587,0.3587,0.3587,0.3587,0.3587,0.3587,0.3587,0.3587,0.3587,0.3587,0.3587,0.3587,0.3587,0.3587,0.3587,0.3587,0.3587,0.3587,0.3587,0.3587,0.3587,0.3587,0.3587,0.3587,0.3587,0.3587,0.3587,0.3587,0.3587,0.3587,0.3587,0.3587,0.1795,0.1795,0.1795,0.1795,0.1795,0.1795,0.1795,0.1795,0.1795,0.1795,0.1795,0.1795,0.1823,0.2102,0.2381,0.3107,0.3939,0.4719,0.6026,0.7885,0.8689,0.9467,1.03,1.0719,1.0719,1.0719,1.0719,1.0719,1.0719,1.0719,1.0719,1.0719,1.0719,1.0719,1.0719,1.0719,1.0719,1.0719,1.0719,1.0719,1.0719,1.0719,1.0719,1.0719,1.0719,1.0719,1.0719,1.0719,1.0637,1.0276,0.9612,0.9581,0.9939,0.8468,0.8002,0.8395,0.7556,0.711,0.7055,0.7141,0.7722,0.8723,0.8944,0.9361,1.0276,1.0582,1.0468,1.0249,1.0414,1.0445,1.0166,0.964,0.9003,0.8254,0.7448,0.6864,0.6558,0.6281,0.5451,0.5009,0.5091,0.4981,0.4201,0.3587,0.3587,0.3587,0.3587,0.3587,0.3587,0.3587,0.3587,0.3587,0.3587,0.3587,0.3587,0.3587,0.3587,0.3587,0.3587,0.3587,0.3587,0.3587,0.3587,0.3587,0.3587,0.3587,0.3587,0.3587,0.3587,0.3587,0.3587,0.3587,0.3587,0.3587,0.3587,0.1795,0.1795,0.1795,0.1795,0.1795,0.1795,0.1795,0.1795,0.1795,0.1795,0.1795,0.1795,0.1795,0.1851,0.1879,0.2242,0.2659,0.3911,0.5413,0.6858,0.7802,0.9354,1.0245,1.0551,1.0665,1.0719,1.0719,1.0719,1.0719,1.0719,1.0719,1.0719,1.0719,1.0719,1.0719,1.0719,1.0719,1.0719,1.0719,1.0719,1.0719,1.0719,1.0719,1.0719,1.0692,1.061,1.0551,1.0496,1.0107,0.9581,0.8782,0.8696,0.8579,0.711,0.6922,0.6841,0.6005,0.556,0.5089,0.4921,0.5755,0.6891,0.7778,0.8251,0.9278,0.9475,0.9502,0.9502,0.9499,0.922,0.8306,0.8026,0.7445,0.6591,0.5868,0.5314,0.4951,0.47,0.4255,0.4117,0.4117,0.4229,0.3783,0.3587,0.3587,0.3587,0.3587,0.3587,0.3587,0.3587,0.3587,0.3587,0.3587,0.3587,0.3587,0.3587,0.3587,0.3587,0.3587,0.3587,0.3587,0.3587,0.3587,0.3587,0.3587,0.3587,0.3587,0.3587,0.3587,0.3587,0.3587,0.3587,0.3587,0.3587,0.3587,0.1795,0.1795,0.1795,0.1795,0.1795,0.1795,0.1795,0.1795,0.1795,0.1795,0.1795,0.1795,0.1795,0.1795,0.1795,0.1795,0.1934,0.2715,0.4023,0.5443,0.6498,0.802,0.9271,1.008,1.0276,1.0496,1.0692,1.0719,1.0719,1.0719,1.0719,1.0719,1.0719,1.0719,1.0719,1.0719,1.0719,1.0719,1.0719,1.0719,1.0719,1.0719,1.0719,1.0578,1.0359,1.0029,0.9943,0.9636,0.9137,0.8447,0.7894,0.7614,0.7002,0.6253,0.5894,0.5397,0.4869,0.4451,0.3921,0.3754,0.4672,0.5586,0.617,0.7058,0.7974,0.8254,0.8278,0.8251,0.8278,0.7864,0.7224,0.6919,0.6172,0.5343,0.4841,0.4341,0.4117,0.3894,0.3838,0.3671,0.3615,0.3615,0.3587,0.3587,0.3587,0.3587,0.3587,0.3587,0.3587,0.3587,0.3587,0.3587,0.3587,0.3587,0.3587,0.3587,0.3587,0.3587,0.3587,0.3587,0.3587,0.3587,0.3587,0.3587,0.3587,0.3587,0.3587,0.3587,0.3587,0.3587,0.3587,0.3587,0.3587,0.3587,0.3587,0.1795,0.1795,0.1795,0.1795,0.1795,0.1795,0.1795,0.1795,0.1795,0.1795,0.1795,0.1795,0.1795,0.1795,0.1795,0.1795,0.1795,0.1962,0.2994,0.3968,0.4996,0.6606,0.7913,0.8775,0.922,1.0025,1.0359,1.0111,1.0496,1.0359,1.0386,1.0555,1.061,1.05,1.0472,1.0359,1.0359,1.0304,0.997,0.9884,0.9801,1.008,0.9943,0.9719,0.9306,0.8947,0.8613,0.8137,0.7529,0.6838,0.6174,0.6339,0.5866,0.4784,0.4784,0.4646,0.4173,0.3839,0.3643,0.3615,0.3643,0.4367,0.4868,0.5841,0.6644,0.706,0.7058,0.7058,0.7058,0.6947,0.6697,0.6005,0.5316,0.4732,0.4229,0.3923,0.3755,0.3643,0.3643,0.3615,0.3615,0.3587,0.3587,0.3587,0.3587,0.3587,0.3587,0.3587,0.3587,0.3587,0.3587,0.3587,0.3587,0.3587,0.3587,0.3587,0.3587,0.3587,0.3587,0.3587,0.3587,0.3587,0.3587,0.3587,0.3587,0.3587,0.3587,0.3587,0.3587,0.3587,0.359,0.3587,0.3587,0.3587,0.359,0.1795,0.1795,0.1795,0.1795,0.1795,0.1795,0.1795,0.1795,0.1795,0.1795,0.1795,0.1795,0.1795,0.1795,0.1795,0.1795,0.1795,0.199,0.2826,0.3578,0.4108,0.5607,0.6692,0.747,0.7861,0.8389,0.8834,0.9085,0.8582,0.8889,0.942,0.9447,1.0025,0.9974,0.964,0.9392,0.9337,0.9251,0.8778,0.8634,0.8496,0.8554,0.8499,0.8275,0.7971,0.767,0.7418,0.7168,0.6614,0.5813,0.5592,0.5481,0.4339,0.3921,0.3949,0.3977,0.3755,0.3615,0.3587,0.3587,0.3587,0.3587,0.4033,0.4704,0.5481,0.5868,0.5866,0.5866,0.5838,0.5729,0.5395,0.4784,0.4452,0.4173,0.3811,0.3755,0.3587,0.3587,0.3587,0.3587,0.3587,0.3587,0.3587,0.3587,0.3587,0.3587,0.3587,0.3587,0.3587,0.3587,0.3587,0.3587,0.3587,0.3587,0.3587,0.3587,0.3587,0.3587,0.3587,0.3587,0.3587,0.3587,0.3587,0.3587,0.3587,0.3587,0.3587,0.3589,0.359,0.3591,0.3594,0.359,0.359,0.3639,0.3662,0.1795,0.1795,0.1795,0.1795,0.1795,0.1795,0.1795,0.1795,0.1795,0.1795,0.1795,0.1795,0.1795,0.1795,0.1795,0.1795,0.1795,0.1823,0.2325,0.2771,0.3525,0.4526,0.5443,0.6139,0.6669,0.7141,0.7584,0.7919,0.739,0.7639,0.8195,0.8251,0.9082,0.8803,0.8251,0.7725,0.7421,0.7617,0.7642,0.7445,0.7304,0.7362,0.7529,0.6944,0.6722,0.6447,0.6336,0.6172,0.5367,0.4786,0.4704,0.4424,0.3671,0.3615,0.3587,0.3671,0.3643,0.3587,0.3587,0.3587,0.3587,0.3587,0.3615,0.4005,0.4341,0.4674,0.4674,0.4674,0.4618,0.448,0.4005,0.3615,0.3643,0.3615,0.3615,0.3615,0.3587,0.3587,0.3587,0.3587,0.3587,0.3587,0.3587,0.3587,0.3587,0.3587,0.3587,0.3587,0.3587,0.3587,0.3587,0.3587,0.3587,0.3587,0.3587,0.3587,0.3587,0.3587,0.3587,0.3587,0.3587,0.359,0.3593,0.359,0.3587,0.3628,0.3651,0.3598,0.3593,0.3613,0.3657,0.3711,0.3724,0.3725,0.3751,0.1795,0.1795,0.1795,0.1795,0.1795,0.1795,0.1795,0.1795,0.1795,0.1795,0.1795,0.1795,0.1795,0.1795,0.1795,0.1795,0.1795,0.1823,0.1851,0.1879,0.241,0.3274,0.4055,0.4669,0.5252,0.6278,0.6891,0.6866,0.6919,0.6974,0.7005,0.6974,0.7335,0.7307,0.6947,0.6313,0.598,0.5757,0.6785,0.7337,0.6947,0.7421,0.7977,0.6697,0.5866,0.523,0.5009,0.4424,0.3587,0.3615,0.3643,0.3671,0.3643,0.3587,0.3587,0.3587,0.3587,0.3587,0.3587,0.3587,0.3587,0.3587,0.3615,0.3699,0.3895,0.3979,0.4033,0.4033,0.4033,0.4033,0.3699,0.3587,0.3587,0.3587,0.3587,0.3587,0.3587,0.3587,0.3587,0.3587,0.3587,0.3587,0.3587,0.3587,0.3587,0.3587,0.3587,0.3587,0.3619,0.3619,0.3594,0.3593,0.3587,0.3587,0.3587,0.3587,0.3587,0.3587,0.3587,0.3587,0.3587,0.3591,0.3598,0.3615,0.3662,0.3681,0.3695,0.3672,0.3684,0.3751,0.3792,0.3827,0.3839,0.385,0.3835,0.1795,0.1795,0.1795,0.1795,0.1795,0.1795,0.1795,0.1795,0.1795,0.1795,0.1795,0.1795,0.1795,0.1795,0.1795,0.1795,0.1795,0.1795,0.1795,0.1879,0.2047,0.2355,0.2857,0.3471,0.3891,0.4309,0.4977,0.5731,0.5701,0.5729,0.5813,0.5896,0.6255,0.642,0.5755,0.5204,0.4981,0.4452,0.5369,0.5868,0.5117,0.47,0.4561,0.4449,0.4117,0.4173,0.4033,0.3895,0.3587,0.3615,0.3615,0.3615,0.3587,0.3587,0.3587,0.3587,0.3587,0.3587,0.3587,0.3587,0.3587,0.3587,0.3587,0.3587,0.3615,0.3587,0.3587,0.3587,0.3587,0.3587,0.3587,0.3587,0.3587,0.3587,0.3587,0.3587,0.3587,0.3587,0.3587,0.3587,0.3587,0.3587,0.3587,0.3587,0.3587,0.3587,0.3587,0.3618,0.3626,0.363,0.3609,0.3606,0.359,0.3587,0.3587,0.3587,0.3587,0.3587,0.3587,0.3587,0.359,0.3627,0.3658,0.3703,0.3722,0.374,0.3744,0.3721,0.3751,0.3842,0.3893,0.3894,0.3969,0.3997,0.3966,0.1795,0.1795,0.1795,0.1795,0.1795,0.1795,0.1795,0.1795,0.1795,0.1795,0.1795,0.1795,0.1795,0.1795,0.1795,0.1795,0.1795,0.1795,0.1795,0.1851,0.1935,0.2075,0.2327,0.2551,0.2859,0.3222,0.367,0.4173,0.4341,0.4173,0.4199,0.4423,0.5059,0.5142,0.4451,0.4451,0.4341,0.3699,0.4397,0.4173,0.3699,0.3949,0.3923,0.3895,0.3587,0.3587,0.3587,0.3587,0.3587,0.3587,0.3587,0.3587,0.3587,0.3587,0.3587,0.3587,0.3587,0.3587,0.3587,0.3587,0.3587,0.3587,0.3587,0.3587,0.3587,0.3587,0.3587,0.3587,0.3587,0.3587,0.3587,0.3587,0.3587,0.3587,0.3587,0.3587,0.3587,0.3587,0.3587,0.3587,0.3587,0.3587,0.3587,0.3587,0.3618,0.3628,0.3625,0.3656,0.3659,0.3665,0.3666,0.3632,0.3651,0.3626,0.3587,0.3587,0.3587,0.3587,0.3587,0.3609,0.3628,0.3711,0.3753,0.3764,0.3779,0.3799,0.3795,0.3796,0.3827,0.3921,0.3961,0.3988,0.4039,0.4118,0.4116,0.1795,0.1795,0.1795,0.1795,0.1795,0.1795,0.1795,0.1795,0.1795,0.1795,0.1795,0.1795,0.1795,0.1795,0.1795,0.1795,0.1795,0.1795,0.1795,0.1795,0.1823,0.1935,0.2075,0.2244,0.2496,0.2664,0.2945,0.3001,0.3029,0.3029,0.3085,0.2833,0.2943,0.3137,0.3222,0.3446,0.3615,0.3615,0.3839,0.3727,0.4033,0.4562,0.4229,0.3839,0.3587,0.3587,0.3587,0.3587,0.3587,0.3587,0.3587,0.3587,0.3587,0.3587,0.3587,0.3587,0.3587,0.3587,0.3587,0.3587,0.3587,0.3587,0.3587,0.3587,0.3587,0.3587,0.3587,0.3587,0.3587,0.3587,0.3587,0.3587,0.3587,0.3587,0.3587,0.3587,0.3587,0.3587,0.3587,0.3587,0.3589,0.3589,0.3618,0.3618,0.3634,0.3643,0.3666,0.3696,0.3721,0.3728,0.3733,0.372,0.3703,0.3674,0.3629,0.3625,0.3628,0.3587,0.3593,0.3627,0.3698,0.3761,0.3803,0.3818,0.3835,0.3886,0.3906,0.3884,0.3924,0.3997,0.4005,0.4035,0.4164,0.42,0.4268,0.1795,0.1795,0.1795,0.1795,0.1795,0.1795,0.1795,0.1795,0.1795,0.1795,0.1795,0.1795,0.1795,0.1795,0.1795,0.1795,0.1795,0.1795,0.1795,0.1795,0.1795,0.1823,0.1907,0.2075,0.2384,0.2524,0.2581,0.2665,0.2524,0.2609,0.2805,0.2942,0.2998,0.3194,0.3475,0.3587,0.3587,0.3587,0.3587,0.3587,0.3587,0.3867,0.3811,0.3643,0.3587,0.3587,0.3587,0.3587,0.3587,0.3587,0.3587,0.3587,0.3587,0.3589,0.3591,0.3626,0.3625,0.3623,0.3623,0.359,0.359,0.3587,0.3587,0.3587,0.3587,0.3587,0.3587,0.3587,0.3587,0.3587,0.3587,0.3587,0.3587,0.3587,0.3587,0.3587,0.3587,0.3587,0.3587,0.3591,0.3595,0.3597,0.3629,0.3648,0.3691,0.3709,0.3744,0.3772,0.3783,0.3791,0.3803,0.3783,0.3762,0.3695,0.364,0.3645,0.3645,0.3629,0.3615,0.3679,0.3766,0.3817,0.3885,0.3906,0.3929,0.3982,0.3995,0.3992,0.4024,0.4081,0.4076,0.4109,0.4207,0.429,0.4301]},{"header":{"parameterUnit":"m.s-1","parameterCategory":1,"la1":31.0,"la2":29.5877,"lo1":-88.7671,"lo2":-86.6584,"dy":0.0162,"dx":0.0185,"nx":115,"ny":88,"refTime":"2024-03-08T18:00:00:Z","depth":0,"parameterNumber":3,"parameterNumberName":"V-component_of_WINDS"},"data":[0.0,0.0,0.0,0.0,0.0,0.0,0.0,0.0,0.0,0.0,0.0,0.0,0.0,0.0,0.0,0.0,0.0,0.0,0.0,0.0,0.0,0.0,0.0,0.0,0.0,0.0,0.0,0.0,0.0,0.0,0.0,0.0,0.0,0.0,0.0,0.0,0.0,0.0,0.0,0.0,0.0,0.0,0.0,0.0,0.0,0.0,0.0,0.0,0.0,0.0,0.0,0.0,0.0,0.0,0.0,0.0,0.0,0.0,0.0,0.0,0.0,0.0,0.0,0.0,0.0,0.0,0.0,0.0,0.0,0.0,0.0,0.0,0.0,0.0,0.0,0.0,0.0,0.0,0.0,0.0,0.0,0.0,0.0,0.0,0.0,0.0,0.0,0.0,0.0,0.0,0.0,0.0,0.0,0.0,0.0,0.0,0.0,0.0,0.0,0.0,0.0,0.0,0.0,0.0,0.0,0.0,0.0,0.0,0.0,0.0,0.0,0.0,0.0,0.0,0.0,0.0,0.0,0.0,0.0,0.0,0.0,0.0,0.0,0.0,0.0,0.0,0.0,0.0,0.0,0.0,0.0,0.0,0.0,0.0,0.0,0.0,0.0,0.0,0.0,0.0,0.0,0.0,0.0,0.0,0.0,0.0,0.0,0.0,0.0,0.0,0.0,0.0,0.0,0.0,0.0,0.0,0.0,0.0,0.0,0.0,0.0,0.0,0.0,0.0,0.0,0.0,0.0,0.0,0.0,0.0,0.0,0.0,0.0,0.0,0.0,0.0,0.0,0.0,0.0,0.0,0.0,0.0,0.0,0.0,0.0,0.0,0.0,0.0,0.0,0.0,0.0,0.0,0.0,0.0,0.0,0.0,0.0,0.0,0.0,0.0,0.0,0.0,0.0,0.0,0.0,0.0,0.0,0.0,0.0,0.0,0.0,0.0,0.0,0.0,0.0,0.0,0.0,0.0,0.0,0.0,0.0,0.0,0.0,0.0,0.0,0.0,0.0,0.0,0.0,0.0,0.0,0.0,0.0,0.0,0.0,0.0,0.0,0.0,0.0,0.0,0.0,0.0,0.0,0.0,0.0,0.0,0.0,0.0,0.0,0.0,0.0,0.0,0.0,0.0,0.0,0.0,0.0,0.0,0.0,0.0,0.0,0.0,0.0,0.0,0.0,0.0,0.0,0.0,0.0,0.0,0.0,0.0,0.0,0.0,0.0,0.0,0.0,0.0,0.0,0.0,0.0,0.0,0.0,0.0,0.0,0.0,0.0,0.0,0.0,0.0,0.0,0.0,0.0,0.0,0.0,0.0,0.0,0.0,0.0,0.0,0.0,0.0,0.0,0.0,0.0,0.0,0.0,0.0,0.0,0.0,0.0,0.0,0.0,0.0,0.0,0.0,0.0,0.0,0.0,0.0,0.0,0.0,0.0,0.0,0.0,0.0,0.0,0.0,0.0,0.0,0.0,0.0,0.0,0.0,0.0,0.0,0.0,0.0,0.0,0.0,0.0,0.0,0.0,0.0,0.0,0.0,0.0,0.0,0.0,0.0,0.0,0.0,0.0,0.0,0.0,0.0,0.0,0.0,0.0,0.0,0.0,0.0,0.0,0.0,0.0,0.0,0.0,0.0,0.0,0.0,0.0,0.0,0.0,0.0,0.0,0.0,0.0,0.0,0.0,0.0,0.0,0.0,0.0,0.0,0.0,0.0,0.0,0.0,0.0,0.0,0.0,0.0,0.0,0.0,0.0,0.0,0.0,0.0,0.0,0.0,0.0,0.0,0.0,0.0,0.0,0.0,0.0,0.0,0.0,0.0,0.0,0.0,0.0,0.0,0.0,0.0,0.0,0.0,0.0,0.0,0.0,0.0,0.0,0.0,0.0,0.0,0.0,0.0,0.0,0.0,0.0,0.0,0.0,0.0,0.0,0.0,0.0,0.0,0.0,0.0,0.0,0.0,0.0,0.0,0.0,0.0,0.0,0.0,0.0,0.0,0.0,0.0,0.0,0.0,0.0,0.0,0.0,0.0,0.0,0.0,0.0,0.0,0.0,0.0,0.0,0.0,0.0,0.0,0.0,0.0,0.0,0.0,0.0,0.0,0.0,0.0,0.0,0.0,0.0,0.0,0.0,0.0,0.0,0.0,0.0,0.0,0.0,0.0,0.0,0.0,0.0,0.0,0.0,0.0,0.0,0.0,0.0,0.0,0.0,0.0,0.0,0.0,0.0,0.0,0.0,0.0,0.0,0.0,0.0,0.0,0.0,0.0,0.0,0.0,0.0,0.0,0.0,0.0,0.0,0.0,0.0,0.0,0.0,0.0,0.0,0.0,0.0,0.0,0.0,0.0,0.0,0.0,0.0,0.0,0.0,0.0,0.0,0.0,0.0,0.0,0.0,0.0,0.0,0.0,0.0,0.0,0.0,0.0,0.0,0.0,0.0,0.0,0.0,0.0,0.0,0.0,0.0,0.0,0.0,0.0,0.0,0.0,0.0,0.0,0.0,0.0,0.0,0.0,0.0,0.0,0.0,0.0,0.0,0.0,0.0,0.0,0.0,0.0,0.0,0.0,0.0,0.0,0.0,0.0,0.0,0.0,0.0,0.0,0.0,0.0,0.0,0.0,0.0,0.0,0.0,0.0,0.0,0.0,0.0,0.0,0.0,0.0,0.0,0.0,0.0,0.0,0.0,0.0,0.0,0.0,0.0,0.0,0.0,0.0,0.0,0.0,0.0,0.0,0.0,0.0,0.0,0.0,0.0,0.0,0.0,0.0,0.0,0.0,0.0,0.0,0.0,0.0,0.0,0.0,0.0,0.0,0.0,0.0,0.0,0.0,0.0,0.0,0.0,0.0,0.0,0.0,0.0,0.0,0.0,0.0,0.0,0.0,0.0,0.0,0.0,0.0,0.0,0.0,0.0,0.0,0.0,0.0,0.0,0.0,0.0,0.0,0.0,0.0,0.0,0.0,0.0,0.0,0.0,0.0,0.0,0.0,0.0,0.0,0.0,0.0,0.0,0.0,0.0,0.0,0.0,0.0,0.0,0.0,0.0,0.0,0.0,0.0,0.0,0.0,0.0,0.0,0.0,0.0,0.0,0.0,0.0,0.0,0.0,0.0,0.0,0.0,0.0,0.0,0.0,0.0,0.0,0.0,0.0,0.0,0.0,0.0,0.0,0.0,0.0,0.0,0.0,0.0,0.0,0.0,0.0,0.0,0.0,0.0,0.0,0.0,0.0,0.0,0.0,0.0,0.0,0.0,0.0,0.0,0.0,0.0,0.0,0.0,0.0,0.0,0.0,0.0,0.0,0.0,0.0,0.0,0.0,0.0,0.0,0.0,0.0,0.0,0.0,0.0,0.0,0.0,0.0,0.0,0.0,0.0,0.0,0.0,0.0,0.0,0.0,0.0,0.0,0.0,0.0,0.0,0.0,0.0,0.0,0.0,0.0,0.0,0.0,0.0,0.0,0.0,0.0,0.0,0.0,0.0,0.0,0.0,0.0,0.0,0.0,0.0,0.0,0.0,0.0,0.0,0.0,0.0,0.0,0.0,0.0,0.0,0.0,0.0,0.0,0.0,0.0,0.0,0.0,0.0,0.0,0.0,0.0,0.0,0.0,0.0,0.0,0.0,0.0,0.0,0.0,0.0,0.0,0.0,0.0,0.0,0.0,0.0,0.0,0.0,0.0,0.0,0.0,0.0,0.0,0.0,0.0,0.0,0.0,0.0,0.0,0.0,0.0,0.0,0.0,0.0,0.0,0.0,0.0,0.0,0.0,0.0,0.0,0.0,0.0,0.0,0.0,0.0,0.0,0.0,0.0,0.0,0.0,0.0,0.0,0.0,0.0,0.0,0.0,0.0,0.0,0.0,0.0,0.0,0.0,0.0,0.0,0.0,0.0,0.0,0.0,0.0,0.0,0.0,0.0,0.0,0.0,0.0,0.0,0.0,0.0,0.0,0.0,0.0,0.0,0.0,0.0,0.0,0.0,0.0,0.0,0.0,0.0,0.0,0.0,0.0,0.0,0.0,0.0,0.0,0.0,0.0,0.0,0.0,0.0,0.0,0.0,0.0,0.0,0.0,0.0,0.0,0.0,0.0,0.0,0.0,0.0,0.0,0.0,0.0,0.0,0.0,0.0,0.0,0.0,0.0,0.0,0.0,0.0,0.0,0.0,0.0,0.0,0.0,0.0,0.0,0.0,0.0,0.0,0.0,0.0,0.0,0.0,0.0,0.0,0.0,0.0,0.0,0.0,0.0,0.0,0.0,0.0,0.0,2.0112,0.0,0.0,0.0,0.0,0.0,0.0,0.0,0.0,0.0,0.0,0.0,0.0,0.0,0.0,0.0,0.0,0.0,0.0,0.0,0.0,0.0,0.0,0.0,0.0,0.0,0.0,0.0,0.0,0.0,0.0,0.0,0.0,0.0,0.0,0.0,0.0,0.0,0.0,0.0,0.0,0.0,0.0,0.0,0.0,0.0,0.0,0.0,0.0,0.0,0.0,0.0,0.0,0.0,0.0,0.0,0.0,0.0,0.0,0.0,0.0,0.0,0.0,0.0,0.0,0.0,0.0,0.0,0.0,0.0,0.0,0.0,0.0,0.0,0.0,0.0,0.0,0.0,0.0,0.0,0.0,0.0,0.0,0.0,0.0,0.0,0.0,0.0,0.0,0.0,0.0,0.0,0.0,0.0,0.0,0.0,0.0,0.0,0.0,0.0,0.0,0.0,0.0,0.0,0.0,0.0,0.0,0.0,0.0,0.0,0.0,1.9707,1.9783,1.9729,1.9789,1.9981,0.0,0.0,0.0,0.0,0.0,0.0,0.0,0.0,0.0,0.0,0.0,0.0,0.0,0.0,0.0,0.0,0.0,0.0,0.0,0.0,0.0,0.0,0.0,0.0,0.0,0.0,0.0,0.0,0.0,0.0,0.0,0.0,0.0,0.0,0.0,0.0,0.0,0.0,0.0,0.0,0.0,0.0,0.0,0.0,0.0,0.0,0.0,0.0,0.0,0.0,0.0,0.0,0.0,0.0,0.0,0.0,0.0,0.0,0.0,0.0,0.0,0.0,0.0,0.0,0.0,0.0,0.0,0.0,0.0,0.0,0.0,0.0,0.0,0.0,0.0,0.0,0.0,0.0,0.0,0.0,0.0,0.0,0.0,0.0,0.0,0.0,0.0,0.0,0.0,0.0,0.0,0.0,0.0,0.0,0.0,0.0,0.0,0.0,0.0,0.0,0.0,0.0,0.0,0.0,0.0,0.0,0.0,0.0,0.0,0.0,0.0,0.0,2.0064,2.0089,2.0118,0.0,0.0,0.0,0.0,0.0,0.0,0.0,0.0,0.0,0.0,0.0,0.0,0.0,0.0,0.0,0.0,0.0,0.0,0.0,0.0,0.0,0.0,0.0,0.0,0.0,0.0,0.0,0.0,0.0,0.0,0.0,0.0,0.0,0.0,0.0,0.0,0.0,0.0,0.0,0.0,0.0,0.0,0.0,0.0,0.0,0.0,0.0,0.0,0.0,0.0,0.0,0.0,0.0,0.0,0.0,0.0,0.0,0.0,0.0,0.0,0.0,0.0,0.0,0.0,0.0,0.0,0.0,0.0,0.0,0.0,0.0,0.0,0.0,0.0,0.0,0.0,0.0,0.0,0.0,0.0,0.0,0.0,0.0,0.0,0.0,0.0,0.0,0.0,0.0,0.0,0.0,0.0,0.0,0.0,0.0,0.0,0.0,0.0,0.0,0.0,0.0,0.0,0.0,0.0,0.0,0.0,0.0,0.0,0.0,0.0,2.1801,2.1866,2.179,0.0,2.0823,0.0,0.0,0.0,0.0,0.0,0.0,0.0,0.0,0.0,0.0,0.0,0.0,0.0,0.0,0.0,0.0,0.0,0.0,0.0,0.0,0.0,0.0,0.0,0.0,0.0,0.0,0.0,0.0,0.0,0.0,0.0,0.0,0.0,0.0,0.0,0.0,0.0,0.0,0.0,0.0,0.0,0.0,0.0,0.0,0.0,0.0,0.0,0.0,0.0,0.0,0.0,0.0,0.0,0.0,0.0,0.0,0.0,0.0,0.0,0.0,0.0,0.0,0.0,0.0,0.0,0.0,0.0,0.0,0.0,0.0,0.0,0.0,0.0,0.0,0.0,0.0,0.0,0.0,0.0,0.0,0.0,0.0,0.0,0.0,0.0,0.0,0.0,0.0,0.0,0.0,0.0,0.0,0.0,0.0,0.0,0.0,0.0,0.0,0.0,0.0,0.0,0.0,0.0,0.0,0.0,0.0,0.0,0.0,0.0,0.0,2.1888,2.193,2.198,2.1875,0.0,0.0,0.0,0.0,0.0,0.0,0.0,0.0,0.0,0.0,0.0,0.0,0.0,0.0,0.0,0.0,0.0,0.0,0.0,0.0,0.0,0.0,0.0,0.0,0.0,0.0,0.0,0.0,0.0,0.0,0.0,0.0,0.0,0.0,0.0,0.0,0.0,0.0,0.0,0.0,0.0,0.0,0.0,0.0,0.0,0.0,0.0,0.0,0.0,0.0,0.0,0.0,0.0,0.0,0.0,0.0,0.0,0.0,0.0,0.0,0.0,0.0,0.0,0.0,0.0,0.0,0.0,0.0,0.0,0.0,0.0,0.0,0.0,0.0,0.0,0.0,0.0,0.0,0.0,0.0,0.0,0.0,0.0,0.0,0.0,0.0,0.0,0.0,0.0,0.0,0.0,0.0,0.0,0.0,0.0,0.0,0.0,0.0,0.0,0.0,0.0,0.0,0.0,0.0,0.0,0.0,0.0,0.0,0.0,0.0,2.2478,2.2473,2.2459,2.2328,2.2276,2.2276,0.0,0.0,0.0,0.0,0.0,0.0,0.0,0.0,0.0,0.0,0.0,0.0,0.0,0.0,0.0,0.0,0.0,0.0,0.0,0.0,0.0,0.0,0.0,0.0,0.0,0.0,0.0,0.0,0.0,0.0,0.0,0.0,0.0,0.0,0.0,0.0,0.0,0.0,0.0,0.0,0.0,0.0,0.0,0.0,0.0,0.0,0.0,0.0,0.0,0.0,0.0,0.0,0.0,0.0,0.0,0.0,0.0,0.0,0.0,0.0,0.0,0.0,0.0,0.0,0.0,0.0,0.0,0.0,0.0,0.0,0.0,0.0,0.0,0.0,0.0,0.0,0.0,0.0,0.0,0.0,0.0,0.0,0.0,0.0,0.0,0.0,0.0,0.0,0.0,0.0,0.0,0.0,0.0,0.0,0.0,0.0,0.0,0.0,0.0,0.0,0.0,0.0,0.0,0.0,0.0,0.0,0.0,0.0,2.4066,2.4066,2.4084,2.4025,2.3368,2.2965,0.0,0.0,0.0,0.0,0.0,0.0,0.0,0.0,0.0,0.0,0.0,0.0,0.0,0.0,0.0,0.0,0.0,0.0,0.0,0.0,0.0,0.0,0.0,0.0,0.0,0.0,0.0,0.0,0.0,0.0,0.0,0.0,0.0,0.0,0.0,0.0,0.0,0.0,0.0,0.0,0.0,0.0,0.0,0.0,0.0,0.0,0.0,0.0,0.0,0.0,0.0,0.0,0.0,0.0,0.0,0.0,0.0,0.0,0.0,0.0,0.0,0.0,0.0,0.0,0.0,0.0,0.0,0.0,0.0,0.0,0.0,0.0,0.0,0.0,0.0,0.0,0.0,0.0,0.0,0.0,0.0,0.0,0.0,0.0,0.0,0.0,0.0,0.0,0.0,0.0,0.0,0.0,0.0,0.0,0.0,0.0,0.0,0.0,0.0,0.0,0.0,0.0,0.0,0.0,0.0,0.0,0.0,0.0,0.0,2.4194,2.4194,2.4194,2.4176,2.3914,2.3786,0.0,0.0,0.0,0.0,0.0,0.0,0.0,0.0,0.0,0.0,0.0,0.0,0.0,0.0,0.0,0.0,0.0,0.0,0.0,0.0,0.0,0.0,0.0,0.0,0.0,0.0,0.0,0.0,0.0,0.0,0.0,0.0,0.0,0.0,0.0,0.0,0.0,0.0,0.0,0.0,0.0,0.0,0.0,0.0,0.0,0.0,0.0,0.0,0.0,0.0,0.0,0.0,0.0,0.0,0.0,0.0,0.0,0.0,0.0,0.0,0.0,0.0,0.0,0.0,0.0,0.0,0.0,0.0,0.0,0.0,0.0,0.0,0.0,0.0,0.0,0.0,0.0,0.0,0.0,0.0,0.0,0.0,0.0,0.0,0.0,0.0,0.0,0.0,0.0,0.0,0.0,0.0,0.0,0.0,0.0,0.0,0.0,0.0,0.0,0.0,0.0,0.0,0.0,0.0,0.0,0.0,0.0,0.0,0.0,2.4194,0.0,2.4194,2.4194,2.4194,2.4194,0.0,0.0,0.0,0.0,0.0,0.0,0.0,0.0,0.0,0.0,0.0,0.0,0.0,0.0,0.0,0.0,0.0,0.0,0.0,0.0,0.0,0.0,0.0,0.0,0.0,0.0,0.0,0.0,0.0,0.0,0.0,0.0,0.0,0.0,0.0,0.0,0.0,0.0,0.0,0.0,0.0,0.0,0.0,0.0,0.0,0.0,0.0,0.0,0.0,0.0,0.0,0.0,0.0,0.0,0.0,0.0,0.0,0.0,0.0,0.0,0.0,0.0,0.0,0.0,0.0,0.0,0.0,0.0,0.0,0.0,0.0,0.0,0.0,0.0,0.0,0.0,0.0,0.0,0.0,0.0,0.0,0.0,0.0,0.0,0.0,0.0,0.0,0.0,0.0,0.0,0.0,0.0,0.0,0.0,0.0,0.0,0.0,0.0,0.0,0.0,0.0,0.0,0.0,0.0,0.0,0.0,0.0,0.0,2.4203,2.4194,2.4194,2.4194,2.4194,2.4194,2.4194,0.0,0.0,0.0,0.0,0.0,0.0,0.0,0.0,0.0,0.0,0.0,0.0,0.0,0.0,0.0,0.0,0.0,0.0,0.0,0.0,0.0,0.0,0.0,0.0,0.0,0.0,0.0,0.0,0.0,0.0,0.0,0.0,0.0,0.0,0.0,0.0,0.0,0.0,0.0,0.0,0.0,0.0,0.0,0.0,0.0,0.0,0.0,0.0,0.0,0.0,0.0,0.0,0.0,0.0,0.0,0.0,0.0,0.0,0.0,0.0,0.0,0.0,0.0,0.0,0.0,0.0,0.0,0.0,0.0,0.0,0.0,0.0,0.0,0.0,0.0,0.0,0.0,0.0,0.0,0.0,0.0,0.0,0.0,0.0,0.0,0.0,0.0,0.0,0.0,0.0,0.0,0.0,0.0,0.0,0.0,0.0,0.0,0.0,0.0,0.0,0.0,0.0,0.0,0.0,0.0,0.0,0.0,0.0,0.0,2.4208,2.4194,2.4194,2.4194,2.4194,2.4194,0.0,0.0,0.0,0.0,0.0,0.0,0.0,0.0,0.0,0.0,0.0,0.0,0.0,0.0,0.0,0.0,0.0,0.0,0.0,0.0,0.0,0.0,0.0,0.0,0.0,0.0,0.0,0.0,0.0,0.0,0.0,0.0,0.0,0.0,0.0,0.0,0.0,0.0,0.0,0.0,0.0,0.0,0.0,0.0,0.0,0.0,0.0,0.0,0.0,0.0,0.0,0.0,0.0,0.0,0.0,0.0,0.0,0.0,0.0,0.0,0.0,0.0,0.0,0.0,0.0,0.0,0.0,0.0,0.0,0.0,0.0,0.0,0.0,0.0,0.0,0.0,0.0,0.0,0.0,0.0,0.0,0.0,0.0,0.0,0.0,0.0,0.0,0.0,0.0,0.0,0.0,0.0,0.0,0.0,0.0,0.0,0.0,0.0,0.0,0.0,0.0,0.0,0.0,0.0,0.0,0.0,0.0,0.0,0.0,2.4773,2.4749,2.4797,2.49,2.4618,2.4523,2.4635,0.0,0.0,0.0,0.0,0.0,0.0,0.0,0.0,0.0,0.0,0.0,0.0,0.0,0.0,0.0,0.0,0.0,0.0,0.0,0.0,0.0,0.0,0.0,0.0,0.0,0.0,0.0,0.0,0.0,0.0,0.0,0.0,0.0,0.0,0.0,0.0,0.0,0.0,0.0,0.0,0.0,0.0,0.0,0.0,0.0,0.0,0.0,0.0,0.0,0.0,0.0,0.0,0.0,0.0,0.0,0.0,0.0,0.0,0.0,0.0,0.0,0.0,0.0,0.0,0.0,0.0,0.0,0.0,0.0,0.0,0.0,0.0,0.0,0.0,0.0,0.0,0.0,0.0,0.0,0.0,0.0,0.0,0.0,0.0,0.0,0.0,0.0,0.0,0.0,0.0,0.0,0.0,0.0,0.0,0.0,0.0,0.0,0.0,0.0,0.0,0.0,0.0,0.0,0.0,0.0,0.0,0.0,0.0,2.5885,2.5825,2.5886,2.6032,2.5333,2.5116,0.0,0.0,0.0,0.0,0.0,0.0,0.0,0.0,0.0,0.0,0.0,0.0,0.0,0.0,0.0,0.0,0.0,0.0,0.0,0.0,0.0,0.0,0.0,0.0,0.0,0.0,0.0,0.0,0.0,0.0,0.0,0.0,0.0,0.0,0.0,0.0,0.0,0.0,0.0,0.0,0.0,0.0,0.0,0.0,0.0,0.0,0.0,0.0,0.0,0.0,0.0,0.0,0.0,0.0,0.0,0.0,0.0,0.0,0.0,0.0,0.0,0.0,0.0,0.0,0.0,0.0,0.0,0.0,0.0,0.0,0.0,0.0,0.0,0.0,0.0,0.0,0.0,0.0,0.0,0.0,0.0,0.0,0.0,0.0,0.0,0.0,0.0,0.0,0.0,0.0,0.0,0.0,0.0,0.0,0.0,0.0,0.0,0.0,0.0,0.0,0.0,0.0,0.0,0.0,0.0,0.0,0.0,0.0,0.0,2.7912,2.7461,2.6722,2.5856,2.5841,2.589,0.0,0.0,0.0,0.0,0.0,0.0,0.0,0.0,0.0,0.0,0.0,0.0,0.0,0.0,0.0,0.0,0.0,0.0,0.0,0.0,0.0,0.0,0.0,0.0,0.0,0.0,0.0,0.0,0.0,0.0,0.0,0.0,0.0,0.0,0.0,0.0,0.0,0.0,0.0,0.0,0.0,0.0,0.0,0.0,0.0,0.0,0.0,0.0,0.0,0.0,0.0,0.0,0.0,0.0,0.0,0.0,0.0,0.0,0.0,0.0,0.0,0.0,0.0,0.0,0.0,0.0,0.0,0.0,0.0,0.0,0.0,0.0,0.0,0.0,0.0,0.0,0.0,0.0,0.0,0.0,0.0,0.0,0.0,0.0,0.0,0.0,0.0,0.0,0.0,0.0,0.0,0.0,0.0,0.0,0.0,0.0,0.0,0.0,0.0,0.0,0.0,0.0,0.0,0.0,0.0,0.0,0.0,0.0,2.7395,2.8144,2.7743,2.7155,2.6388,2.6904,2.7109,0.0,0.0,0.0,0.0,0.0,0.0,0.0,0.0,0.0,0.0,0.0,0.0,0.0,0.0,0.0,0.0,0.0,0.0,0.0,0.0,0.0,0.0,0.0,0.0,0.0,0.0,0.0,0.0,0.0,0.0,0.0,0.0,0.0,0.0,0.0,0.0,0.0,0.0,0.0,0.0,0.0,0.0,0.0,0.0,0.0,0.0,0.0,0.0,0.0,0.0,0.0,0.0,0.0,0.0,0.0,0.0,0.0,0.0,0.0,0.0,0.0,0.0,0.0,0.0,0.0,0.0,0.0,0.0,0.0,0.0,0.0,0.0,0.0,0.0,0.0,0.0,0.0,0.0,0.0,0.0,0.0,0.0,0.0,0.0,0.0,0.0,0.0,0.0,0.0,0.0,0.0,0.0,0.0,0.0,0.0,0.0,0.0,0.0,0.0,0.0,0.0,0.0,0.0,0.0,0.0,0.0,0.0,0.0,2.7584,2.7435,2.7356,2.7345,2.7376,2.8117,2.8324,0.0,0.0,0.0,0.0,0.0,0.0,0.0,0.0,0.0,0.0,0.0,0.0,0.0,0.0,0.0,0.0,0.0,0.0,0.0,0.0,0.0,0.0,0.0,0.0,0.0,0.0,0.0,0.0,0.0,0.0,0.0,0.0,0.0,0.0,0.0,0.0,0.0,0.0,0.0,0.0,0.0,0.0,0.0,0.0,0.0,0.0,0.0,0.0,0.0,0.0,0.0,0.0,0.0,0.0,0.0,0.0,0.0,0.0,0.0,0.0,0.0,0.0,0.0,0.0,0.0,0.0,0.0,0.0,0.0,0.0,0.0,0.0,0.0,0.0,0.0,0.0,0.0,0.0,0.0,0.0,0.0,0.0,0.0,0.0,0.0,0.0,0.0,0.0,0.0,0.0,0.0,0.0,0.0,0.0,0.0,0.0,0.0,0.0,0.0,0.0,0.0,0.0,0.0,0.0,0.0,0.0,0.0,0.0,2.7629,2.8152,2.7799,2.7622,2.7605,2.7996,2.8159,0.0,0.0,0.0,0.0,0.0,0.0,0.0,0.0,0.0,0.0,0.0,0.0,0.0,0.0,0.0,0.0,0.0,0.0,0.0,0.0,0.0,0.0,0.0,0.0,0.0,0.0,0.0,0.0,0.0,0.0,0.0,0.0,0.0,0.0,0.0,0.0,0.0,0.0,0.0,0.0,0.0,0.0,0.0,0.0,0.0,0.0,0.0,0.0,2.6651,0.0,0.0,0.0,0.0,0.0,0.0,0.0,0.0,0.0,0.0,0.0,0.0,0.0,0.0,0.0,0.0,0.0,0.0,0.0,0.0,0.0,0.0,0.0,0.0,0.0,0.0,0.0,0.0,0.0,0.0,0.0,0.0,0.0,0.0,0.0,0.0,0.0,0.0,0.0,0.0,0.0,0.0,0.0,0.0,0.0,0.0,0.0,0.0,0.0,0.0,0.0,0.0,0.0,0.0,0.0,0.0,0.0,0.0,0.0,2.7497,2.7859,2.7652,2.7511,2.7526,2.7771,2.8034,0.0,0.0,0.0,0.0,0.0,0.0,0.0,0.0,0.0,0.0,0.0,0.0,0.0,0.0,0.0,0.0,0.0,0.0,0.0,0.0,0.0,0.0,0.0,0.0,0.0,0.0,0.0,0.0,0.0,0.0,0.0,0.0,0.0,0.0,0.0,0.0,0.0,0.0,0.0,0.0,0.0,0.0,0.0,0.0,0.0,0.0,0.0,0.0,0.0,0.0,0.0,0.0,0.0,0.0,0.0,0.0,0.0,0.0,0.0,0.0,0.0,0.0,0.0,0.0,0.0,0.0,0.0,0.0,0.0,0.0,0.0,0.0,0.0,0.0,0.0,0.0,0.0,0.0,0.0,0.0,0.0,0.0,0.0,0.0,0.0,0.0,0.0,0.0,0.0,0.0,0.0,0.0,0.0,0.0,0.0,0.0,0.0,0.0,0.0,0.0,0.0,0.0,0.0,0.0,0.0,0.0,0.0,2.7307,2.7307,2.7307,2.7307,2.7307,2.7315,2.7509,2.7886,2.8442,0.0,0.0,0.0,0.0,0.0,0.0,0.0,0.0,0.0,0.0,0.0,0.0,0.0,0.0,0.0,0.0,0.0,0.0,0.0,0.0,0.0,0.0,0.0,0.0,0.0,0.0,0.0,0.0,0.0,0.0,0.0,0.0,0.0,0.0,0.0,0.0,0.0,0.0,2.4375,2.5254,0.0,0.0,0.0,0.0,0.0,0.0,0.0,0.0,2.8913,0.0,0.0,0.0,0.0,0.0,0.0,0.0,0.0,0.0,0.0,0.0,0.0,0.0,0.0,0.0,0.0,0.0,0.0,0.0,0.0,0.0,0.0,0.0,0.0,0.0,0.0,0.0,0.0,0.0,0.0,0.0,0.0,0.0,0.0,0.0,0.0,0.0,0.0,0.0,0.0,0.0,0.0,0.0,0.0,0.0,0.0,0.0,0.0,0.0,0.0,0.0,0.0,0.0,0.0,0.0,0.0,2.7307,2.7307,2.7307,2.7307,2.7307,2.7307,2.7307,2.7345,2.7519,2.7836,0.0,0.0,0.0,0.0,0.0,0.0,0.0,0.0,0.0,0.0,0.0,0.0,0.0,0.0,0.0,0.0,0.0,0.0,0.0,0.0,0.0,0.0,0.0,0.0,0.0,0.0,0.0,0.0,0.0,0.0,0.0,0.0,0.0,0.0,0.0,0.0,0.0,0.0,0.0,2.5741,2.6447,0.0,0.0,0.0,0.0,0.0,0.0,0.0,0.0,2.9309,0.0,0.0,0.0,0.0,0.0,0.0,0.0,0.0,0.0,0.0,0.0,0.0,0.0,0.0,0.0,0.0,0.0,0.0,0.0,0.0,0.0,0.0,0.0,0.0,0.0,0.0,0.0,0.0,0.0,0.0,0.0,0.0,0.0,0.0,0.0,0.0,0.0,0.0,0.0,0.0,0.0,0.0,0.0,0.0,0.0,0.0,0.0,0.0,0.0,0.0,0.0,0.0,0.0,0.0,0.0,2.7307,2.7307,2.7307,2.7307,2.7307,2.7307,2.7324,2.7661,2.7828,0.0,0.0,0.0,0.0,0.0,0.0,0.0,0.0,0.0,0.0,0.0,0.0,0.0,0.0,0.0,0.0,0.0,0.0,0.0,0.0,0.0,0.0,0.0,0.0,0.0,0.0,0.0,0.0,0.0,0.0,0.0,0.0,0.0,0.0,0.0,0.0,0.0,0.0,0.0,0.0,2.6339,2.6873,2.6925,0.0,0.0,0.0,0.0,0.0,0.0,2.9383,2.9383,0.0,0.0,0.0,0.0,0.0,0.0,0.0,0.0,0.0,0.0,0.0,0.0,0.0,0.0,0.0,0.0,0.0,0.0,0.0,0.0,0.0,0.0,0.0,0.0,0.0,0.0,0.0,0.0,0.0,0.0,0.0,0.0,0.0,0.0,0.0,0.0,0.0,0.0,0.0,0.0,0.0,0.0,0.0,0.0,0.0,0.0,0.0,0.0,0.0,0.0,0.0,0.0,0.0,0.0,0.0,2.7307,2.7445,2.7437,2.7307,2.7307,2.7307,2.7324,2.7868,2.7996,0.0,0.0,0.0,0.0,0.0,0.0,0.0,0.0,0.0,0.0,0.0,0.0,0.0,0.0,0.0,0.0,0.0,0.0,0.0,0.0,0.0,0.0,0.0,0.0,0.0,0.0,0.0,0.0,0.0,0.0,0.0,0.0,0.0,0.0,0.0,0.0,0.0,0.0,0.0,0.0,0.0,2.7687,2.8047,2.9107,0.0,0.0,0.0,0.0,2.9532,2.955,0.0,0.0,0.0,0.0,0.0,0.0,0.0,0.0,0.0,0.0,0.0,0.0,0.0,0.0,0.0,0.0,0.0,0.0,0.0,0.0,0.0,0.0,0.0,0.0,0.0,0.0,0.0,0.0,0.0,0.0,0.0,0.0,0.0,0.0,0.0,0.0,0.0,0.0,0.0,0.0,0.0,0.0,0.0,0.0,0.0,0.0,0.0,0.0,0.0,0.0,0.0,0.0,0.0,0.0,0.0,0.0,2.7351,2.7945,2.7971,2.7341,2.7307,2.7307,2.7307,2.7376,2.7384,0.0,0.0,0.0,0.0,0.0,0.0,0.0,0.0,0.0,0.0,0.0,0.0,0.0,0.0,0.0,0.0,0.0,0.0,0.0,0.0,0.0,0.0,0.0,0.0,0.0,0.0,0.0,0.0,0.0,0.0,0.0,0.0,0.0,0.0,0.0,0.0,0.0,0.0,0.0,0.0,0.0,2.9561,2.819,3.0023,3.1013,0.0,0.0,3.0307,2.9532,2.9991,0.0,0.0,0.0,0.0,0.0,0.0,0.0,0.0,0.0,0.0,0.0,0.0,0.0,0.0,0.0,0.0,0.0,0.0,0.0,0.0,0.0,0.0,0.0,0.0,0.0,0.0,0.0,0.0,0.0,0.0,0.0,0.0,0.0,0.0,0.0,0.0,0.0,0.0,0.0,0.0,0.0,0.0,0.0,0.0,0.0,0.0,0.0,0.0,0.0,0.0,0.0,0.0,0.0,0.0,0.0,2.7617,2.7324,2.7617,2.7609,2.7324,2.7307,2.7337,2.7405,2.8261,2.8313,0.0,0.0,0.0,0.0,0.0,0.0,0.0,0.0,0.0,0.0,0.0,0.0,0.0,0.0,0.0,0.0,0.0,0.0,0.0,0.0,0.0,0.0,0.0,0.0,0.0,0.0,0.0,0.0,0.0,0.0,0.0,0.0,0.0,0.0,0.0,0.0,0.0,0.0,0.0,0.0,0.0,0.0,2.8825,2.9734,0.0,0.0,0.0,3.0331,2.9532,0.0,0.0,0.0,0.0,0.0,0.0,0.0,0.0,0.0,0.0,0.0,0.0,0.0,0.0,0.0,0.0,0.0,0.0,0.0,0.0,0.0,0.0,0.0,0.0,0.0,0.0,0.0,0.0,0.0,0.0,0.0,0.0,0.0,0.0,0.0,0.0,0.0,0.0,0.0,0.0,0.0,0.0,0.0,0.0,0.0,0.0,0.0,0.0,0.0,0.0,0.0,0.0,0.0,0.0,0.0,0.0,0.0,2.7307,2.7479,2.7471,2.7307,2.7307,2.7345,2.7469,2.8792,0.0,0.0,0.0,0.0,0.0,0.0,0.0,0.0,0.0,0.0,0.0,0.0,0.0,0.0,0.0,0.0,0.0,0.0,0.0,0.0,0.0,0.0,0.0,0.0,0.0,0.0,0.0,2.6607,0.0,0.0,0.0,0.0,0.0,0.0,0.0,0.0,0.0,0.0,0.0,0.0,0.0,0.0,2.8876,2.9588,2.9874,2.9941,0.0,0.0,3.0326,2.9532,2.9564,2.9773,0.0,0.0,0.0,0.0,0.0,0.0,0.0,0.0,0.0,0.0,0.0,0.0,0.0,0.0,0.0,0.0,0.0,0.0,0.0,0.0,0.0,0.0,0.0,0.0,0.0,0.0,0.0,0.0,0.0,0.0,0.0,0.0,0.0,0.0,0.0,0.0,0.0,0.0,0.0,0.0,0.0,0.0,0.0,0.0,0.0,0.0,0.0,0.0,0.0,0.0,0.0,0.0,0.0,0.0,0.0,2.7359,2.798,2.798,2.7341,2.7307,2.7315,2.734,2.8266,2.8388,0.0,0.0,0.0,0.0,0.0,0.0,0.0,0.0,0.0,0.0,0.0,0.0,0.0,0.0,0.0,0.0,0.0,0.0,0.0,0.0,0.0,0.0,0.0,0.0,0.0,0.0,0.0,0.0,0.0,0.0,0.0,0.0,0.0,0.0,0.0,0.0,0.0,0.0,0.0,0.0,0.0,3.0352,3.0419,3.1123,3.1366,0.0,0.0,3.0326,2.9527,3.0034,3.0772,3.1515,0.0,0.0,0.0,0.0,0.0,0.0,0.0,0.0,0.0,0.0,0.0,0.0,0.0,0.0,0.0,0.0,0.0,0.0,0.0,0.0,0.0,0.0,0.0,0.0,0.0,0.0,0.0,0.0,0.0,0.0,0.0,0.0,0.0,0.0,0.0,0.0,0.0,0.0,0.0,0.0,0.0,0.0,0.0,0.0,0.0,0.0,0.0,0.0,0.0,0.0,0.0,0.0,0.0,2.7575,2.7307,2.7643,2.7691,2.7446,2.7503,2.7592,2.7739,2.8511,2.8798,0.0,0.0,0.0,0.0,0.0,0.0,0.0,0.0,0.0,0.0,0.0,0.0,0.0,0.0,0.0,0.0,0.0,0.0,0.0,0.0,0.0,0.0,0.0,0.0,0.0,0.0,0.0,0.0,2.8093,2.8093,2.8088,0.0,0.0,0.0,0.0,0.0,0.0,0.0,0.0,0.0,0.0,2.9948,3.0492,3.0426,0.0,0.0,2.9866,2.9755,2.9439,3.0498,3.1459,3.1756,3.2865,0.0,0.0,0.0,0.0,0.0,0.0,0.0,0.0,0.0,0.0,0.0,0.0,0.0,0.0,0.0,0.0,0.0,0.0,0.0,0.0,0.0,0.0,0.0,0.0,0.0,0.0,0.0,0.0,0.0,0.0,0.0,0.0,0.0,0.0,0.0,0.0,0.0,0.0,0.0,0.0,0.0,0.0,0.0,0.0,0.0,0.0,0.0,0.0,0.0,0.0,0.0,0.0,2.7305,2.7353,2.746,2.7526,2.7554,2.7649,2.7767,2.7929,2.8682,2.9121,0.0,0.0,0.0,0.0,0.0,0.0,0.0,0.0,0.0,0.0,0.0,0.0,0.0,0.0,0.0,0.0,0.0,0.0,0.0,0.0,0.0,0.0,0.0,0.0,0.0,0.0,0.0,0.0,2.8987,2.9103,2.9346,0.0,0.0,0.0,0.0,0.0,0.0,0.0,0.0,0.0,0.0,3.0351,3.1188,3.0851,3.0567,3.0814,3.1074,3.1125,3.0883,3.1998,3.2908,3.2908,0.0,0.0,0.0,0.0,0.0,0.0,0.0,0.0,0.0,0.0,0.0,0.0,0.0,0.0,0.0,0.0,0.0,0.0,0.0,0.0,0.0,0.0,0.0,0.0,0.0,0.0,0.0,0.0,0.0,0.0,2.6869,0.0,0.0,0.0,0.0,0.0,0.0,0.0,0.0,0.0,0.0,0.0,0.0,0.0,0.0,0.0,0.0,0.0,0.0,0.0,0.0,0.0,0.0,2.7376,2.7496,2.7511,2.7587,2.7694,2.7708,2.7716,2.7748,2.8613,2.9094,2.9111,0.0,0.0,0.0,0.0,0.0,0.0,0.0,0.0,0.0,0.0,0.0,0.0,0.0,0.0,0.0,0.0,0.0,0.0,0.0,0.0,0.0,0.0,0.0,0.0,0.0,0.0,2.9023,2.9018,2.9383,0.0,0.0,0.0,0.0,0.0,0.0,0.0,0.0,0.0,0.0,3.1273,3.2035,3.281,3.2921,3.3088,3.3881,3.4729,3.5021,3.411,3.4798,3.5411,0.0,0.0,0.0,0.0,0.0,0.0,0.0,0.0,0.0,0.0,0.0,0.0,0.0,0.0,0.0,0.0,0.0,0.0,0.0,0.0,0.0,0.0,0.0,0.0,0.0,0.0,0.0,2.8782,2.924,0.0,0.0,0.0,0.0,0.0,0.0,0.0,0.0,0.0,0.0,0.0,3.0128,3.0741,0.0,0.0,0.0,0.0,0.0,0.0,0.0,0.0,0.0,0.0,0.0,0.0,2.7592,2.7627,2.7755,2.7853,2.7904,2.7989,2.8032,2.8014,2.834,2.8749,2.929,0.0,0.0,0.0,0.0,0.0,0.0,0.0,0.0,0.0,0.0,0.0,0.0,0.0,0.0,0.0,0.0,0.0,0.0,0.0,0.0,0.0,0.0,0.0,0.0,0.0,2.9231,0.0,0.0,0.0,0.0,0.0,0.0,0.0,0.0,0.0,0.0,0.0,3.1848,3.2154,3.1955,3.229,3.3627,3.333,3.3299,0.0,0.0,0.0,0.0,0.0,0.0,0.0,0.0,0.0,0.0,0.0,0.0,0.0,0.0,3.5343,3.7492,3.8116,3.8383,3.8637,0.0,0.0,0.0,0.0,0.0,0.0,0.0,0.0,0.0,0.0,0.0,0.0,0.0,0.0,3.0605,0.0,3.0563,0.0,0.0,0.0,0.0,0.0,0.0,0.0,0.0,3.1087,3.1156,3.1105,3.1686,3.1669,0.0,3.0788,3.0321,0.0,0.0,0.0,0.0,0.0,0.0,0.0,0.0,2.7738,2.7814,2.794,2.8011,2.8053,2.8154,2.8189,2.8206,2.8463,2.8862,2.9387,3.018,3.0722,0.0,0.0,0.0,0.0,0.0,0.0,0.0,0.0,0.0,0.0,0.0,0.0,0.0,0.0,0.0,0.0,0.0,0.0,0.0,0.0,0.0,0.0,0.0,3.0074,0.0,0.0,0.0,0.0,0.0,0.0,0.0,0.0,0.0,3.2257,3.2411,3.2694,3.2958,3.3057,3.346,3.45,0.0,0.0,0.0,0.0,0.0,0.0,0.0,3.7882,3.7584,3.7931,3.8365,3.8618,3.7819,3.7566,3.8941,0.0,0.0,3.8209,3.8488,3.8692,3.8692,3.7845,3.7468,3.8544,3.7477,3.6658,0.0,0.0,0.0,0.0,0.0,0.0,0.0,0.0,3.1243,3.1172,0.0,3.1174,0.0,0.0,0.0,0.0,0.0,3.2138,0.0,0.0,3.2446,3.2864,3.2864,3.2864,3.2882,3.2846,3.2081,3.1647,3.1495,3.0629,0.0,0.0,0.0,0.0,0.0,0.0,2.7874,2.8113,2.8128,2.8159,2.8296,2.8285,2.8296,2.832,2.9041,2.9451,2.9519,3.0431,3.0931,3.0945,3.0236,0.0,0.0,0.0,0.0,0.0,0.0,0.0,0.0,0.0,0.0,0.0,0.0,0.0,0.0,0.0,0.0,0.0,0.0,0.0,0.0,3.1053,0.0,0.0,0.0,0.0,0.0,0.0,0.0,0.0,0.0,0.0,3.32,3.3666,3.387,3.325,0.0,0.0,0.0,0.0,3.7882,3.7894,3.9294,4.0018,3.9212,3.9814,4.0093,3.9312,0.0,0.0,3.7926,3.8056,3.8824,4.1147,4.1441,4.0609,3.7555,3.7734,3.8181,3.8187,3.8213,3.809,3.8121,3.7418,3.6344,3.184,0.0,0.0,0.0,0.0,3.1846,3.1805,3.161,3.2167,3.2381,3.232,3.2388,0.0,0.0,0.0,0.0,0.0,0.0,3.2416,3.2525,3.2196,3.2347,3.289,3.2908,3.2908,3.289,3.2668,3.2537,3.248,3.2226,3.1641,3.0751,0.0,0.0,0.0,0.0,2.9723,2.9767,2.9785,2.9789,2.9843,2.9843,2.9843,2.9843,3.0058,3.045,3.1018,3.1318,3.157,3.1744,3.1692,0.0,0.0,0.0,0.0,0.0,0.0,0.0,0.0,0.0,0.0,0.0,0.0,0.0,0.0,0.0,0.0,0.0,0.0,0.0,3.1091,3.1845,3.2366,0.0,0.0,0.0,0.0,0.0,0.0,0.0,0.0,0.0,3.4742,3.4426,3.455,0.0,0.0,3.6117,3.7819,3.7975,3.8105,3.8681,3.9157,0.0,3.9981,4.0241,4.052,4.0836,4.0501,4.0314,4.0626,4.067,4.0935,4.1771,4.1885,4.1548,4.0762,4.0558,4.0699,4.0792,4.0825,4.0838,4.0821,4.0477,4.0171,3.4422,3.4132,3.3285,3.3045,3.3257,3.3418,3.3455,3.3396,3.3882,3.4044,3.3982,3.4059,3.3988,3.382,3.3794,0.0,0.0,0.0,3.3563,3.3946,3.3351,3.3348,3.3794,3.382,3.382,3.3794,3.3517,3.3374,3.3374,3.3061,3.261,3.2034,0.0,0.0,3.1207,3.0761,3.0478,3.0478,3.0478,3.0478,3.0478,3.0478,3.0478,3.0478,3.0478,3.0718,3.1207,3.1634,3.1941,3.2094,3.2208,3.2115,0.0,0.0,0.0,0.0,0.0,0.0,0.0,0.0,0.0,0.0,0.0,3.0613,0.0,0.0,0.0,0.0,3.1814,3.2121,3.2434,3.2939,0.0,0.0,0.0,0.0,0.0,0.0,0.0,3.4606,3.4699,3.5021,3.5844,3.5522,3.5559,3.6563,3.6563,3.6971,3.8414,0.0,3.9071,3.9554,3.9881,4.0271,4.078,4.0873,4.104,4.1523,4.1597,4.1786,4.2216,4.2289,4.245,4.2847,4.3001,4.3014,4.3055,4.3021,4.2704,4.2137,4.1993,4.2013,4.2058,4.209,4.2083,3.6821,3.6431,3.4439,3.4385,3.5528,3.4842,3.5056,3.5901,3.5901,3.5805,3.5652,3.581,3.5672,3.5229,3.5229,0.0,3.556,3.5314,3.5321,3.556,3.5314,3.5195,3.5195,3.5177,3.5195,3.5177,3.4517,3.4178,3.4151,3.3445,3.3096,3.3061,3.2339,3.1546,3.0753,3.07,3.0682,3.07,3.07,3.0674,3.07,3.0689,3.0682,3.0718,3.07,3.0707,3.0725,3.1635,3.217,3.2177,3.2184,3.2191,3.2188,0.0,0.0,0.0,0.0,0.0,0.0,0.0,0.0,0.0,0.0,0.0,0.0,0.0,0.0,0.0,3.2544,0.0,3.4019,3.4099,0.0,0.0,0.0,3.4117,3.4222,3.4278,3.463,3.5491,0.0,0.0,3.6693,3.6841,3.6916,3.699,3.7584,3.8042,3.8172,3.9554,4.0483,4.0483,4.1107,4.159,4.1672,4.1798,4.1939,4.1991,4.1839,4.2235,4.2969,4.3154,4.3533,4.4291,4.4505,4.4527,4.468,4.4586,4.4214,4.2716,4.2377,4.2334,4.2498,4.2561,4.2629,4.0152,4.0037,3.9531,3.7989,3.5897,3.5697,3.5745,3.5972,3.5972,3.595,3.5923,3.5957,3.5805,3.5513,3.5503,3.5439,3.5288,3.5221,3.5229,3.5288,3.5229,3.5195,3.5195,3.5195,3.5195,3.5195,3.5017,3.4945,3.4927,3.4749,3.4642,3.4642,3.4446,3.3695,3.2374,3.2329,3.2339,3.2329,3.2321,3.2321,3.2347,3.2321,3.2321,3.2339,3.2347,3.2339,3.2321,3.257,3.2786,3.2942,3.2931,3.3012,3.3229,3.2857,0.0,0.0,0.0,0.0,0.0,0.0,0.0,0.0,0.0,3.2391,3.2397,0.0,3.3363,0.0,3.3734,3.3932,3.4036,3.4055,0.0,0.0,3.4099,3.4383,3.5089,3.5182,3.5504,3.6321,3.6414,3.6711,3.7529,3.8142,3.8773,3.9405,3.9108,3.9275,4.0494,4.1021,4.1319,4.1319,4.1497,4.182,4.2433,4.3171,4.3654,4.3788,4.3802,4.3933,4.4247,4.4311,4.4433,4.4732,4.4796,4.4815,4.4896,4.4846,4.5004,4.506,4.4676,4.4209,4.4259,4.4259,4.4461,4.1434,4.1691,4.1479,4.033,3.8641,3.8438,3.8303,3.8208,3.8227,3.818,3.813,3.8031,3.7947,3.7904,3.7644,3.7584,3.7679,3.7426,3.7345,3.7461,3.7345,3.73,3.73,3.73,3.73,3.7282,3.6961,3.6604,3.6256,3.5909,3.5534,3.5195,3.5195,3.4775,3.3963,3.3927,3.3937,3.3919,3.3927,3.3766,3.3463,3.3437,3.3267,3.29,3.2908,3.2908,3.2908,3.2977,3.3047,3.306,3.3152,3.3265,3.3415,3.328,3.3419,0.0,0.0,0.0,0.0,0.0,0.0,0.0,0.0,0.0,0.0,0.0,3.3863,3.3549,3.3289,3.3233,3.3482,3.3574,3.3907,3.4649,3.4723,3.5057,3.595,3.6042,3.634,3.7139,3.7231,3.7671,3.8848,3.9387,4.0,4.0817,4.0836,4.094,4.1486,4.1887,4.2129,4.2136,4.2426,4.2797,4.328,4.4177,4.4853,4.4945,4.5324,4.5653,4.5779,4.5813,4.5852,4.5982,4.6013,4.6013,4.6013,4.6013,4.6203,4.6487,4.6354,4.6032,4.6013,4.6,4.6203,4.2343,4.2819,4.2417,4.241,4.2658,4.2257,4.173,4.1127,4.1119,4.1045,4.087,4.0694,4.0676,4.0753,4.0311,4.0348,4.072,4.0284,4.0191,4.0366,4.0145,4.0059,4.0032,3.9973,3.9962,3.9927,3.9263,3.8594,3.7889,3.7184,3.6488,3.5837,3.5811,3.5801,3.5801,3.5793,3.5605,3.5195,3.5195,3.4892,3.4267,3.4232,3.3865,3.3114,3.3061,3.3061,3.3061,3.3124,3.3145,3.3096,3.3178,3.322,3.325,3.3257,3.3448,0.0,3.3901,0.0,0.0,0.0,0.0,0.0,0.0,0.0,0.0,3.3944,3.3679,3.3013,3.2535,3.2588,3.3327,3.3443,3.4055,3.5454,3.5652,3.5974,3.6723,3.686,3.7213,3.8098,3.8216,3.8848,4.0278,4.0613,4.1003,4.1672,4.2378,4.2593,4.2147,4.2537,4.2965,4.2946,4.3656,4.4149,4.4318,4.5081,4.575,4.5854,4.6395,4.7078,4.7116,4.7155,4.7201,4.7295,4.7283,4.7321,4.7397,4.734,4.7403,4.7517,4.7517,4.746,4.7327,4.7251,4.7434,4.6308,4.643,4.6321,4.6321,4.636,4.6294,4.4537,4.1827,4.1802,4.1642,4.1393,4.1599,4.1288,4.07,4.1091,4.1021,4.058,4.0893,4.0981,4.0854,4.0823,4.0806,4.0781,4.0456,4.031,4.0274,3.9886,3.9619,3.9458,3.9306,3.9155,3.903,3.9021,3.9012,3.9012,0.0,0.0,0.0,3.5195,3.5124,3.4999,3.4981,3.4624,3.3901,3.3865,0.0,3.3865,3.3271,3.3329,3.4055,3.3525,0.0,0.0,0.0,0.0,0.0,0.0,0.0,0.0,0.0,0.0,0.0,3.4537,3.4311,3.3247,3.319,3.3394,3.3815,3.4414,3.5132,3.59,3.5999,3.6135,3.6433,3.647,3.6786,3.7566,3.7671,3.8235,3.9721,3.9925,4.0278,4.12,4.1924,4.237,4.2575,4.3262,4.367,4.3559,4.3633,4.3763,4.3845,4.4594,4.5234,4.5352,4.621,4.6883,4.705,4.7154,4.7369,4.7427,4.7433,4.7396,4.7453,4.7397,4.7434,4.7434,4.7397,4.7706,4.8332,4.8464,4.8237,4.7555,4.7416,4.7611,4.7099,0.0,4.7232,4.7253,0.0,4.7397,4.6366,4.4649,4.4596,4.4428,4.4221,4.4213,4.3815,4.3116,4.3192,4.285,4.2231,4.2369,4.2393,4.2294,4.2294,4.2275,4.2267,4.209,4.1884,4.1706,4.1143,4.0786,4.0583,4.0188,3.9953,3.9886,3.9886,3.9886,3.9886,3.9886,3.8941,3.6997,3.6586,3.6203,3.5801,3.5774,3.5418,3.4678,3.4634,0.0,0.0,0.0,0.0,0.0,0.0,0.0,0.0,3.3691,0.0,3.403,3.4055,3.4284,3.4785,3.4741,3.492,3.538,3.5341,3.516,3.4797,3.4445,3.4377,3.4736,3.4853,3.5206,3.6005,3.6098,3.6433,3.7176,3.7287,3.7752,3.8885,3.9145,3.9628,4.0706,4.1003,4.13,4.2073,4.25,4.2965,4.3336,4.3726,4.4191,4.4506,4.4265,4.4147,4.4668,4.5498,4.6143,4.6385,4.7156,4.7803,4.7897,4.8304,4.8597,4.8635,4.8635,4.8635,4.8635,4.8635,4.8635,4.8635,4.8635,4.8768,4.9166,4.9279,4.9166,4.8692,4.8635,4.8749,4.7323,4.7813,4.7551,4.7593,4.7858,4.7839,4.7858,4.7807,0.0,0.0,0.0,4.6761,4.6345,4.5809,4.5496,4.5034,4.4486,4.4333,4.4252,4.4228,4.409,4.4016,4.399,4.3762,4.351,4.3219,4.2534,4.2005,4.1594,4.0946,4.0537,4.0401,4.0391,4.0373,4.0363,4.0248,3.9873,3.9248,3.8434,3.7621,3.6845,3.6827,3.6381,3.5445,3.5409,3.5409,3.5418,3.4859,3.4559,3.4563,3.4173,3.3982,3.3999,3.4215,3.439,3.4556,3.4606,3.4965,3.5671,3.5708,3.6049,3.6841,3.6303,3.6086,3.6488,3.5875,3.5566,3.5689,3.5188,3.5225,3.6042,3.6303,3.6878,3.8216,3.8451,3.9138,4.039,4.0613,4.0891,4.1653,4.1802,4.2118,4.289,4.3039,4.3243,4.3845,4.4174,4.4614,4.5281,4.5065,4.4918,4.5668,4.6491,4.7076,4.7326,4.806,4.861,4.872,4.9332,4.9867,4.9893,4.9893,4.9893,4.976,4.9893,4.9829,4.9874,4.9779,4.9893,4.9893,4.9893,4.9893,4.9893,4.9893,4.9836,4.9458,4.9545,4.9485,4.9499,4.9545,4.9564,4.9551,4.9431,4.8009,4.7193,4.6928,4.7173,4.6918,4.6323,4.6819,4.6777,4.6345,4.6718,4.6819,4.6657,4.5979,4.5634,4.5519,4.4464,4.3914,4.3859,4.3512,4.3194,4.285,4.2723,4.2529,4.224,4.2219,4.2201,4.2165,4.1536,4.1141,4.1033,4.009,3.9209,3.8487,3.8459,3.7746,3.6328,3.6238,3.6221,3.6221,3.5506,3.5509,3.6349,3.5702,3.5385,3.5573,3.5786,3.5975,3.6016,3.621,3.6395,3.6532,3.6544,3.6878,3.764,3.764,3.7046,3.5782,3.5566,3.5789,3.647,3.7034,3.7714,3.8513,3.9182,3.9647,4.0,4.065,4.1181,4.1412,4.143,4.172,4.2519,4.263,4.2927,4.3596,4.3801,4.3883,4.4103,4.4877,4.5668,4.6431,4.651,4.6446,4.6825,4.7565,4.8096,4.8289,4.9024,4.9509,4.9688,4.9759,4.9893,4.9893,4.9893,4.9893,4.9893,4.9893,4.9893,4.9893,4.9893,4.9893,4.9893,4.9893,4.9893,4.9893,4.9893,4.9893,4.9893,4.9893,4.9893,4.9893,4.9893,4.9893,4.9893,4.9836,4.909,4.8682,4.856,4.8676,4.8349,4.7704,4.796,4.7728,4.7078,4.7306,4.7364,4.7274,4.6927,4.6756,4.6668,4.6124,4.5531,4.4934,4.4793,4.4297,4.3543,4.3301,4.3096,4.2873,4.2699,4.2609,4.2573,4.224,4.206,4.2024,4.0704,3.9858,3.9518,3.9443,3.903,3.8299,3.7942,3.7692,3.7675,3.6637,3.6289,3.6793,3.6324,3.6076,3.6161,3.6399,3.6522,3.6522,3.6615,3.6897,3.7324,3.8198,3.9052,3.9832,3.9907,3.9628,3.8885,3.7975,3.7801,3.8606,3.9052,3.9591,4.0371,4.0836,4.104,4.1051,4.1404,4.1776,4.2166,4.2259,4.2556,4.328,4.3466,4.3596,4.3949,4.4413,4.4739,4.4907,4.6001,4.7132,4.7699,4.8096,4.816,4.794,4.8513,4.9075,4.9208,4.9554,4.9867,4.9893,4.9893,4.9893,4.9893,4.9893,4.9893,4.9893,4.9893,4.9893,4.9893,4.9893,4.9893,4.9893,4.9893,4.9893,4.9893,4.9893,4.9893,4.9926,4.9913,4.9925,4.9925,4.9893,4.9893,4.9893,4.9893,4.9893,4.9893,4.9893,4.9893,4.9551,4.9021,4.8976,4.8597,4.8028,4.7953,4.7972,4.7934,4.7782,4.77,4.7668,4.7517,4.6913,4.6151,4.6017,4.541,4.4456,4.4026,4.377,4.3596,4.3339,4.32,4.3218,4.32,4.3128,4.2876,4.1655,4.078,4.041,4.0288,4.0168,3.9907,3.938,3.9067,3.8996,3.8106,3.7622,3.7602,3.7468,3.7397,3.7404,3.7597,3.7715,3.7715,3.7781,3.8067,3.8736,3.9925,4.0929,4.1523,4.1597,4.1597,4.1505,4.0446,3.9918,4.0538,4.0631,4.091,4.1412,4.1765,4.1876,4.1876,4.2054,4.2452,4.2965,4.3076,4.3392,4.4116,4.4283,4.4355,4.4665,4.5183,4.575,4.633,4.7406,4.8283,4.8721,4.936,4.9379,4.9115,4.9315,4.9698,4.9872,4.9886,4.9893,4.9893,4.9893,4.9893,4.9893,4.9893,4.9893,4.9893,4.9893,4.9893,4.9893,4.9893,4.9893,4.9893,4.9893,4.9893,4.9893,4.9893,4.9893,5.005,4.9979,4.9998,4.9965,4.9899,4.9912,4.9918,4.9912,4.9893,4.9893,4.9893,4.9893,4.9848,4.9798,4.976,4.9677,4.9583,4.9665,4.9608,4.9507,4.8926,4.8559,4.8521,4.7801,4.7352,4.7192,4.6968,4.6577,4.6062,4.5703,4.5378,4.5133,4.5063,4.5009,4.5017,4.5017,4.4673,4.3976,4.3761,4.2878,4.1367,4.1268,4.0897,4.0103,4.0032,3.993,3.9817,3.9975,4.0059,4.0095,4.0211,4.0361,4.0376,4.0607,4.0751,4.0737,4.0948,4.1189,4.1237,4.1393,4.1534,4.1579,4.1672,4.169,4.1672,4.1505,4.1386,4.1523,4.1505,4.1579,4.1653,4.2266,4.2686,4.2723,4.3307,4.3819,4.3872,4.3875,4.4228,4.5082,4.5204,4.5481,4.6141,4.6459,4.6993,4.7857,4.8261,4.8773,4.9439,4.9712,4.9845,4.9726,4.9847,4.9866,4.9893,4.9893,4.9893,4.9893,4.9893,4.9893,4.9893,4.9893,4.9893,4.9893,4.9893,4.9893,4.9893,4.9893,4.9893,4.9893,4.9893,4.9893,4.9893,4.9893,4.9893,5.0089,5.0063,5.0063,5.005,5.0024,5.0024,5.0024,5.0018,4.9959,4.9965,4.9959,4.9906,4.9893,4.9893,4.9893,4.9893,4.9893,4.9893,4.9893,4.9874,4.9551,4.9393,4.9362,4.9059,4.8635,4.8174,4.8016,4.7622,4.7025,4.662,4.6281,4.598,4.5954,4.5855,4.5661,4.5661,4.5364,4.483,4.478,4.4415,4.3679,4.2668,4.1943,4.1562,4.1131,4.0851,4.0799,4.0798,4.0769,4.0728,4.1148,4.1385,4.1396,4.1426,4.1464,4.1542,4.1571,4.1813,4.2259,4.2314,4.2508,4.2965,4.302,4.302,4.302,4.302,4.3002,4.2965,4.2593,4.2482,4.2972,4.3318,4.3503,4.3615,4.4265,4.4814,4.4893,4.5322,4.58,4.6228,4.6289,4.6416,4.6855,4.7357,4.8092,4.8964,4.9223,4.9472,4.9848,4.9893,4.9893,4.9893,4.9893,4.9893,4.9893,4.9893,4.9893,4.9893,4.9893,4.9893,4.9893,4.9893,4.9893,4.9893,4.9893,4.9893,4.9893,4.9893,4.9893,4.9893,4.9893,4.9893,4.9893,4.9893,4.9893,5.0145,5.0126,5.0114,5.0101,5.0101,5.0101,5.0101,5.0095,5.0031,5.0031,5.0005,4.9959,4.994,4.9959,4.9926,4.9925,4.9893,4.9925,4.9906,4.9893,4.9893,4.9893,4.9893,4.9893,4.9583,4.9095,4.892,4.8496,4.782,4.7567,4.7292,4.7099,4.7066,4.6932,4.6725,4.6689,4.6443,4.5999,4.5933,4.5833,4.5459,4.4334,4.3435,4.2976,4.2199,4.1805,4.1864,4.1785,4.1756,4.1769,4.2251,4.2532,4.2543,4.2438,4.2449,4.2523,4.2445,4.2652,4.3241,4.3267,4.3502,4.4061,4.4303,4.446,4.4516,4.4683,4.4822,4.4818,4.4281,4.4199,4.4236,4.4572,4.4733,4.4771,4.5379,4.5797,4.593,4.6487,4.6881,4.7256,4.7278,4.7462,4.7764,4.8381,4.9072,4.9596,4.9799,4.9893,4.9893,4.9893,4.9893,4.9893,4.9893,4.9893,4.9893,4.9893,4.9893,4.9893,4.9893,4.9893,4.9893,4.9893,4.9893,4.9893,4.9893,4.9893,4.9893,4.9893,4.9893,4.9893,4.9893,4.9893,4.9893,4.9893,4.9893,5.0261,5.0182,5.0133,5.0108,5.0101,5.0108,5.0108,5.0114,5.0101,5.0101,5.0101,5.0089,5.0108,5.0082,5.0031,4.9946,4.9906,4.9978,4.9972,4.9906,4.9918,4.9893,4.9893,4.9893,4.9874,4.9721,4.9477,4.9135,4.8737,4.8707,4.8732,4.8666,4.8616,4.8657,4.8548,4.8511,4.8243,4.7506,4.7423,4.7131,4.6479,4.6267,4.5412,4.4151,4.321,4.2938,4.3078,4.3305,4.3525,4.3851,4.4141,4.4332,4.4344,4.4299,4.4261,4.428,4.4311,4.4348,4.4391,4.4447,4.4522,4.4623,4.5227,4.5612,4.564,4.6191,4.6555,4.6772,4.6581,4.6263,4.5565,4.5923,4.6347,4.6411,4.6709,4.6896,4.6925,4.712,4.7376,4.798,4.819,4.8494,4.9338,4.9707,4.9738,4.9847,4.9886,4.9893,4.9893,4.9893,4.9893,4.9893,4.9893,4.9893,4.9893,4.9893,4.9893,4.9893,4.9893,4.9893,4.9893,4.9893,4.9893,4.9893,4.9893,4.9893,4.9893,4.9893,4.9893,4.9893,4.9893,4.9893,4.9893,4.9893,4.9893,5.029,5.0267,5.0243,5.0231,5.0231,5.0231,5.0231,5.0225,5.0169,5.0151,5.0164,5.0126,5.0101,5.0101,5.0126,5.0101,5.0025,5.0057,5.0057,5.0031,5.0037,5.0031,5.0031,4.9992,4.9965,4.9926,4.9804,4.965,4.9517,4.9521,4.9514,4.9514,4.9495,4.9416,4.9228,4.918,4.8895,4.8433,4.837,4.8221,4.7902,4.7448,4.6859,4.633,4.5539,4.5131,4.5206,4.552,4.5461,4.4991,4.5284,4.5197,4.4708,4.4626,4.4604,4.4571,4.4977,4.5258,4.5315,4.5798,4.6099,4.6125,4.6369,4.6545,4.6576,4.6827,4.6996,4.709,4.7515,4.7477,4.7263,4.7027,4.6889,4.6979,4.7429,4.781,4.7996,4.8383,4.8883,4.9214,4.9299,4.9471,4.9669,4.9871,4.9905,4.9893,4.9893,4.9893,4.9893,4.9893,4.9893,4.9893,4.9893,4.9893,4.9893,4.9893,4.9893,4.9893,4.9893,4.9893,4.9893,4.9913,4.9939,4.9973,4.9953,4.9926,4.994,4.9918,4.9918,4.992,4.992,4.9893,4.9893,4.9893,4.9893,5.0296,5.0296,5.0296,5.0296,5.0296,5.0296,5.0296,5.0296,5.0242,5.0243,5.0212,5.0188,5.0164,5.017,5.02,5.02,5.0164,5.0145,5.012,5.0101,5.0101,5.0101,5.0095,5.0057,5.0018,5.0024,4.9972,4.9913,4.9893,4.9893,4.9893,4.9886,4.9893,4.9809,4.9585,4.9548,4.9408,4.919,4.9158,4.9158,4.9083,4.8632,4.834,4.8273,4.7813,4.7186,4.6637,4.6791,4.6684,4.6229,4.6333,4.6181,4.5652,4.557,4.5531,4.5519,4.5946,4.6247,4.6322,4.6812,4.7102,4.7158,4.741,4.7554,4.7554,4.778,4.7919,4.8063,4.8383,4.8752,4.8639,4.8277,4.7935,4.7937,4.8403,4.8777,4.8895,4.94,4.9726,4.9814,4.9816,4.986,4.9893,4.9886,4.9893,4.9893,4.9893,4.9893,4.9893,4.9893,4.9893,4.9893,4.9893,4.9893,4.9893,4.9893,4.9918,4.9918,4.992,4.992,4.9966,4.9979,5.0012,5.0025,5.0019,5.0005,4.9973,4.9952,4.9946,4.9979,4.9926,4.9893,4.9893,4.9893,4.9893,5.0296,5.0296,5.0296,5.0296,5.0296,5.0296,5.0296,5.0296,5.0296,5.029,5.0284,5.029,5.0278,5.029,5.0284,5.029,5.0273,5.0231,5.0176,5.0126,5.012,5.0114,5.0101,5.0089,5.0095,5.0089,5.0037,4.9959,4.9925,4.9918,4.9918,4.9893,4.9893,4.9872,4.9872,4.9845,4.9859,4.9817,4.9778,4.9831,4.9886,4.973,4.9678,4.9737,4.9661,4.8817,4.7142,4.7086,4.7241,4.7369,4.7377,4.7397,4.7213,4.7156,4.727,4.7162,4.7346,4.7409,4.7384,4.7503,4.7642,4.7717,4.8255,4.8652,4.8733,4.922,4.9599,4.9554,4.9656,4.9783,4.9757,4.9656,4.957,4.9686,4.9617,4.9694,4.9771,4.9841,4.9886,4.9893,4.9893,4.9893,4.9893,4.9893,4.9893,4.9893,4.9893,4.9893,4.9893,4.9893,4.9893,4.9893,4.9893,4.9893,4.9893,4.9893,4.9918,4.9932,4.9965,4.9973,5.0095,5.0145,5.0192,5.0227,5.0192,5.0181,5.0156,5.0131,5.0118,5.0118,5.0019,4.9986,4.9993,5.0012,4.9926,5.0296,5.0296,5.0296,5.0296,5.0296,5.0296,5.0296,5.0296,5.0296,5.0296,5.0296,5.0296,5.0296,5.0296,5.0296,5.0296,5.0296,5.0278,5.0261,5.0237,5.0231,5.0231,5.0231,5.0175,5.0145,5.0108,5.0063,5.0018,4.9985,4.9953,4.994,4.9918,4.9893,4.9893,4.9893,4.9893,4.9893,4.9893,4.9893,4.9893,4.9893,4.9893,4.9893,4.9893,4.9893,4.9561,4.9005,4.8961,4.8737,4.8313,4.8294,4.8028,4.7536,4.7397,4.7397,4.746,4.7991,4.8294,4.8376,4.8787,4.9052,4.9128,4.9374,4.9507,4.9526,4.9741,4.9893,4.9893,4.9893,4.9893,4.9893,4.9893,4.9885,4.9843,4.9885,4.9893,4.9893,4.9893,4.9893,4.9893,4.9893,4.9893,4.9893,4.9893,4.9893,4.9893,4.9893,4.9893,4.9893,4.9893,4.9893,4.9893,4.9893,4.9906,4.994,4.9979,5.0005,5.0038,5.007,5.012,5.0242,5.0316,5.0375,5.0396,5.0369,5.0364,5.0333,5.0309,5.029,5.035,5.032,5.0267,5.0208,5.0142,5.01,5.0296,5.0296,5.0296,5.0296,5.0296,5.0296,5.0296,5.0296,5.0296,5.0296,5.0296,5.0296,5.0296,5.0296,5.0296,5.0296,5.0296,5.0296,5.0296,5.0296,5.0296,5.0296,5.0296,5.0248,5.0213,5.0158,5.0139,5.0108,5.0044,5.0037,5.0011,4.994,4.9945,4.9932,4.9893,4.9893,4.9893,4.9893,4.9893,4.9893,4.9893,4.9893,4.9893,4.9893,4.9893,4.9893,4.9893,4.9893,4.9665,4.9242,4.9147,4.8862,4.837,4.837,4.8332,4.8426,4.8806,4.9153,4.9204,4.9551,4.9893,4.9893,4.9893,4.9893,4.9893,4.9893,4.9893,4.9893,4.9893,4.9893,4.9893,4.9893,4.9893,4.9893,4.9886,4.9893,4.9893,4.9893,4.9893,4.9893,4.9893,4.9893,4.9893,4.9893,4.9893,4.9893,4.9893,4.9893,4.9893,4.9893,4.9893,4.9893,4.9893,4.9933,5.0005,5.0057,5.0088,5.0144,5.0199,5.0298,5.0405,5.0485,5.0557,5.0557,5.0536,5.0567,5.0548,5.0475,5.045,5.0529,5.0598,5.0495,5.0396,5.0375,5.0338,5.0296,5.0296,5.0296,5.0296,5.0296,5.0296,5.0296,5.0296,5.0296,5.0296,5.0296,5.0296,5.0296,5.0296,5.0296,5.0296,5.0296,5.0296,5.0296,5.0296,5.0296,5.0296,5.0296,5.029,5.0261,5.0206,5.0219,5.0176,5.0114,5.0108,5.0076,5.0018,5.0011,4.9985,4.9933,4.9906,4.9913,4.992,4.9913,4.9913,4.9906,4.9918,4.9912,4.9893,4.9893,4.9893,4.9893,4.9893,4.9893,4.9874,4.9798,4.9741,4.9817,4.9874,4.9734,4.9677,4.9855,4.9817,4.9855,4.9855,4.9893,4.9893,4.9893,4.9893,4.9893,4.9893,4.9893,4.9893,4.9893,4.9893,4.9893,4.9893,4.9893,4.9893,4.9893,4.9893,4.9893,4.9893,4.9893,4.9893,4.9893,4.9893,4.9893,4.9893,4.9893,4.9893,4.9893,4.9893,4.9893,4.9893,4.9893,4.9893,4.9893,4.9979,5.0057,5.0107,5.0188,5.0372,5.0399,5.0464,5.0557,5.0625,5.0691,5.0691,5.0705,5.075,5.0769,5.0698,5.0721,5.0832,5.0805,5.0674,5.0608,5.0606,5.0547,5.0296,5.0296,5.0296,5.0296,5.0296,5.0296,5.0296,5.0296,5.0296,5.0296,5.0296,5.0296,5.0296,5.0296,5.0296,5.0296,5.0296,5.0296,5.0296,5.0296,5.0296,5.0296,5.0296,5.0296,5.029,5.0273,5.0267,5.023,5.0188,5.0163,5.0145,5.0076,5.0076,5.007,5.005,5.0044,5.0031,5.0031,5.005,5.0018,4.9985,4.9985,4.9952,4.9893,4.9893,4.9893,4.9893,4.9893,4.9893,4.9893,4.9893,4.9893,4.9893,4.9893,4.9893,4.9893,4.9893,4.9893,4.9893,4.9893,4.9893,4.9893,4.9893,4.9893,4.9893,4.9893,4.9893,4.9893,4.9893,4.9893,4.9893,4.9893,4.9893,4.9893,4.9893,4.9893,4.9893,4.9893,4.9893,4.9893,4.9893,4.9893,4.9893,4.9893,4.9893,4.9893,4.9893,4.9893,4.9893,4.9893,4.9893,4.9893,4.992,5.0025,5.0126,5.0176,5.03,5.0561,5.0625,5.0611,5.0682,5.0745,5.0797,5.083,5.0859,5.0894,5.0953,5.0972,5.1056,5.1083,5.1057,5.0946,5.0886,5.0847,5.0728,5.0463,5.0435,5.0416,5.0391,5.0356,5.0333,5.0314,5.0325,5.0308,5.0296,5.0296,5.0296,5.0296,5.0296,5.0296,5.0296,5.0296,5.0296,5.0296,5.0296,5.0296,5.0296,5.0296,5.0296,5.0296,5.0296,5.0296,5.0259,5.0255,5.023,5.0213,5.0158,5.0145,5.0114,5.0095,5.0101,5.0101,5.0101,5.0101,5.0057,5.005,5.0044,5.0031,4.9992,4.9946,4.992,4.9893,4.9893,4.9893,4.9893,4.9893,4.9893,4.9893,4.9893,4.9893,4.9893,4.9893,4.9893,4.9893,4.9893,4.9893,4.9893,4.9893,4.9893,4.9893,4.9893,4.9893,4.9893,4.9893,4.9893,4.9893,4.9893,4.9893,4.9893,4.9893,4.9893,4.9893,4.9893,4.9893,4.9893,4.9893,4.9893,4.9893,4.9893,4.9893,4.9893,4.9893,4.9893,4.9893,4.9893,4.9926,4.9966,5.0044,5.0163,5.0316,5.0394,5.0445,5.0686,5.0756,5.0764,5.0791,5.0826,5.0851,5.0894,5.0961,5.102,5.1075,5.1125,5.1166,5.1186,5.123,5.1225,5.1128,5.1038,5.093,5.075,5.062,5.0616,5.0541,5.0443,5.0354,5.0359,5.0401,5.0356,5.0314,5.0308,5.0308,5.0296,5.0296,5.0296,5.0296,5.0296,5.0296,5.0296,5.0296,5.0296,5.0296,5.0296,5.0296,5.0296,5.0296,5.0296,5.0296,5.029,5.029,5.0273,5.0212,5.02,5.0188,5.0158,5.0139,5.0126,5.0139,5.0145,5.0114,5.012,5.0114,5.0101,5.007,5.0037,4.9992,4.9933,4.9913,4.9925,4.9899,4.9893,4.9893,4.9893,4.9893,4.9893,4.9893,4.9893,4.9893,4.9893,4.9893,4.9893,4.9893,4.9893,4.9893,4.9893,4.9893,4.9893,4.9893,4.9893,4.9893,4.9893,4.9893,4.9893,4.9893,4.9893,4.9893,4.9893,4.9893,4.9893,4.9893,4.9893,4.9893,4.9893,4.9893,4.9893,4.9893,4.9893,4.9893,4.9893,4.9893,4.9992,5.012,5.0218,5.0329,5.0485,5.0664,5.0714,5.0814,5.0846,5.0854,5.0854,5.0886,5.0902,5.0925,5.1,5.1063,5.1114,5.1166,5.1234,5.1254,5.1278,5.1288,5.1267,5.1215,5.113,5.0875,5.0828,5.0711,5.0652,5.0635,5.049,5.0473,5.0473,5.0393,5.0384,5.0354,5.03,5.0302,5.0296,5.0296,5.0296,5.0296,5.0296,5.0296,5.0296,5.0296,5.0296,5.0296,5.0296,5.0296,5.0296,5.0296,5.0296,5.0296,5.0296,5.0296,5.0259,5.0253,5.0253,5.0255,5.0243,5.0261,5.0261,5.0255,5.0225,5.0175,5.0169,5.0158,5.0095,5.0089,5.0076,5.005,5.0011,4.9985,4.9972,4.992,4.9906,4.9893,4.9893,4.9893,4.9893,4.9893,4.9893,4.9893,4.9893,4.9893,4.9893,4.9893,4.9893,4.9893,4.9893,4.9893,4.9893,4.9893,4.9893,4.9893,4.9893,4.9893,4.9893,4.9893,4.9893,4.9893,4.9893,4.9893,4.9893,4.9893,4.9893,4.9893,4.9893,4.9893,4.9893,4.9893,4.9893,4.9906,4.992,5.0089,5.0265,5.034,5.0446,5.0606,5.0756,5.0808,5.0866,5.089,5.0898,5.0898,5.0925,5.0921,5.0972,5.1043,5.1099,5.115,5.1223,5.1286,5.1294,5.13,5.13,5.13,5.13,5.13,5.1088,5.098,5.0927,5.084,5.0746,5.0659,5.0576,5.0537,5.0478,5.0435,5.0401,5.0367,5.0331,5.0302,5.0296,5.0296,5.0296,5.0296,5.0296,5.0296,5.0296,5.0296,5.0296,5.0296,5.0296,5.0296,5.0296,5.0296,5.0296,5.0296,5.0296,5.0296,5.0296,5.0296,5.0296,5.0296,5.029,5.0296,5.0296,5.0284,5.0261,5.0255,5.0206,5.0151,5.0151,5.0139,5.0095,5.007,5.005,5.0025,4.9999,4.9946,4.9899,4.9893,4.9893,4.9893,4.9893,4.9893,4.9893,4.9893,4.9893,4.9893,4.9893,4.9893,4.9893,4.9893,4.9893,4.9893,4.9893,4.9893,4.9893,4.9893,4.9893,4.9893,4.9893,4.9893,4.9893,4.9893,4.9893,4.9893,4.9893,4.9893,4.9893,4.9893,4.9893,4.9893,4.9918,4.9932,5.0063,5.0107,5.0252,5.0383,5.0456,5.0561,5.0714,5.0821,5.0841,5.0878,5.0894,5.0898,5.0898,5.0937,5.0958,5.1017,5.1075,5.1134,5.1184,5.1252,5.1298,5.13,5.13,5.13,5.13,5.13,5.13,5.1421,5.1144,5.113,5.1024,5.0859,5.0789,5.0724,5.0668,5.058,5.0525,5.0443,5.0435,5.0373,5.0308,5.0296,5.0296,5.0296,5.0296,5.0296,5.0296,5.0296,5.0296,5.0296,5.0296,5.0296,5.0296,5.0296,5.0296,5.0296,5.0296,5.0296,5.0296,5.0296,5.0296,5.0296,5.0296,5.0296,5.0296,5.0296,5.0296,5.0296,5.029,5.0267,5.0237,5.0206,5.0201,5.0158,5.0114,5.0101,5.0114,5.0108,5.0044,4.9972,4.992,4.992,4.9945,4.9926,4.9932,4.9913,4.9899,4.9893,4.9893,4.9893,4.9893,4.9893,4.9893,4.9893,4.9893,4.9899,4.9913,4.9906,4.9933,4.9933,4.9926,4.9926,4.9939,4.9939,4.992,4.9945,4.9893,4.9893,4.9893,4.9918,4.9925,4.9918,4.9899,4.9939,4.9992,5.0157,5.0265,5.0383,5.0516,5.0576,5.0682,5.0835,5.0905,5.0936,5.0929,5.0952,5.0952,5.0959,5.101,5.1059,5.1053,5.1102,5.1161,5.1205,5.1278,5.1296,5.1298,5.13,5.13,5.13,5.13,5.13,5.2031,5.1334,5.1239,5.1155,5.1099,5.1005,5.094,5.0903,5.0796,5.0702,5.0649,5.0483,5.0382,5.0314,5.0302,5.0302,5.0302,5.0296,5.0296,5.0296,5.0296,5.0296,5.0296,5.0296,5.0296,5.0296,5.0296,5.0296,5.0296,5.0296,5.0296,5.0296,5.0296,5.0296,5.0296,5.0296,5.0296,5.0296,5.0296,5.0296,5.0296,5.0296,5.0296,5.0278,5.0278,5.0267,5.0236,5.02,5.0194,5.0188,5.0114,5.0095,5.0057,5.007,5.007,5.0044,4.9992,4.9992,4.9985,4.9945,4.9918,4.9893,4.9906,4.9918,4.9918,4.9899,4.9932,4.9939,4.9965,4.9992,4.9992,5.0005,5.0063,5.0063,5.0057,5.0057,5.0057,5.005,5.0018,4.9952,4.9932,4.9913,4.9959,4.9992,5.0031,5.0063,5.0088,5.0183,5.0347,5.0399,5.0445,5.0572,5.0729,5.0826,5.0943,5.0998,5.1037,5.1024,5.104,5.104,5.1066,5.1125,5.1153,5.1128,5.1145,5.1198,5.125,5.129,5.1296,5.1298,5.13,5.13,5.13,5.13,5.13,5.1765,5.1392,5.1329,5.1257,5.1199,5.1137,5.1061,5.0996,5.0936,5.0852,5.0735,5.0639,5.0509,5.0393,5.0342,5.0331,5.0302,5.0296,5.0296,5.0296,5.0296,5.0296,5.0296,5.0296,5.0296,5.0296,5.0296,5.0296,5.0296,5.0296,5.0296,5.0296,5.0296,5.0296,5.0296,5.0296,5.0296,5.0296,5.0296,5.0296,5.0296,5.0296,5.0296,5.0296,5.0296,5.0296,5.0296,5.0259,5.0261,5.0249,5.0225,5.0213,5.0201,5.0194,5.0176,5.0114,5.0057,5.0038,5.0057,5.0024,5.0018,5.0011,5.0011,5.0011,5.0011,4.9992,5.0005,5.0011,5.0024,5.0057,5.0057,5.0089,5.0095,5.0101,5.0108,5.0108,5.0108,5.0108,5.0076,5.0037,5.005,5.0044,5.0038,5.0107,5.0181,5.022,5.025,5.0384,5.0563,5.0591,5.0587,5.075,5.0902,5.0954,5.1037,5.1068,5.1131,5.1128,5.1125,5.1125,5.1134,5.1171,5.1176,5.1163,5.1196,5.125,5.1263,5.1296,5.1298,5.13,5.13,5.13,5.13,5.13,5.13,5.157,5.1394,5.1394,5.1333,5.125,5.1245,5.1191,5.1084,5.1053,5.0972,5.0858,5.0817,5.0684,5.049,5.041,5.0373,5.0302,5.0296,5.0296,5.0296,5.0296,5.0296,5.0296,5.0296,5.0296,5.0296,5.0296,5.0296,5.0296,5.0296,5.0296,5.0296,5.0296,5.0296,5.0296,5.0296,5.0296,5.0296,5.0296,5.0296,5.0296,5.0296,5.0296,5.0296,5.0296,5.0296,5.0296,5.0296,5.029,5.029,5.029,5.029,5.0296,5.0296,5.0249,5.0164,5.0133,5.0126,5.012,5.0095,5.0082,5.0082,5.0095,5.0095,5.0095,5.0082,5.0089,5.0101,5.012,5.012,5.0126,5.0139,5.0151,5.0151,5.0151,5.0145,5.0158,5.0182,5.0218,5.0194,5.0182,5.0212,5.0234,5.025,5.0333,5.0404,5.0432,5.0579,5.0738,5.0797,5.0828,5.0968,5.1078,5.109,5.1125,5.1145,5.1174,5.1201,5.1181,5.1181,5.1181,5.1211,5.1213,5.1223,5.1243,5.129,5.1298,5.13,5.13,5.13,5.13,5.13,5.13,5.13,5.13,5.2098,5.1394,5.1394,5.1391,5.1365,5.1364,5.1363,5.1329,5.1214,5.1133,5.1047,5.1,5.087,5.0657,5.0472,5.0376,5.0314,5.0296,5.0296,5.0296,5.0296,5.0296,5.0296,5.0296,5.0296,5.0296,5.0296,5.0296,5.0296,5.0296,5.0296,5.0296,5.0296,5.0296,5.0296,5.0296,5.0296,5.0296,5.0296,5.0296,5.0296,5.0296,5.0296,5.0296,5.0296,5.0296,5.0296,5.0296,5.0296,5.0296,5.0296,5.0296,5.0296,5.0296,5.0296,5.0267,5.0237,5.0201,5.0188,5.0158,5.0126,5.0133,5.0101,5.0108,5.0126,5.0126,5.0126,5.0101,5.0158,5.0194,5.0188,5.0243,5.0267,5.0267,5.0249,5.0255,5.0261,5.0237,5.0271,5.0399,5.0405,5.0429,5.0452,5.0477,5.0499,5.0581,5.0662,5.0809,5.0926,5.0966,5.0998,5.1106,5.1163,5.1196,5.1201,5.122,5.1227,5.1241,5.1241,5.1243,5.1243,5.1243,5.1256,5.1286,5.13,5.13,5.13,5.13,5.13,5.13,5.13,5.13,5.13,5.13,5.13,5.1746,5.1394,5.1394,5.1394,5.1394,5.1394,5.1394,5.139,5.1334,5.1257,5.1172,5.111,5.0982,5.0743,5.0577,5.0442,5.0317,5.0308,5.0302,5.0296,5.0296,5.0296,5.0296,5.0296,5.0296,5.0296,5.0296,5.0296,5.0296,5.0296,5.0296,5.0296,5.0296,5.0296,5.0296,5.0296,5.0296,5.0296,5.0296,5.0296,5.0296,5.0296,5.0296,5.0296,5.0296,5.0296,5.0296,5.0296,5.0296,5.0296,5.0296,5.0296,5.0296,5.0296,5.0296,5.0296,5.0278,5.0267,5.0261,5.0212,5.0213,5.0213,5.0194,5.0219,5.0219,5.0213,5.0207,5.0219,5.0243,5.0261,5.0261,5.0284,5.029,5.0296,5.0296,5.0296,5.0302,5.0314,5.0354,5.0485,5.0616,5.0653,5.0705,5.0789,5.0825,5.0858,5.093,5.1058,5.1124,5.1159,5.1169,5.1201,5.1241,5.125,5.1272,5.128,5.1256,5.1282,5.1284,5.1286,5.129,5.1296,5.13,5.13,5.13,5.13,5.13,5.13,5.13,5.13,5.13,5.13,5.13,5.13,5.13,5.1394,5.1394,5.1394,5.1394,5.1394,5.1394,5.1394,5.1394,5.1393,5.1334,5.1257,5.1205,5.1047,5.0843,5.0717,5.0572,5.0394,5.038,5.0329,5.0306,5.0296,5.0296,5.0296,5.0296,5.0296,5.0296,5.0296,5.0296,5.0296,5.0296,5.0296,5.0296,5.0296,5.0296,5.0296,5.0296,5.0296,5.0296,5.0296,5.0296,5.0296,5.0296,5.0296,5.0296,5.0296,5.0296,5.0296,5.0296,5.0296,5.0296,5.0296,5.0296,5.0296,5.0296,5.0296,5.0296,5.029,5.029,5.029,5.0284,5.0296,5.0296,5.0296,5.0278,5.0284,5.0296,5.0296,5.0284,5.029,5.029,5.0296,5.0296,5.0296,5.0296,5.0296,5.0296,5.0314,5.034,5.0434,5.0601,5.0748,5.0894,5.0968,5.1086,5.1145,5.1155,5.1223,5.129,5.1296,5.1273,5.1269,5.1258,5.1263,5.129,5.1292,5.1296,5.1298,5.13,5.13,5.13,5.13,5.13,5.13,5.13,5.13,5.13,5.13,5.13,5.13,5.13,5.13,5.13,5.13,5.13,5.13,5.1394,5.1394,5.1394,5.1394,5.1394,5.1394,5.1394,5.1394,5.1394,5.1391,5.1338,5.1258,5.115,5.1035,5.0898,5.0755,5.0591,5.0567,5.046,5.0363,5.0296,5.0296,5.0296,5.0296,5.0296,5.0296,5.0296,5.0296,5.0296,5.0296,5.0296,5.0296,5.0296,5.0296,5.0296,5.0296,5.0296,5.0296,5.0296,5.0296,5.0296,5.0296,5.0296,5.0296,5.0296,5.0296,5.0296,5.0296,5.0296,5.0296,5.0296,5.0296,5.0296,5.0296,5.0302,5.034,5.034,5.0363,5.0391,5.0323,5.0296,5.0296,5.0296,5.0296,5.0296,5.0296,5.0296,5.0296,5.0296,5.0296,5.0296,5.0296,5.0302,5.0357,5.0391,5.0405,5.041,5.0405,5.0518,5.07,5.0866,5.0998,5.1106,5.1213,5.123,5.1232,5.1236,5.13,5.13,5.1296,5.1296,5.1294,5.1294,5.1298,5.1298,5.13,5.13,5.13,5.13,5.13,5.13,5.13,5.13,5.13,5.13,5.13,5.13,5.13,5.13,5.13,5.13,5.13,5.13,5.13,5.13,5.1394,5.1394,5.1394,5.1394,5.1394,5.1394,5.1394,5.1394,5.1394,5.1394,5.1393,5.1334,5.1237,5.1118,5.1052,5.0933,5.0774,5.0656,5.0577,5.0471,5.0388,5.03,5.0302,5.0296,5.0296,5.0296,5.0296,5.0296,5.0296,5.0296,5.0296,5.0296,5.0296,5.0296,5.0296,5.0296,5.0296,5.0296,5.0296,5.0296,5.0296,5.0296,5.0296,5.0296,5.0296,5.0296,5.0296,5.0296,5.0296,5.0302,5.0302,5.0308,5.03,5.03,5.038,5.0453,5.0469,5.0517,5.0533,5.0429,5.0302,5.0296,5.0296,5.0302,5.0308,5.0296,5.0296,5.0296,5.0296,5.0296,5.0296,5.0308,5.0342,5.044,5.0506,5.0527,5.0538,5.0543,5.0642,5.0855,5.0972,5.1089,5.1186,5.129,5.1294,5.1294,5.1298,5.13,5.13,5.13,5.13,5.13,5.13,5.13,5.13,5.13,5.13,5.13,5.13,5.13,5.13,5.13,5.13,5.13,5.13,5.13,5.13,5.13,5.13,5.13,5.13,5.13,5.13,5.13,5.13,5.1394,5.1394,5.1394,5.1394,5.1394,5.1394,5.1394,5.1394,5.1394,5.1394,5.1394,5.1392,5.1335,5.1211,5.117,5.1096,5.0951,5.0838,5.069,5.0582,5.0467,5.0355,5.0312,5.0296,5.0296,5.0296,5.0296,5.0296,5.0296,5.0296,5.0296,5.0296,5.0296,5.0296,5.0296,5.0296,5.0296,5.0296,5.0296,5.0296,5.0296,5.0296,5.0296,5.0296,5.0296,5.0296,5.0296,5.0296,5.0296,5.0331,5.034,5.0352,5.0344,5.0394,5.0492,5.0577,5.0648,5.0694,5.0683,5.0619,5.0423,5.0421,5.0394,5.0374,5.0325,5.0302,5.0296,5.0296,5.0296,5.0302,5.0319,5.0357,5.0426,5.0527,5.0639,5.0674,5.0698,5.0724,5.0863,5.1017,5.1086,5.1117,5.1227,5.13,5.13,5.13,5.13,5.13,5.13,5.13,5.13,5.13,5.13,5.13,5.13,5.13,5.13,5.13,5.13,5.13,5.13,5.13,5.13,5.13,5.13,5.13,5.13,5.13,5.13,5.13,5.13,5.13,5.13,5.13,5.13,5.1394,5.1394,5.1394,5.1394,5.1394,5.1394,5.1394,5.1394,5.1394,5.1394,5.1394,5.1394,5.1393,5.1363,5.1331,5.1253,5.1118,5.1052,5.0914,5.0679,5.0567,5.0467,5.0344,5.0296,5.0296,5.0296,5.0296,5.0296,5.0296,5.0296,5.0296,5.0296,5.0296,5.0296,5.0296,5.0296,5.0296,5.0296,5.0296,5.0296,5.0296,5.0296,5.0296,5.0296,5.0296,5.0296,5.0296,5.0296,5.0314,5.0369,5.048,5.0466,5.0396,5.0605,5.07,5.0676,5.0749,5.0794,5.0801,5.0809,5.0724,5.0601,5.0563,5.0507,5.0369,5.0325,5.0329,5.0374,5.034,5.0354,5.0391,5.0474,5.0572,5.068,5.0785,5.0847,5.0888,5.0923,5.1057,5.1142,5.1114,5.1145,5.1234,5.13,5.13,5.13,5.13,5.13,5.13,5.13,5.13,5.13,5.13,5.13,5.13,5.13,5.13,5.13,5.13,5.13,5.13,5.13,5.13,5.13,5.13,5.13,5.13,5.13,5.13,5.13,5.13,5.13,5.13,5.13,5.13,5.1394,5.1394,5.1394,5.1394,5.1394,5.1394,5.1394,5.1394,5.1394,5.1394,5.1394,5.1394,5.1394,5.1392,5.1391,5.1357,5.1279,5.112,5.0963,5.0809,5.0692,5.0469,5.0355,5.0312,5.0308,5.0296,5.0296,5.0296,5.0296,5.0296,5.0296,5.0296,5.0296,5.0296,5.0296,5.0296,5.0296,5.0296,5.0296,5.0296,5.0296,5.0296,5.0296,5.0296,5.0302,5.0319,5.0312,5.0323,5.0383,5.0466,5.0611,5.0606,5.0586,5.0794,5.0859,5.089,5.0976,5.1026,5.1095,5.1111,5.1004,5.0844,5.0716,5.0661,5.0522,5.0506,5.05,5.05,5.0481,5.0513,5.0652,5.0677,5.0765,5.0923,5.1011,5.1092,5.1128,5.1152,5.121,5.1241,5.1241,5.1232,5.1286,5.13,5.13,5.13,5.13,5.13,5.13,5.13,5.13,5.13,5.13,5.13,5.13,5.13,5.13,5.13,5.13,5.13,5.13,5.13,5.13,5.13,5.13,5.13,5.13,5.13,5.13,5.13,5.13,5.13,5.13,5.13,5.13,5.1394,5.1394,5.1394,5.1394,5.1394,5.1394,5.1394,5.1394,5.1394,5.1394,5.1394,5.1394,5.1394,5.1394,5.1394,5.1394,5.137,5.1276,5.1111,5.098,5.0856,5.0638,5.0484,5.0388,5.0369,5.0323,5.0302,5.0296,5.0296,5.0296,5.0296,5.0296,5.0296,5.0296,5.0296,5.0296,5.0296,5.0296,5.0296,5.0296,5.0296,5.0296,5.0296,5.0306,5.0352,5.0418,5.0416,5.0455,5.0528,5.0648,5.0737,5.076,5.0828,5.0926,5.0988,5.1083,5.1155,5.1193,5.1256,5.1269,5.1154,5.1004,5.0936,5.0821,5.0705,5.068,5.0656,5.0661,5.0656,5.0722,5.0797,5.084,5.0956,5.1108,5.1158,5.1223,5.1241,5.1258,5.1263,5.1294,5.1298,5.1298,5.13,5.13,5.13,5.13,5.13,5.13,5.13,5.13,5.13,5.13,5.13,5.13,5.13,5.13,5.13,5.13,5.13,5.13,5.13,5.13,5.13,5.13,5.13,5.13,5.13,5.13,5.13,5.13,5.13,5.13,5.13,5.13,5.13,5.1394,5.1394,5.1394,5.1394,5.1394,5.1394,5.1394,5.1394,5.1394,5.1394,5.1394,5.1394,5.1394,5.1394,5.1394,5.1394,5.1394,5.1369,5.1241,5.1135,5.1006,5.0822,5.0675,5.0572,5.0513,5.0399,5.0352,5.0402,5.0323,5.0352,5.0346,5.0331,5.0319,5.0342,5.0348,5.0352,5.0352,5.0363,5.041,5.0407,5.0423,5.0388,5.0416,5.0439,5.0517,5.0582,5.062,5.0659,5.0753,5.087,5.0975,5.0935,5.0992,5.1144,5.1144,5.1176,5.1236,5.1282,5.1296,5.1298,5.1296,5.1201,5.1136,5.1014,5.0896,5.084,5.0821,5.0821,5.0821,5.0836,5.087,5.0976,5.1111,5.1188,5.1232,5.1276,5.1288,5.1296,5.1296,5.1298,5.1298,5.13,5.13,5.13,5.13,5.13,5.13,5.13,5.13,5.13,5.13,5.13,5.13,5.13,5.13,5.13,5.13,5.13,5.13,5.13,5.13,5.13,5.13,5.13,5.13,5.13,5.13,5.13,5.13,5.13,5.1339,5.13,5.13,5.13,5.1339,5.1394,5.1394,5.1394,5.1394,5.1394,5.1394,5.1394,5.1394,5.1394,5.1394,5.1394,5.1394,5.1394,5.1394,5.1394,5.1394,5.1394,5.1368,5.125,5.1164,5.1124,5.0942,5.0831,5.0742,5.0703,5.0638,5.0582,5.0557,5.0605,5.0572,5.0516,5.0511,5.0399,5.0429,5.0474,5.0521,5.0531,5.0527,5.0592,5.0577,5.06,5.061,5.0619,5.0637,5.0686,5.0752,5.0769,5.0805,5.088,5.1017,5.1062,5.1074,5.1203,5.1256,5.1254,5.1252,5.1288,5.1298,5.13,5.13,5.13,5.13,5.1248,5.119,5.1074,5.1011,5.0992,5.0992,5.0995,5.1027,5.1063,5.1144,5.1213,5.1236,5.1284,5.1288,5.13,5.13,5.13,5.13,5.13,5.13,5.13,5.13,5.13,5.13,5.13,5.13,5.13,5.13,5.13,5.13,5.13,5.13,5.13,5.13,5.13,5.13,5.13,5.13,5.13,5.13,5.13,5.13,5.13,5.13,5.13,5.132,5.1339,5.1359,5.1398,5.1339,5.1339,5.163,5.1961,5.1394,5.1394,5.1394,5.1394,5.1394,5.1394,5.1394,5.1394,5.1394,5.1394,5.1394,5.1394,5.1394,5.1394,5.1394,5.1394,5.1394,5.1393,5.1334,5.1273,5.1207,5.1089,5.098,5.092,5.0873,5.0809,5.0745,5.0713,5.0773,5.0737,5.067,5.0661,5.0538,5.0568,5.0661,5.0743,5.0789,5.0779,5.0756,5.0765,5.0766,5.0778,5.0753,5.0817,5.0847,5.0902,5.0916,5.0956,5.1066,5.1163,5.119,5.1215,5.1294,5.1298,5.13,5.1294,5.1296,5.13,5.13,5.13,5.13,5.13,5.1298,5.125,5.1223,5.1174,5.1174,5.1174,5.1179,5.1211,5.125,5.1298,5.1296,5.1298,5.1298,5.1298,5.13,5.13,5.13,5.13,5.13,5.13,5.13,5.13,5.13,5.13,5.13,5.13,5.13,5.13,5.13,5.13,5.13,5.13,5.13,5.13,5.13,5.13,5.13,5.13,5.13,5.1339,5.1378,5.1339,5.13,5.1474,5.1805,5.1456,5.1378,5.1671,5.2294,5.2662,5.2838,5.2857,5.3227,5.1394,5.1394,5.1394,5.1394,5.1394,5.1394,5.1394,5.1394,5.1394,5.1394,5.1394,5.1394,5.1394,5.1394,5.1394,5.1394,5.1394,5.1393,5.1392,5.1391,5.135,5.1243,5.1168,5.1115,5.1039,5.0903,5.0844,5.0867,5.084,5.0832,5.0848,5.0832,5.0782,5.0786,5.0836,5.0958,5.0998,5.1024,5.0897,5.0801,5.0836,5.0789,5.0724,5.087,5.0992,5.11,5.1142,5.1215,5.13,5.1298,5.1296,5.1294,5.1296,5.13,5.13,5.13,5.13,5.13,5.13,5.13,5.13,5.13,5.1298,5.1292,5.1278,5.1272,5.1248,5.1248,5.1248,5.1248,5.1292,5.13,5.13,5.13,5.13,5.13,5.13,5.13,5.13,5.13,5.13,5.13,5.13,5.13,5.13,5.13,5.13,5.13,5.1357,5.1357,5.1398,5.1378,5.13,5.13,5.13,5.13,5.13,5.13,5.13,5.13,5.13,5.1359,5.1456,5.169,5.1961,5.2234,5.2428,5.2097,5.2273,5.3227,5.3812,5.4299,5.4474,5.463,5.4846,5.1394,5.1394,5.1394,5.1394,5.1394,5.1394,5.1394,5.1394,5.1394,5.1394,5.1394,5.1394,5.1394,5.1394,5.1394,5.1394,5.1394,5.1394,5.1394,5.1391,5.1385,5.1372,5.1307,5.125,5.122,5.1186,5.1106,5.1046,5.103,5.1027,5.1017,5.1008,5.0945,5.0905,5.1004,5.1122,5.1145,5.1213,5.1086,5.1011,5.1092,5.1152,5.1164,5.1174,5.1241,5.1236,5.1248,5.1278,5.13,5.1298,5.1298,5.1298,5.13,5.13,5.13,5.13,5.13,5.13,5.13,5.13,5.13,5.13,5.13,5.13,5.1298,5.13,5.13,5.13,5.13,5.13,5.13,5.13,5.13,5.13,5.13,5.13,5.13,5.13,5.13,5.13,5.13,5.13,5.13,5.13,5.13,5.13,5.13,5.1337,5.1454,5.1513,5.1612,5.1573,5.1339,5.13,5.13,5.13,5.13,5.13,5.13,5.13,5.1339,5.1865,5.2314,5.2545,5.2818,5.3071,5.313,5.2799,5.3227,5.4513,5.5234,5.5684,5.6756,5.7165,5.7167,5.1394,5.1394,5.1394,5.1394,5.1394,5.1394,5.1394,5.1394,5.1394,5.1394,5.1394,5.1394,5.1394,5.1394,5.1394,5.1394,5.1394,5.1394,5.1394,5.1392,5.1389,5.1384,5.1373,5.1362,5.1346,5.1305,5.1275,5.1236,5.1223,5.1236,5.1215,5.1196,5.1078,5.107,5.1193,5.1193,5.1223,5.1292,5.1218,5.1236,5.1292,5.1254,5.1276,5.1278,5.13,5.13,5.13,5.13,5.13,5.13,5.13,5.13,5.13,5.13,5.13,5.13,5.13,5.13,5.13,5.13,5.13,5.13,5.13,5.13,5.13,5.13,5.13,5.13,5.13,5.13,5.13,5.13,5.13,5.13,5.13,5.13,5.13,5.13,5.13,5.13,5.13,5.13,5.13,5.13,5.1337,5.1474,5.1435,5.1883,5.1922,5.2,5.2019,5.1943,5.1805,5.1454,5.13,5.13,5.13,5.13,5.13,5.1612,5.1885,5.2662,5.3247,5.3403,5.3617,5.3909,5.3851,5.387,5.473,5.6074,5.6639,5.7029,5.8219,5.9349,5.933,5.1394,5.1394,5.1394,5.1394,5.1394,5.1394,5.1394,5.1394,5.1394,5.1394,5.1394,5.1394,5.1394,5.1394,5.1394,5.1394,5.1394,5.1394,5.1394,5.1394,5.1393,5.1389,5.1384,5.1396,5.1385,5.1376,5.1361,5.1358,5.1356,5.1356,5.1353,5.1367,5.1341,5.1291,5.1305,5.129,5.1298,5.1298,5.1282,5.129,5.1248,5.1184,5.1232,5.1282,5.13,5.13,5.13,5.13,5.13,5.13,5.13,5.13,5.13,5.13,5.13,5.13,5.13,5.13,5.13,5.13,5.13,5.13,5.13,5.13,5.13,5.13,5.13,5.13,5.13,5.13,5.13,5.13,5.13,5.13,5.13,5.13,5.13,5.13,5.13,5.13,5.132,5.132,5.1337,5.1337,5.1571,5.1688,5.2019,5.2448,5.2799,5.2896,5.2974,5.2779,5.2545,5.2136,5.1493,5.1435,5.1474,5.13,5.1378,5.1865,5.2467,5.3364,5.3968,5.4182,5.4416,5.5137,5.5429,5.5548,5.6563,5.7615,5.7732,5.8161,5.9542,6.0538,6.1042,5.1394,5.1394,5.1394,5.1394,5.1394,5.1394,5.1394,5.1394,5.1394,5.1394,5.1394,5.1394,5.1394,5.1394,5.1394,5.1394,5.1394,5.1394,5.1394,5.1394,5.1394,5.1393,5.139,5.1384,5.139,5.1383,5.14,5.1396,5.1383,5.1399,5.1369,5.1322,5.1319,5.1307,5.1308,5.13,5.13,5.13,5.13,5.13,5.13,5.128,5.1284,5.1296,5.13,5.13,5.13,5.13,5.13,5.13,5.13,5.13,5.13,5.132,5.1359,5.1454,5.1435,5.1415,5.1415,5.1339,5.1339,5.13,5.13,5.13,5.13,5.13,5.13,5.13,5.13,5.13,5.13,5.13,5.13,5.13,5.13,5.13,5.13,5.13,5.13,5.1359,5.1417,5.1437,5.1493,5.1766,5.237,5.2623,5.313,5.3519,5.3675,5.3792,5.3968,5.3675,5.3383,5.2428,5.1649,5.1727,5.1727,5.1493,5.169,5.2606,5.3442,5.4162,5.4706,5.5429,5.6191,5.6951,5.7126,5.7087,5.8005,5.8823,5.8745,5.9232,6.0635,6.1354,6.151]}]]